<?xml version="1.0" encoding="utf-8"?>
<gpx xmlns:xsi="http://www.w3.org/2001/XMLSchema-instance" xmlns:xsd="http://www.w3.org/2001/XMLSchema" version="1.1" creator="Shapelink.com" xmlns="http://www.topografix.com/GPX/1/1" xmlns:gpxtpx="http://www.garmin.com/xmlschemas/TrackPointExtension/v1">
  <metadata>
    <name>Ciclismo 45.27 km, 2015-06-19</name>
    <desc></desc>
    <author><name>Henrik Amren</name></author> 
    <time>2015-06-19T10:59:39Z</time>
  </metadata>
  <trk>
    <name>Ciclismo 45.27 km, 2015-06-19</name>
    <trkseg>
      <trkpt lat="39.838384896875" lon="3.123726426518">
        <ele>23.4</ele>
        <time>2015-06-19T10:59:39Z</time>
      </trkpt>
      <trkpt lat="39.838396463897" lon="3.123605056606">
        <ele>23.4</ele>
        <time>2015-06-19T10:59:44Z</time>
      </trkpt>
      <trkpt lat="39.838307112843" lon="3.123450829646">
        <ele>23.6</ele>
        <time>2015-06-19T10:59:49Z</time>
      </trkpt>
      <trkpt lat="39.838259000737" lon="3.123317641255">
        <ele>23.8</ele>
        <time>2015-06-19T10:59:53Z</time>
      </trkpt>
      <trkpt lat="39.83827635127" lon="3.123281682904">
        <ele>23.6</ele>
        <time>2015-06-19T10:59:54Z</time>
      </trkpt>
      <trkpt lat="39.838366624333" lon="3.123133407093">
        <ele>23.6</ele>
        <time>2015-06-19T10:59:58Z</time>
      </trkpt>
      <trkpt lat="39.838527556813" lon="3.12288303974">
        <ele>23.8</ele>
        <time>2015-06-19T11:00:04Z</time>
      </trkpt>
      <trkpt lat="39.838722435988" lon="3.122572322707">
        <ele>23.8</ele>
        <time>2015-06-19T11:00:11Z</time>
      </trkpt>
      <trkpt lat="39.838903987942" lon="3.122290858505">
        <ele>23.8</ele>
        <time>2015-06-19T11:00:18Z</time>
      </trkpt>
      <trkpt lat="39.838949753116" lon="3.12221332593">
        <ele>23.6</ele>
        <time>2015-06-19T11:00:22Z</time>
      </trkpt>
      <trkpt lat="39.83907346996" lon="3.122024230266">
        <ele>23.8</ele>
        <time>2015-06-19T11:00:28Z</time>
      </trkpt>
      <trkpt lat="39.839186793248" lon="3.121838487362">
        <ele>24</ele>
        <time>2015-06-19T11:00:33Z</time>
      </trkpt>
      <trkpt lat="39.839321490381" lon="3.121617959573">
        <ele>24</ele>
        <time>2015-06-19T11:00:40Z</time>
      </trkpt>
      <trkpt lat="39.839422827552" lon="3.121452333229">
        <ele>23.8</ele>
        <time>2015-06-19T11:00:45Z</time>
      </trkpt>
      <trkpt lat="39.839457277161" lon="3.121423918588">
        <ele>23.6</ele>
        <time>2015-06-19T11:00:49Z</time>
      </trkpt>
      <trkpt lat="39.839477561359" lon="3.121405143132">
        <ele>23.6</ele>
        <time>2015-06-19T11:00:56Z</time>
      </trkpt>
      <trkpt lat="39.839526595474" lon="3.121364993831">
        <ele>23.6</ele>
        <time>2015-06-19T11:01:07Z</time>
      </trkpt>
      <trkpt lat="39.839542688722" lon="3.121354264999">
        <ele>23.6</ele>
        <time>2015-06-19T11:01:19Z</time>
      </trkpt>
      <trkpt lat="39.839514274081" lon="3.121383769287">
        <ele>23.6</ele>
        <time>2015-06-19T11:01:33Z</time>
      </trkpt>
      <trkpt lat="39.839528439492" lon="3.121348649126">
        <ele>23.6</ele>
        <time>2015-06-19T11:01:38Z</time>
      </trkpt>
      <trkpt lat="39.839510250769" lon="3.121329622213">
        <ele>23.6</ele>
        <time>2015-06-19T11:01:40Z</time>
      </trkpt>
      <trkpt lat="39.839445793958" lon="3.121412267747">
        <ele>23.8</ele>
        <time>2015-06-19T11:01:44Z</time>
      </trkpt>
      <trkpt lat="39.839378990215" lon="3.121526093949">
        <ele>24</ele>
        <time>2015-06-19T11:01:47Z</time>
      </trkpt>
      <trkpt lat="39.839325932788" lon="3.121622653437">
        <ele>24</ele>
        <time>2015-06-19T11:01:49Z</time>
      </trkpt>
      <trkpt lat="39.839160474082" lon="3.121883414346">
        <ele>24.4</ele>
        <time>2015-06-19T11:01:55Z</time>
      </trkpt>
      <trkpt lat="39.839132394717" lon="3.121917863955">
        <ele>24.4</ele>
        <time>2015-06-19T11:01:56Z</time>
      </trkpt>
      <trkpt lat="39.83897204897" lon="3.122137637373">
        <ele>24.2</ele>
        <time>2015-06-19T11:02:02Z</time>
      </trkpt>
      <trkpt lat="39.838949082564" lon="3.122139062296">
        <ele>24.2</ele>
        <time>2015-06-19T11:02:03Z</time>
      </trkpt>
      <trkpt lat="39.838915974059" lon="3.122172925172">
        <ele>24.2</ele>
        <time>2015-06-19T11:02:05Z</time>
      </trkpt>
      <trkpt lat="39.838888146151" lon="3.122304018088">
        <ele>24.2</ele>
        <time>2015-06-19T11:02:08Z</time>
      </trkpt>
      <trkpt lat="39.838828802299" lon="3.122390938391">
        <ele>24</ele>
        <time>2015-06-19T11:02:10Z</time>
      </trkpt>
      <trkpt lat="39.838728806232" lon="3.122532760139">
        <ele>24.2</ele>
        <time>2015-06-19T11:02:13Z</time>
      </trkpt>
      <trkpt lat="39.838460585432" lon="3.12292578743">
        <ele>24.4</ele>
        <time>2015-06-19T11:02:21Z</time>
      </trkpt>
      <trkpt lat="39.838306442291" lon="3.123161402639">
        <ele>24.2</ele>
        <time>2015-06-19T11:02:26Z</time>
      </trkpt>
      <trkpt lat="39.838278111469" lon="3.123198450637">
        <ele>24.2</ele>
        <time>2015-06-19T11:02:27Z</time>
      </trkpt>
      <trkpt lat="39.838167470389" lon="3.123283275465">
        <ele>24</ele>
        <time>2015-06-19T11:02:31Z</time>
      </trkpt>
      <trkpt lat="39.838072419643" lon="3.1232971056">
        <ele>23.8</ele>
        <time>2015-06-19T11:02:34Z</time>
      </trkpt>
      <trkpt lat="39.838053057454" lon="3.123282521094">
        <ele>23.8</ele>
        <time>2015-06-19T11:02:35Z</time>
      </trkpt>
      <trkpt lat="39.838037383301" lon="3.123274893565">
        <ele>23.8</ele>
        <time>2015-06-19T11:02:36Z</time>
      </trkpt>
      <trkpt lat="39.838030342505" lon="3.123275396479">
        <ele>23.8</ele>
        <time>2015-06-19T11:02:40Z</time>
      </trkpt>
      <trkpt lat="39.83801483599" lon="3.123280006524">
        <ele>23.8</ele>
        <time>2015-06-19T11:02:42Z</time>
      </trkpt>
      <trkpt lat="39.837991618127" lon="3.123298279066">
        <ele>23.8</ele>
        <time>2015-06-19T11:02:46Z</time>
      </trkpt>
      <trkpt lat="39.837970998653" lon="3.123284868026">
        <ele>23.2</ele>
        <time>2015-06-19T11:02:51Z</time>
      </trkpt>
      <trkpt lat="39.837940656175" lon="3.123175987145">
        <ele>22.6</ele>
        <time>2015-06-19T11:02:54Z</time>
      </trkpt>
      <trkpt lat="39.837925904031" lon="3.123114463999">
        <ele>22.4</ele>
        <time>2015-06-19T11:02:55Z</time>
      </trkpt>
      <trkpt lat="39.838003352787" lon="3.123250250779">
        <ele>22.8</ele>
        <time>2015-06-19T11:05:45Z</time>
      </trkpt>
      <trkpt lat="39.838015255085" lon="3.123242707069">
        <ele>23.6</ele>
        <time>2015-06-19T11:05:50Z</time>
      </trkpt>
      <trkpt lat="39.838030342505" lon="3.123195349334">
        <ele>23.8</ele>
        <time>2015-06-19T11:05:55Z</time>
      </trkpt>
      <trkpt lat="39.838015087447" lon="3.123154780938">
        <ele>23.8</ele>
        <time>2015-06-19T11:05:59Z</time>
      </trkpt>
      <trkpt lat="39.837915175199" lon="3.123097281104">
        <ele>23.8</ele>
        <time>2015-06-19T11:06:04Z</time>
      </trkpt>
      <trkpt lat="39.837743346249" lon="3.123016814864">
        <ele>23.8</ele>
        <time>2015-06-19T11:06:10Z</time>
      </trkpt>
      <trkpt lat="39.837526757953" lon="3.122942048316">
        <ele>23.8</ele>
        <time>2015-06-19T11:06:16Z</time>
      </trkpt>
      <trkpt lat="39.837312851865" lon="3.122846075561">
        <ele>24</ele>
        <time>2015-06-19T11:06:22Z</time>
      </trkpt>
      <trkpt lat="39.837190140849" lon="3.122716156111">
        <ele>24</ele>
        <time>2015-06-19T11:06:27Z</time>
      </trkpt>
      <trkpt lat="39.83712467821" lon="3.122674665706">
        <ele>23.8</ele>
        <time>2015-06-19T11:06:32Z</time>
      </trkpt>
      <trkpt lat="39.837073464801" lon="3.122622781745">
        <ele>23.6</ele>
        <time>2015-06-19T11:06:38Z</time>
      </trkpt>
      <trkpt lat="39.837002973022" lon="3.122545416808">
        <ele>23.8</ele>
        <time>2015-06-19T11:06:42Z</time>
      </trkpt>
      <trkpt lat="39.836841956723" lon="3.122382724129">
        <ele>24</ele>
        <time>2015-06-19T11:06:48Z</time>
      </trkpt>
      <trkpt lat="39.836644730616" lon="3.12216471091">
        <ele>24.2</ele>
        <time>2015-06-19T11:06:55Z</time>
      </trkpt>
      <trkpt lat="39.836477008797" lon="3.121926916407">
        <ele>24</ele>
        <time>2015-06-19T11:07:01Z</time>
      </trkpt>
      <trkpt lat="39.836428393777" lon="3.121815353318">
        <ele>23.8</ele>
        <time>2015-06-19T11:07:03Z</time>
      </trkpt>
      <trkpt lat="39.836327224244" lon="3.121580157204">
        <ele>23.8</ele>
        <time>2015-06-19T11:07:07Z</time>
      </trkpt>
      <trkpt lat="39.836273412446" lon="3.121479406766">
        <ele>23.8</ele>
        <time>2015-06-19T11:07:09Z</time>
      </trkpt>
      <trkpt lat="39.836257235379" lon="3.121420984923">
        <ele>24</ele>
        <time>2015-06-19T11:07:11Z</time>
      </trkpt>
      <trkpt lat="39.836227311996" lon="3.121385278029">
        <ele>23.8</ele>
        <time>2015-06-19T11:07:14Z</time>
      </trkpt>
      <trkpt lat="39.836206189608" lon="3.121363233632">
        <ele>23.8</ele>
        <time>2015-06-19T11:07:15Z</time>
      </trkpt>
      <trkpt lat="39.836101918772" lon="3.121224094092">
        <ele>23.8</ele>
        <time>2015-06-19T11:07:19Z</time>
      </trkpt>
      <trkpt lat="39.836013573546" lon="3.121125858224">
        <ele>23.8</ele>
        <time>2015-06-19T11:07:22Z</time>
      </trkpt>
      <trkpt lat="39.835955989893" lon="3.12105997649">
        <ele>23.8</ele>
        <time>2015-06-19T11:07:24Z</time>
      </trkpt>
      <trkpt lat="39.835879295508" lon="3.121008930719">
        <ele>23.8</ele>
        <time>2015-06-19T11:07:26Z</time>
      </trkpt>
      <trkpt lat="39.835808384634" lon="3.120930140859">
        <ele>23.8</ele>
        <time>2015-06-19T11:07:28Z</time>
      </trkpt>
      <trkpt lat="39.835768402971" lon="3.12089736763">
        <ele>23.8</ele>
        <time>2015-06-19T11:07:29Z</time>
      </trkpt>
      <trkpt lat="39.835624988662" lon="3.120839448701">
        <ele>24</ele>
        <time>2015-06-19T11:07:32Z</time>
      </trkpt>
      <trkpt lat="39.835575619271" lon="3.120822684901">
        <ele>24</ele>
        <time>2015-06-19T11:07:33Z</time>
      </trkpt>
      <trkpt lat="39.835106651966" lon="3.120706092672">
        <ele>24</ele>
        <time>2015-06-19T11:07:42Z</time>
      </trkpt>
      <trkpt lat="39.834743631877" lon="3.120573742471">
        <ele>24</ele>
        <time>2015-06-19T11:07:49Z</time>
      </trkpt>
      <trkpt lat="39.834475411077" lon="3.120364530247">
        <ele>23.8</ele>
        <time>2015-06-19T11:07:55Z</time>
      </trkpt>
      <trkpt lat="39.834224708448" lon="3.120139476232">
        <ele>24</ele>
        <time>2015-06-19T11:08:01Z</time>
      </trkpt>
      <trkpt lat="39.833994960569" lon="3.11989321601">
        <ele>23.8</ele>
        <time>2015-06-19T11:08:07Z</time>
      </trkpt>
      <trkpt lat="39.83395883458" lon="3.119843343705">
        <ele>23.8</ele>
        <time>2015-06-19T11:08:08Z</time>
      </trkpt>
      <trkpt lat="39.8339320125" lon="3.119788945174">
        <ele>23.8</ele>
        <time>2015-06-19T11:08:09Z</time>
      </trkpt>
      <trkpt lat="39.833843667274" lon="3.119626168676">
        <ele>23.8</ele>
        <time>2015-06-19T11:08:12Z</time>
      </trkpt>
      <trkpt lat="39.833788262915" lon="3.11951183956">
        <ele>23.8</ele>
        <time>2015-06-19T11:08:14Z</time>
      </trkpt>
      <trkpt lat="39.833559772321" lon="3.119153597154">
        <ele>23.8</ele>
        <time>2015-06-19T11:08:21Z</time>
      </trkpt>
      <trkpt lat="39.833522724323" lon="3.119115710966">
        <ele>23.8</ele>
        <time>2015-06-19T11:08:22Z</time>
      </trkpt>
      <trkpt lat="39.833452903096" lon="3.119052679078">
        <ele>23.8</ele>
        <time>2015-06-19T11:08:24Z</time>
      </trkpt>
      <trkpt lat="39.833415603641" lon="3.119053265811">
        <ele>23.8</ele>
        <time>2015-06-19T11:08:25Z</time>
      </trkpt>
      <trkpt lat="39.833332539012" lon="3.119146221082">
        <ele>23.8</ele>
        <time>2015-06-19T11:08:28Z</time>
      </trkpt>
      <trkpt lat="39.833292976444" lon="3.119240014543">
        <ele>23.8</ele>
        <time>2015-06-19T11:08:30Z</time>
      </trkpt>
      <trkpt lat="39.833243690872" lon="3.119367000328">
        <ele>23.8</ele>
        <time>2015-06-19T11:08:33Z</time>
      </trkpt>
      <trkpt lat="39.833173031455" lon="3.119484263109">
        <ele>23.6</ele>
        <time>2015-06-19T11:08:38Z</time>
      </trkpt>
      <trkpt lat="39.833062893289" lon="3.119439168487">
        <ele>23.4</ele>
        <time>2015-06-19T11:08:42Z</time>
      </trkpt>
      <trkpt lat="39.833022827807" lon="3.119415028615">
        <ele>23.4</ele>
        <time>2015-06-19T11:08:43Z</time>
      </trkpt>
      <trkpt lat="39.832880419326" lon="3.119317044204">
        <ele>23.4</ele>
        <time>2015-06-19T11:08:47Z</time>
      </trkpt>
      <trkpt lat="39.832667854342" lon="3.119146723996">
        <ele>23.6</ele>
        <time>2015-06-19T11:08:53Z</time>
      </trkpt>
      <trkpt lat="39.832618149675" lon="3.119038010753">
        <ele>23.8</ele>
        <time>2015-06-19T11:08:56Z</time>
      </trkpt>
      <trkpt lat="39.832583448609" lon="3.119034155079">
        <ele>23.6</ele>
        <time>2015-06-19T11:08:57Z</time>
      </trkpt>
      <trkpt lat="39.832568445008" lon="3.119095762044">
        <ele>23.6</ele>
        <time>2015-06-19T11:08:59Z</time>
      </trkpt>
      <trkpt lat="39.832640110253" lon="3.119174132809">
        <ele>23.6</ele>
        <time>2015-06-19T11:09:02Z</time>
      </trkpt>
      <trkpt lat="39.832743207623" lon="3.119247306796">
        <ele>23.6</ele>
        <time>2015-06-19T11:09:05Z</time>
      </trkpt>
      <trkpt lat="39.832814956687" lon="3.119302711155">
        <ele>23.6</ele>
        <time>2015-06-19T11:09:07Z</time>
      </trkpt>
      <trkpt lat="39.832854603074" lon="3.119326683389">
        <ele>23.8</ele>
        <time>2015-06-19T11:09:08Z</time>
      </trkpt>
      <trkpt lat="39.832993910252" lon="3.119421398859">
        <ele>24</ele>
        <time>2015-06-19T11:09:12Z</time>
      </trkpt>
      <trkpt lat="39.833072616293" lon="3.119449142948">
        <ele>23.6</ele>
        <time>2015-06-19T11:09:16Z</time>
      </trkpt>
      <trkpt lat="39.833105054246" lon="3.119529944464">
        <ele>23.4</ele>
        <time>2015-06-19T11:09:20Z</time>
      </trkpt>
      <trkpt lat="39.83304017834" lon="3.11970378507">
        <ele>23.6</ele>
        <time>2015-06-19T11:09:25Z</time>
      </trkpt>
      <trkpt lat="39.832967171991" lon="3.11989656877">
        <ele>23.6</ele>
        <time>2015-06-19T11:09:31Z</time>
      </trkpt>
      <trkpt lat="39.83292283174" lon="3.119929090542">
        <ele>23.4</ele>
        <time>2015-06-19T11:09:34Z</time>
      </trkpt>
      <trkpt lat="39.832905732664" lon="3.11990997981">
        <ele>23.4</ele>
        <time>2015-06-19T11:09:35Z</time>
      </trkpt>
      <trkpt lat="39.832770700255" lon="3.119834375072">
        <ele>23.4</ele>
        <time>2015-06-19T11:09:40Z</time>
      </trkpt>
      <trkpt lat="39.832642457185" lon="3.119721889974">
        <ele>23.4</ele>
        <time>2015-06-19T11:09:45Z</time>
      </trkpt>
      <trkpt lat="39.832446236906" lon="3.11959482037">
        <ele>23.2</ele>
        <time>2015-06-19T11:09:53Z</time>
      </trkpt>
      <trkpt lat="39.832354036006" lon="3.119577553656">
        <ele>23.2</ele>
        <time>2015-06-19T11:09:58Z</time>
      </trkpt>
      <trkpt lat="39.832241634727" lon="3.119519299451">
        <ele>23.2</ele>
        <time>2015-06-19T11:10:03Z</time>
      </trkpt>
      <trkpt lat="39.832138202081" lon="3.119425925085">
        <ele>23.2</ele>
        <time>2015-06-19T11:10:07Z</time>
      </trkpt>
      <trkpt lat="39.832027896277" lon="3.119360462446">
        <ele>23.2</ele>
        <time>2015-06-19T11:10:12Z</time>
      </trkpt>
      <trkpt lat="39.83189185804" lon="3.119281840224">
        <ele>23.2</ele>
        <time>2015-06-19T11:10:17Z</time>
      </trkpt>
      <trkpt lat="39.831747605541" lon="3.119183855813">
        <ele>23.2</ele>
        <time>2015-06-19T11:10:23Z</time>
      </trkpt>
      <trkpt lat="39.831657667754" lon="3.119113866948">
        <ele>23</ele>
        <time>2015-06-19T11:10:30Z</time>
      </trkpt>
      <trkpt lat="39.831563874293" lon="3.119065754842">
        <ele>22.8</ele>
        <time>2015-06-19T11:10:39Z</time>
      </trkpt>
      <trkpt lat="39.831445186589" lon="3.119028874482">
        <ele>22.8</ele>
        <time>2015-06-19T11:10:46Z</time>
      </trkpt>
      <trkpt lat="39.831350219662" lon="3.118930219519">
        <ele>23</ele>
        <time>2015-06-19T11:10:52Z</time>
      </trkpt>
      <trkpt lat="39.831311495284" lon="3.118869534563">
        <ele>23</ele>
        <time>2015-06-19T11:10:58Z</time>
      </trkpt>
      <trkpt lat="39.831338149726" lon="3.118801557354">
        <ele>23</ele>
        <time>2015-06-19T11:11:02Z</time>
      </trkpt>
      <trkpt lat="39.831333204405" lon="3.118665100022">
        <ele>23.2</ele>
        <time>2015-06-19T11:11:08Z</time>
      </trkpt>
      <trkpt lat="39.831354242974" lon="3.118646240747">
        <ele>23.2</ele>
        <time>2015-06-19T11:11:09Z</time>
      </trkpt>
      <trkpt lat="39.831415263206" lon="3.118603912152">
        <ele>23.4</ele>
        <time>2015-06-19T11:11:12Z</time>
      </trkpt>
      <trkpt lat="39.831421968726" lon="3.118493019615">
        <ele>23.2</ele>
        <time>2015-06-19T11:11:15Z</time>
      </trkpt>
      <trkpt lat="39.831446946788" lon="3.118350192039">
        <ele>23.2</ele>
        <time>2015-06-19T11:11:18Z</time>
      </trkpt>
      <trkpt lat="39.831454071403" lon="3.118255895664">
        <ele>23.2</ele>
        <time>2015-06-19T11:11:20Z</time>
      </trkpt>
      <trkpt lat="39.831482234587" lon="3.117998990429">
        <ele>23.2</ele>
        <time>2015-06-19T11:11:26Z</time>
      </trkpt>
      <trkpt lat="39.831520372232" lon="3.117765386876">
        <ele>23.2</ele>
        <time>2015-06-19T11:11:32Z</time>
      </trkpt>
      <trkpt lat="39.831547278131" lon="3.117721046625">
        <ele>23</ele>
        <time>2015-06-19T11:11:36Z</time>
      </trkpt>
      <trkpt lat="39.831546104665" lon="3.117699253685">
        <ele>23</ele>
        <time>2015-06-19T11:11:44Z</time>
      </trkpt>
      <trkpt lat="39.831521461879" lon="3.117642424403">
        <ele>23</ele>
        <time>2015-06-19T11:11:56Z</time>
      </trkpt>
      <trkpt lat="39.831535208195" lon="3.117469086711">
        <ele>23.2</ele>
        <time>2015-06-19T11:12:01Z</time>
      </trkpt>
      <trkpt lat="39.831608717458" lon="3.117279991047">
        <ele>23.2</ele>
        <time>2015-06-19T11:12:06Z</time>
      </trkpt>
      <trkpt lat="39.831619530109" lon="3.11727554864">
        <ele>23.2</ele>
        <time>2015-06-19T11:12:07Z</time>
      </trkpt>
      <trkpt lat="39.831643921438" lon="3.117233890597">
        <ele>23.2</ele>
        <time>2015-06-19T11:12:10Z</time>
      </trkpt>
      <trkpt lat="39.831695302485" lon="3.117057283964">
        <ele>23.2</ele>
        <time>2015-06-19T11:12:14Z</time>
      </trkpt>
      <trkpt lat="39.831618356643" lon="3.116971537127">
        <ele>23.8</ele>
        <time>2015-06-19T11:12:17Z</time>
      </trkpt>
      <trkpt lat="39.831496064722" lon="3.116993413886">
        <ele>23.8</ele>
        <time>2015-06-19T11:12:21Z</time>
      </trkpt>
      <trkpt lat="39.831401097795" lon="3.116933315663">
        <ele>23.6</ele>
        <time>2015-06-19T11:12:25Z</time>
      </trkpt>
      <trkpt lat="39.83123471708" lon="3.11688159934">
        <ele>23.6</ele>
        <time>2015-06-19T11:12:29Z</time>
      </trkpt>
      <trkpt lat="39.831190795924" lon="3.11686735011">
        <ele>23.8</ele>
        <time>2015-06-19T11:12:30Z</time>
      </trkpt>
      <trkpt lat="39.830854011182" lon="3.116780513626">
        <ele>23.8</ele>
        <time>2015-06-19T11:12:37Z</time>
      </trkpt>
      <trkpt lat="39.830502055201" lon="3.116657132058">
        <ele>23.8</ele>
        <time>2015-06-19T11:12:43Z</time>
      </trkpt>
      <trkpt lat="39.829964188678" lon="3.116476250656">
        <ele>24</ele>
        <time>2015-06-19T11:12:52Z</time>
      </trkpt>
      <trkpt lat="39.829407379061" lon="3.116288663734">
        <ele>24.2</ele>
        <time>2015-06-19T11:13:01Z</time>
      </trkpt>
      <trkpt lat="39.828846629951" lon="3.116119433173">
        <ele>24.2</ele>
        <time>2015-06-19T11:13:10Z</time>
      </trkpt>
      <trkpt lat="39.82826417172" lon="3.115943245635">
        <ele>24.2</ele>
        <time>2015-06-19T11:13:19Z</time>
      </trkpt>
      <trkpt lat="39.827675510883" lon="3.115836879324">
        <ele>24.4</ele>
        <time>2015-06-19T11:13:28Z</time>
      </trkpt>
      <trkpt lat="39.827477027491" lon="3.115805028104">
        <ele>24.6</ele>
        <time>2015-06-19T11:13:31Z</time>
      </trkpt>
      <trkpt lat="39.826948129601" lon="3.115690615169">
        <ele>24.8</ele>
        <time>2015-06-19T11:13:39Z</time>
      </trkpt>
      <trkpt lat="39.826885097713" lon="3.115678964328">
        <ele>24.8</ele>
        <time>2015-06-19T11:13:40Z</time>
      </trkpt>
      <trkpt lat="39.826337508186" lon="3.115571843646">
        <ele>24.8</ele>
        <time>2015-06-19T11:13:48Z</time>
      </trkpt>
      <trkpt lat="39.826266345855" lon="3.11555893552">
        <ele>24.8</ele>
        <time>2015-06-19T11:13:49Z</time>
      </trkpt>
      <trkpt lat="39.825809616124" lon="3.115471512303">
        <ele>25</ele>
        <time>2015-06-19T11:13:56Z</time>
      </trkpt>
      <trkpt lat="39.825231181205" lon="3.115368582571">
        <ele>24.6</ele>
        <time>2015-06-19T11:14:05Z</time>
      </trkpt>
      <trkpt lat="39.824881153061" lon="3.115299599534">
        <ele>24.2</ele>
        <time>2015-06-19T11:14:11Z</time>
      </trkpt>
      <trkpt lat="39.824722902789" lon="3.115254756369">
        <ele>24.4</ele>
        <time>2015-06-19T11:14:14Z</time>
      </trkpt>
      <trkpt lat="39.824613267537" lon="3.115189209911">
        <ele>24.6</ele>
        <time>2015-06-19T11:14:16Z</time>
      </trkpt>
      <trkpt lat="39.824489299236" lon="3.115158448338">
        <ele>24.6</ele>
        <time>2015-06-19T11:14:18Z</time>
      </trkpt>
      <trkpt lat="39.824287630722" lon="3.115131207163">
        <ele>24.4</ele>
        <time>2015-06-19T11:14:21Z</time>
      </trkpt>
      <trkpt lat="39.823757391728" lon="3.115040515005">
        <ele>24.2</ele>
        <time>2015-06-19T11:14:29Z</time>
      </trkpt>
      <trkpt lat="39.823181974293" lon="3.114924258052">
        <ele>24.4</ele>
        <time>2015-06-19T11:14:38Z</time>
      </trkpt>
      <trkpt lat="39.823119026224" lon="3.114913948315">
        <ele>24.2</ele>
        <time>2015-06-19T11:14:39Z</time>
      </trkpt>
      <trkpt lat="39.822735805756" lon="3.114834152627">
        <ele>24.4</ele>
        <time>2015-06-19T11:14:46Z</time>
      </trkpt>
      <trkpt lat="39.822572693982" lon="3.114795847344">
        <ele>24</ele>
        <time>2015-06-19T11:14:50Z</time>
      </trkpt>
      <trkpt lat="39.822492646837" lon="3.114782017209">
        <ele>23.8</ele>
        <time>2015-06-19T11:14:52Z</time>
      </trkpt>
      <trkpt lat="39.822449563871" lon="3.114774222042">
        <ele>23.8</ele>
        <time>2015-06-19T11:14:53Z</time>
      </trkpt>
      <trkpt lat="39.822142199598" lon="3.114726277574">
        <ele>24.2</ele>
        <time>2015-06-19T11:14:59Z</time>
      </trkpt>
      <trkpt lat="39.82156871" lon="3.114631981199">
        <ele>24.4</ele>
        <time>2015-06-19T11:15:09Z</time>
      </trkpt>
      <trkpt lat="39.821120362169" lon="3.114540115575">
        <ele>24.2</ele>
        <time>2015-06-19T11:15:17Z</time>
      </trkpt>
      <trkpt lat="39.820578053239" lon="3.114434755092">
        <ele>24.4</ele>
        <time>2015-06-19T11:15:26Z</time>
      </trkpt>
      <trkpt lat="39.820031720997" lon="3.114348756798">
        <ele>24.8</ele>
        <time>2015-06-19T11:15:35Z</time>
      </trkpt>
      <trkpt lat="39.819970197851" lon="3.114343727658">
        <ele>24.6</ele>
        <time>2015-06-19T11:15:36Z</time>
      </trkpt>
      <trkpt lat="39.819913117112" lon="3.114325455116">
        <ele>24.6</ele>
        <time>2015-06-19T11:15:37Z</time>
      </trkpt>
      <trkpt lat="39.819684710337" lon="3.114280109037">
        <ele>24.4</ele>
        <time>2015-06-19T11:15:41Z</time>
      </trkpt>
      <trkpt lat="39.819203924553" lon="3.114212131828">
        <ele>24.6</ele>
        <time>2015-06-19T11:15:49Z</time>
      </trkpt>
      <trkpt lat="39.818739567293" lon="3.11412395424">
        <ele>24.8</ele>
        <time>2015-06-19T11:15:57Z</time>
      </trkpt>
      <trkpt lat="39.818622555969" lon="3.114104843508">
        <ele>24.8</ele>
        <time>2015-06-19T11:15:59Z</time>
      </trkpt>
      <trkpt lat="39.818277305508" lon="3.114030412236">
        <ele>24.8</ele>
        <time>2015-06-19T11:16:05Z</time>
      </trkpt>
      <trkpt lat="39.817869274616" lon="3.11398565289">
        <ele>24.8</ele>
        <time>2015-06-19T11:16:12Z</time>
      </trkpt>
      <trkpt lat="39.817661235858" lon="3.113939133345">
        <ele>24.8</ele>
        <time>2015-06-19T11:16:16Z</time>
      </trkpt>
      <trkpt lat="39.817080118731" lon="3.113839975468">
        <ele>25.4</ele>
        <time>2015-06-19T11:16:26Z</time>
      </trkpt>
      <trkpt lat="39.816696562987" lon="3.113812734293">
        <ele>25.6</ele>
        <time>2015-06-19T11:16:33Z</time>
      </trkpt>
      <trkpt lat="39.816352988906" lon="3.113851039576">
        <ele>25.8</ele>
        <time>2015-06-19T11:16:40Z</time>
      </trkpt>
      <trkpt lat="39.816251065002" lon="3.113879621855">
        <ele>25.6</ele>
        <time>2015-06-19T11:16:42Z</time>
      </trkpt>
      <trkpt lat="39.816125671778" lon="3.113905521926">
        <ele>25.6</ele>
        <time>2015-06-19T11:16:45Z</time>
      </trkpt>
      <trkpt lat="39.815908999663" lon="3.113970230194">
        <ele>25.2</ele>
        <time>2015-06-19T11:16:51Z</time>
      </trkpt>
      <trkpt lat="39.815795927832" lon="3.114011804418">
        <ele>25.2</ele>
        <time>2015-06-19T11:16:54Z</time>
      </trkpt>
      <trkpt lat="39.815703810751" lon="3.114044158552">
        <ele>25.2</ele>
        <time>2015-06-19T11:16:56Z</time>
      </trkpt>
      <trkpt lat="39.815657291206" lon="3.114058072506">
        <ele>25.2</ele>
        <time>2015-06-19T11:16:57Z</time>
      </trkpt>
      <trkpt lat="39.8153577221" lon="3.114150021949">
        <ele>25.6</ele>
        <time>2015-06-19T11:17:04Z</time>
      </trkpt>
      <trkpt lat="39.815114479362" lon="3.114214143484">
        <ele>25</ele>
        <time>2015-06-19T11:17:11Z</time>
      </trkpt>
      <trkpt lat="39.815009454155" lon="3.114281450141">
        <ele>24.8</ele>
        <time>2015-06-19T11:17:14Z</time>
      </trkpt>
      <trkpt lat="39.814928652639" lon="3.114354205033">
        <ele>25</ele>
        <time>2015-06-19T11:17:16Z</time>
      </trkpt>
      <trkpt lat="39.814718518406" lon="3.114442550259">
        <ele>25.2</ele>
        <time>2015-06-19T11:17:20Z</time>
      </trkpt>
      <trkpt lat="39.814658504002" lon="3.114459565516">
        <ele>25.2</ele>
        <time>2015-06-19T11:17:21Z</time>
      </trkpt>
      <trkpt lat="39.814181322435" lon="3.114610607354">
        <ele>25.4</ele>
        <time>2015-06-19T11:17:29Z</time>
      </trkpt>
      <trkpt lat="39.813978731912" lon="3.114663832419">
        <ele>25.4</ele>
        <time>2015-06-19T11:17:33Z</time>
      </trkpt>
      <trkpt lat="39.813856188534" lon="3.114700209865">
        <ele>25.2</ele>
        <time>2015-06-19T11:17:37Z</time>
      </trkpt>
      <trkpt lat="39.813657453685" lon="3.114757877337">
        <ele>25.2</ele>
        <time>2015-06-19T11:17:43Z</time>
      </trkpt>
      <trkpt lat="39.813487971667" lon="3.114795847344">
        <ele>25</ele>
        <time>2015-06-19T11:17:50Z</time>
      </trkpt>
      <trkpt lat="39.813293427768" lon="3.114844965278">
        <ele>25.2</ele>
        <time>2015-06-19T11:17:57Z</time>
      </trkpt>
      <trkpt lat="39.813118581334" lon="3.114899028533">
        <ele>25.4</ele>
        <time>2015-06-19T11:18:02Z</time>
      </trkpt>
      <trkpt lat="39.812835943666" lon="3.115001790627">
        <ele>25.4</ele>
        <time>2015-06-19T11:18:08Z</time>
      </trkpt>
      <trkpt lat="39.812471498654" lon="3.115119472503">
        <ele>25.8</ele>
        <time>2015-06-19T11:18:15Z</time>
      </trkpt>
      <trkpt lat="39.812308554518" lon="3.115170434455">
        <ele>25.8</ele>
        <time>2015-06-19T11:18:18Z</time>
      </trkpt>
      <trkpt lat="39.811992975983" lon="3.115264144097">
        <ele>25.6</ele>
        <time>2015-06-19T11:18:23Z</time>
      </trkpt>
      <trkpt lat="39.811515207683" lon="3.115433626115">
        <ele>25.8</ele>
        <time>2015-06-19T11:18:31Z</time>
      </trkpt>
      <trkpt lat="39.811404985698" lon="3.115484252791">
        <ele>25.8</ele>
        <time>2015-06-19T11:18:33Z</time>
      </trkpt>
      <trkpt lat="39.811287806736" lon="3.115536052933">
        <ele>25.8</ele>
        <time>2015-06-19T11:18:35Z</time>
      </trkpt>
      <trkpt lat="39.811234749309" lon="3.115566060135">
        <ele>25.8</ele>
        <time>2015-06-19T11:18:36Z</time>
      </trkpt>
      <trkpt lat="39.810933671461" lon="3.115637976837">
        <ele>26</ele>
        <time>2015-06-19T11:18:41Z</time>
      </trkpt>
      <trkpt lat="39.810427823796" lon="3.115785917372">
        <ele>26</ele>
        <time>2015-06-19T11:18:50Z</time>
      </trkpt>
      <trkpt lat="39.809862213184" lon="3.115946011662">
        <ele>25.6</ele>
        <time>2015-06-19T11:19:00Z</time>
      </trkpt>
      <trkpt lat="39.80930012297" lon="3.11613141929">
        <ele>25.8</ele>
        <time>2015-06-19T11:19:10Z</time>
      </trkpt>
      <trkpt lat="39.80922971501" lon="3.116156648809">
        <ele>25.8</ele>
        <time>2015-06-19T11:19:11Z</time>
      </trkpt>
      <trkpt lat="39.808821181204" lon="3.116290591571">
        <ele>25.8</ele>
        <time>2015-06-19T11:19:18Z</time>
      </trkpt>
      <trkpt lat="39.808271999116" lon="3.116463677806">
        <ele>25.8</ele>
        <time>2015-06-19T11:19:27Z</time>
      </trkpt>
      <trkpt lat="39.807804875829" lon="3.116625699933">
        <ele>26</ele>
        <time>2015-06-19T11:19:35Z</time>
      </trkpt>
      <trkpt lat="39.807255609922" lon="3.116785542766">
        <ele>26</ele>
        <time>2015-06-19T11:19:44Z</time>
      </trkpt>
      <trkpt lat="39.807191153111" lon="3.116808928267">
        <ele>25.8</ele>
        <time>2015-06-19T11:19:45Z</time>
      </trkpt>
      <trkpt lat="39.806783206038" lon="3.116947732531">
        <ele>26</ele>
        <time>2015-06-19T11:19:50Z</time>
      </trkpt>
      <trkpt lat="39.806328320325" lon="3.117092404125">
        <ele>26.8</ele>
        <time>2015-06-19T11:19:55Z</time>
      </trkpt>
      <trkpt lat="39.805939400165" lon="3.117204051033">
        <ele>27.2</ele>
        <time>2015-06-19T11:19:59Z</time>
      </trkpt>
      <trkpt lat="39.805373538096" lon="3.117369090644">
        <ele>27</ele>
        <time>2015-06-19T11:20:05Z</time>
      </trkpt>
      <trkpt lat="39.804789403485" lon="3.11755047496">
        <ele>26.6</ele>
        <time>2015-06-19T11:20:12Z</time>
      </trkpt>
      <trkpt lat="39.804395118909" lon="3.117663798248">
        <ele>26.2</ele>
        <time>2015-06-19T11:20:18Z</time>
      </trkpt>
      <trkpt lat="39.804300151982" lon="3.117653739968">
        <ele>26.2</ele>
        <time>2015-06-19T11:20:20Z</time>
      </trkpt>
      <trkpt lat="39.804219350466" lon="3.117605376405">
        <ele>25.8</ele>
        <time>2015-06-19T11:20:22Z</time>
      </trkpt>
      <trkpt lat="39.804061351651" lon="3.117509152193">
        <ele>25.8</ele>
        <time>2015-06-19T11:20:26Z</time>
      </trkpt>
      <trkpt lat="39.804019190694" lon="3.117329947171">
        <ele>26</ele>
        <time>2015-06-19T11:20:29Z</time>
      </trkpt>
      <trkpt lat="39.803960433575" lon="3.117024343097">
        <ele>25.6</ele>
        <time>2015-06-19T11:20:34Z</time>
      </trkpt>
      <trkpt lat="39.803943921232" lon="3.116963825779">
        <ele>25.6</ele>
        <time>2015-06-19T11:20:35Z</time>
      </trkpt>
      <trkpt lat="39.803845014812" lon="3.116523021658">
        <ele>25.2</ele>
        <time>2015-06-19T11:20:42Z</time>
      </trkpt>
      <trkpt lat="39.803740660157" lon="3.11601910183">
        <ele>25</ele>
        <time>2015-06-19T11:20:50Z</time>
      </trkpt>
      <trkpt lat="39.803701349046" lon="3.11579027596">
        <ele>24.8</ele>
        <time>2015-06-19T11:20:54Z</time>
      </trkpt>
      <trkpt lat="39.803698583019" lon="3.115701260182">
        <ele>24.6</ele>
        <time>2015-06-19T11:20:56Z</time>
      </trkpt>
      <trkpt lat="39.803689362929" lon="3.115604449237">
        <ele>24.4</ele>
        <time>2015-06-19T11:20:59Z</time>
      </trkpt>
      <trkpt lat="39.80364653142" lon="3.115581482831">
        <ele>24.2</ele>
        <time>2015-06-19T11:21:01Z</time>
      </trkpt>
      <trkpt lat="39.803609064327" lon="3.11564191633">
        <ele>24.2</ele>
        <time>2015-06-19T11:21:04Z</time>
      </trkpt>
      <trkpt lat="39.803630354353" lon="3.115767477192">
        <ele>24.6</ele>
        <time>2015-06-19T11:21:08Z</time>
      </trkpt>
      <trkpt lat="39.80363898771" lon="3.115806620665">
        <ele>24.6</ele>
        <time>2015-06-19T11:21:09Z</time>
      </trkpt>
      <trkpt lat="39.803695230259" lon="3.116068387402">
        <ele>25</ele>
        <time>2015-06-19T11:21:15Z</time>
      </trkpt>
      <trkpt lat="39.803770918816" lon="3.116290591571">
        <ele>24.8</ele>
        <time>2015-06-19T11:21:22Z</time>
      </trkpt>
      <trkpt lat="39.803767482237" lon="3.116226386217">
        <ele>25</ele>
        <time>2015-06-19T11:21:24Z</time>
      </trkpt>
      <trkpt lat="39.803745186383" lon="3.116116667146">
        <ele>24.8</ele>
        <time>2015-06-19T11:21:26Z</time>
      </trkpt>
      <trkpt lat="39.80372699766" lon="3.115996135424">
        <ele>24.8</ele>
        <time>2015-06-19T11:21:28Z</time>
      </trkpt>
      <trkpt lat="39.803684752884" lon="3.115705954046">
        <ele>25</ele>
        <time>2015-06-19T11:21:32Z</time>
      </trkpt>
      <trkpt lat="39.803694140612" lon="3.115634791715">
        <ele>24.8</ele>
        <time>2015-06-19T11:21:33Z</time>
      </trkpt>
      <trkpt lat="39.803789107539" lon="3.115565389583">
        <ele>24.8</ele>
        <time>2015-06-19T11:21:35Z</time>
      </trkpt>
      <trkpt lat="39.803903604293" lon="3.115536472028">
        <ele>24.6</ele>
        <time>2015-06-19T11:21:37Z</time>
      </trkpt>
      <trkpt lat="39.8040170114" lon="3.115502273876">
        <ele>24.6</ele>
        <time>2015-06-19T11:21:39Z</time>
      </trkpt>
      <trkpt lat="39.804526966196" lon="3.115403367456">
        <ele>25.2</ele>
        <time>2015-06-19T11:21:48Z</time>
      </trkpt>
      <trkpt lat="39.804983612108" lon="3.11528317101">
        <ele>25</ele>
        <time>2015-06-19T11:21:56Z</time>
      </trkpt>
      <trkpt lat="39.80540673042" lon="3.115182923486">
        <ele>25.2</ele>
        <time>2015-06-19T11:22:04Z</time>
      </trkpt>
      <trkpt lat="39.805554168041" lon="3.115142690366">
        <ele>24.8</ele>
        <time>2015-06-19T11:22:07Z</time>
      </trkpt>
      <trkpt lat="39.805737061099" lon="3.115108324576">
        <ele>24.4</ele>
        <time>2015-06-19T11:22:11Z</time>
      </trkpt>
      <trkpt lat="39.805953817033" lon="3.115087453645">
        <ele>24.6</ele>
        <time>2015-06-19T11:22:15Z</time>
      </trkpt>
      <trkpt lat="39.806105026509" lon="3.115060631565">
        <ele>25</ele>
        <time>2015-06-19T11:22:19Z</time>
      </trkpt>
      <trkpt lat="39.806286997558" lon="3.114989301596">
        <ele>24.8</ele>
        <time>2015-06-19T11:22:24Z</time>
      </trkpt>
      <trkpt lat="39.806424795994" lon="3.114944877526">
        <ele>25</ele>
        <time>2015-06-19T11:22:27Z</time>
      </trkpt>
      <trkpt lat="39.806568377941" lon="3.114890395176">
        <ele>25.2</ele>
        <time>2015-06-19T11:22:30Z</time>
      </trkpt>
      <trkpt lat="39.807018905066" lon="3.114687301739">
        <ele>25</ele>
        <time>2015-06-19T11:22:39Z</time>
      </trkpt>
      <trkpt lat="39.807250329325" lon="3.114585377835">
        <ele>25</ele>
        <time>2015-06-19T11:22:44Z</time>
      </trkpt>
      <trkpt lat="39.807332974859" lon="3.11454472562">
        <ele>25.2</ele>
        <time>2015-06-19T11:22:46Z</time>
      </trkpt>
      <trkpt lat="39.807419895162" lon="3.11450281612">
        <ele>25</ele>
        <time>2015-06-19T11:22:48Z</time>
      </trkpt>
      <trkpt lat="39.807567919516" lon="3.114454033462">
        <ele>25</ele>
        <time>2015-06-19T11:22:51Z</time>
      </trkpt>
      <trkpt lat="39.807707310513" lon="3.114425032088">
        <ele>25</ele>
        <time>2015-06-19T11:22:54Z</time>
      </trkpt>
      <trkpt lat="39.807745615796" lon="3.114425115907">
        <ele>25.2</ele>
        <time>2015-06-19T11:22:55Z</time>
      </trkpt>
      <trkpt lat="39.807790207504" lon="3.114434252178">
        <ele>25.2</ele>
        <time>2015-06-19T11:22:56Z</time>
      </trkpt>
      <trkpt lat="39.80797410639" lon="3.11454891657">
        <ele>25.2</ele>
        <time>2015-06-19T11:23:01Z</time>
      </trkpt>
      <trkpt lat="39.808052141879" lon="3.114599962341">
        <ele>25</ele>
        <time>2015-06-19T11:23:03Z</time>
      </trkpt>
      <trkpt lat="39.808147779358" lon="3.114594095011">
        <ele>25.2</ele>
        <time>2015-06-19T11:23:05Z</time>
      </trkpt>
      <trkpt lat="39.808251463461" lon="3.114570122777">
        <ele>25.2</ele>
        <time>2015-06-19T11:23:07Z</time>
      </trkpt>
      <trkpt lat="39.808394961589" lon="3.114534583521">
        <ele>25</ele>
        <time>2015-06-19T11:23:10Z</time>
      </trkpt>
      <trkpt lat="39.808879183952" lon="3.114396952723">
        <ele>25</ele>
        <time>2015-06-19T11:23:19Z</time>
      </trkpt>
      <trkpt lat="39.809214040857" lon="3.114301315244">
        <ele>25</ele>
        <time>2015-06-19T11:23:26Z</time>
      </trkpt>
      <trkpt lat="39.809512855592" lon="3.114218921167">
        <ele>24.8</ele>
        <time>2015-06-19T11:23:32Z</time>
      </trkpt>
      <trkpt lat="39.80955325635" lon="3.114226129601">
        <ele>24.8</ele>
        <time>2015-06-19T11:23:33Z</time>
      </trkpt>
      <trkpt lat="39.809592818918" lon="3.114321683261">
        <ele>24.8</ele>
        <time>2015-06-19T11:23:35Z</time>
      </trkpt>
      <trkpt lat="39.809621233559" lon="3.114427127563">
        <ele>24.8</ele>
        <time>2015-06-19T11:23:37Z</time>
      </trkpt>
      <trkpt lat="39.809680493592" lon="3.114499295722">
        <ele>24.8</ele>
        <time>2015-06-19T11:23:39Z</time>
      </trkpt>
      <trkpt lat="39.809723241282" lon="3.114489488899">
        <ele>24.8</ele>
        <time>2015-06-19T11:23:40Z</time>
      </trkpt>
      <trkpt lat="39.809916863172" lon="3.114425115907">
        <ele>25</ele>
        <time>2015-06-19T11:23:44Z</time>
      </trkpt>
      <trkpt lat="39.810205954903" lon="3.114305422375">
        <ele>25.2</ele>
        <time>2015-06-19T11:23:50Z</time>
      </trkpt>
      <trkpt lat="39.810260353434" lon="3.114278432657">
        <ele>25.2</ele>
        <time>2015-06-19T11:23:51Z</time>
      </trkpt>
      <trkpt lat="39.810528825691" lon="3.114169384138">
        <ele>25</ele>
        <time>2015-06-19T11:23:56Z</time>
      </trkpt>
      <trkpt lat="39.810578111263" lon="3.114141053316">
        <ele>25</ele>
        <time>2015-06-19T11:23:57Z</time>
      </trkpt>
      <trkpt lat="39.810808278237" lon="3.114073327564">
        <ele>25</ele>
        <time>2015-06-19T11:24:01Z</time>
      </trkpt>
      <trkpt lat="39.811232486196" lon="3.113935948223">
        <ele>25</ele>
        <time>2015-06-19T11:24:08Z</time>
      </trkpt>
      <trkpt lat="39.811763395742" lon="3.113772584992">
        <ele>24.4</ele>
        <time>2015-06-19T11:24:17Z</time>
      </trkpt>
      <trkpt lat="39.812234542341" lon="3.113628751588">
        <ele>24.2</ele>
        <time>2015-06-19T11:24:25Z</time>
      </trkpt>
      <trkpt lat="39.812563364278" lon="3.113532359738">
        <ele>24.6</ele>
        <time>2015-06-19T11:24:31Z</time>
      </trkpt>
      <trkpt lat="39.812811719975" lon="3.113471507144">
        <ele>24.4</ele>
        <time>2015-06-19T11:24:37Z</time>
      </trkpt>
      <trkpt lat="39.812914817345" lon="3.113438231001">
        <ele>24.2</ele>
        <time>2015-06-19T11:24:42Z</time>
      </trkpt>
      <trkpt lat="39.812935101543" lon="3.113432531309">
        <ele>24</ele>
        <time>2015-06-19T11:24:45Z</time>
      </trkpt>
      <trkpt lat="39.812948512583" lon="3.113422221572">
        <ele>24</ele>
        <time>2015-06-19T11:24:46Z</time>
      </trkpt>
      <trkpt lat="39.812959409053" lon="3.113280399824">
        <ele>23.8</ele>
        <time>2015-06-19T11:24:50Z</time>
      </trkpt>
      <trkpt lat="39.812940717416" lon="3.113174620246">
        <ele>24</ele>
        <time>2015-06-19T11:24:52Z</time>
      </trkpt>
      <trkpt lat="39.812899813744" lon="3.112943279806">
        <ele>24.2</ele>
        <time>2015-06-19T11:24:56Z</time>
      </trkpt>
      <trkpt lat="39.81281297726" lon="3.112476994709">
        <ele>25</ele>
        <time>2015-06-19T11:25:05Z</time>
      </trkpt>
      <trkpt lat="39.812762350584" lon="3.112164517477">
        <ele>25.8</ele>
        <time>2015-06-19T11:25:12Z</time>
      </trkpt>
      <trkpt lat="39.812763943145" lon="3.112103329607">
        <ele>25.6</ele>
        <time>2015-06-19T11:25:13Z</time>
      </trkpt>
      <trkpt lat="39.81282555011" lon="3.111925717146">
        <ele>25.4</ele>
        <time>2015-06-19T11:25:16Z</time>
      </trkpt>
      <trkpt lat="39.812850109077" lon="3.111863858724">
        <ele>25.2</ele>
        <time>2015-06-19T11:25:17Z</time>
      </trkpt>
      <trkpt lat="39.812878272261" lon="3.111811639487">
        <ele>25</ele>
        <time>2015-06-19T11:25:18Z</time>
      </trkpt>
      <trkpt lat="39.812970137885" lon="3.111644252944">
        <ele>24.4</ele>
        <time>2015-06-19T11:25:21Z</time>
      </trkpt>
      <trkpt lat="39.813027302443" lon="3.111535958796">
        <ele>24.2</ele>
        <time>2015-06-19T11:25:23Z</time>
      </trkpt>
      <trkpt lat="39.813194186072" lon="3.111190959792">
        <ele>24.4</ele>
        <time>2015-06-19T11:25:30Z</time>
      </trkpt>
      <trkpt lat="39.813241124712" lon="3.111100770548">
        <ele>24.4</ele>
        <time>2015-06-19T11:25:32Z</time>
      </trkpt>
      <trkpt lat="39.81332427316" lon="3.11090949559">
        <ele>24.6</ele>
        <time>2015-06-19T11:25:36Z</time>
      </trkpt>
      <trkpt lat="39.813425275055" lon="3.110692739656">
        <ele>25.2</ele>
        <time>2015-06-19T11:25:42Z</time>
      </trkpt>
      <trkpt lat="39.813477494292" lon="3.11055326484">
        <ele>25.8</ele>
        <time>2015-06-19T11:25:45Z</time>
      </trkpt>
      <trkpt lat="39.813484618907" lon="3.110486712554">
        <ele>25.8</ele>
        <time>2015-06-19T11:25:46Z</time>
      </trkpt>
      <trkpt lat="39.813480511776" lon="3.110405911038">
        <ele>25.8</ele>
        <time>2015-06-19T11:25:47Z</time>
      </trkpt>
      <trkpt lat="39.813449750203" lon="3.110169541458">
        <ele>25.4</ele>
        <time>2015-06-19T11:25:50Z</time>
      </trkpt>
      <trkpt lat="39.813430471833" lon="3.110006178227">
        <ele>25</ele>
        <time>2015-06-19T11:25:52Z</time>
      </trkpt>
      <trkpt lat="39.813413288938" lon="3.109845581023">
        <ele>24.6</ele>
        <time>2015-06-19T11:25:54Z</time>
      </trkpt>
      <trkpt lat="39.813358471312" lon="3.109473592301">
        <ele>24.2</ele>
        <time>2015-06-19T11:25:59Z</time>
      </trkpt>
      <trkpt lat="39.813303402229" lon="3.109075954965">
        <ele>24.4</ele>
        <time>2015-06-19T11:26:05Z</time>
      </trkpt>
      <trkpt lat="39.81328236366" lon="3.1089053833">
        <ele>24.4</ele>
        <time>2015-06-19T11:26:09Z</time>
      </trkpt>
      <trkpt lat="39.813245734757" lon="3.108627523315">
        <ele>24.4</ele>
        <time>2015-06-19T11:26:15Z</time>
      </trkpt>
      <trkpt lat="39.813183121964" lon="3.108273052764">
        <ele>24.2</ele>
        <time>2015-06-19T11:26:22Z</time>
      </trkpt>
      <trkpt lat="39.813133417297" lon="3.108169368661">
        <ele>24.2</ele>
        <time>2015-06-19T11:26:24Z</time>
      </trkpt>
      <trkpt lat="39.81302336295" lon="3.10796828688">
        <ele>24.4</ele>
        <time>2015-06-19T11:26:28Z</time>
      </trkpt>
      <trkpt lat="39.812752459942" lon="3.10741927243">
        <ele>24.4</ele>
        <time>2015-06-19T11:26:38Z</time>
      </trkpt>
      <trkpt lat="39.812591611281" lon="3.107047367527">
        <ele>24.4</ele>
        <time>2015-06-19T11:26:45Z</time>
      </trkpt>
      <trkpt lat="39.812501841132" lon="3.106883920477">
        <ele>24.4</ele>
        <time>2015-06-19T11:26:50Z</time>
      </trkpt>
      <trkpt lat="39.812408802042" lon="3.106712091527">
        <ele>24.2</ele>
        <time>2015-06-19T11:26:54Z</time>
      </trkpt>
      <trkpt lat="39.812233536513" lon="3.106365164686">
        <ele>24.4</ele>
        <time>2015-06-19T11:27:01Z</time>
      </trkpt>
      <trkpt lat="39.812004710643" lon="3.105879936495">
        <ele>24.6</ele>
        <time>2015-06-19T11:27:10Z</time>
      </trkpt>
      <trkpt lat="39.811831792046" lon="3.105752280158">
        <ele>23.6</ele>
        <time>2015-06-19T11:27:14Z</time>
      </trkpt>
      <trkpt lat="39.811793822039" lon="3.105725458078">
        <ele>23.2</ele>
        <time>2015-06-19T11:27:15Z</time>
      </trkpt>
      <trkpt lat="39.811612437723" lon="3.105632502807">
        <ele>23</ele>
        <time>2015-06-19T11:27:19Z</time>
      </trkpt>
      <trkpt lat="39.811513112208" lon="3.105640381793">
        <ele>23</ele>
        <time>2015-06-19T11:27:21Z</time>
      </trkpt>
      <trkpt lat="39.811416133625" lon="3.105665862769">
        <ele>23</ele>
        <time>2015-06-19T11:27:23Z</time>
      </trkpt>
      <trkpt lat="39.811263080131" lon="3.105708107545">
        <ele>23</ele>
        <time>2015-06-19T11:27:26Z</time>
      </trkpt>
      <trkpt lat="39.810907436114" lon="3.105810282906">
        <ele>23</ele>
        <time>2015-06-19T11:27:33Z</time>
      </trkpt>
      <trkpt lat="39.810676011855" lon="3.105870548767">
        <ele>22.4</ele>
        <time>2015-06-19T11:27:38Z</time>
      </trkpt>
      <trkpt lat="39.810534693021" lon="3.10590885405">
        <ele>22.2</ele>
        <time>2015-06-19T11:27:41Z</time>
      </trkpt>
      <trkpt lat="39.810198495012" lon="3.105992421593">
        <ele>22.2</ele>
        <time>2015-06-19T11:27:48Z</time>
      </trkpt>
      <trkpt lat="39.810069162295" lon="3.106045227563">
        <ele>22</ele>
        <time>2015-06-19T11:27:51Z</time>
      </trkpt>
      <trkpt lat="39.810005543674" lon="3.106114629695">
        <ele>22</ele>
        <time>2015-06-19T11:27:53Z</time>
      </trkpt>
      <trkpt lat="39.809863889564" lon="3.106326691765">
        <ele>21.4</ele>
        <time>2015-06-19T11:27:58Z</time>
      </trkpt>
      <trkpt lat="39.809856848768" lon="3.106387879635">
        <ele>21.2</ele>
        <time>2015-06-19T11:27:59Z</time>
      </trkpt>
      <trkpt lat="39.809897584802" lon="3.106616034953">
        <ele>21.6</ele>
        <time>2015-06-19T11:28:03Z</time>
      </trkpt>
      <trkpt lat="39.809929268384" lon="3.10672357473">
        <ele>22</ele>
        <time>2015-06-19T11:28:05Z</time>
      </trkpt>
      <trkpt lat="39.810007639149" lon="3.10705801254">
        <ele>22.2</ele>
        <time>2015-06-19T11:28:11Z</time>
      </trkpt>
      <trkpt lat="39.810018535619" lon="3.107108723035">
        <ele>22.8</ele>
        <time>2015-06-19T11:28:12Z</time>
      </trkpt>
      <trkpt lat="39.810040580016" lon="3.107219112658">
        <ele>24.4</ele>
        <time>2015-06-19T11:28:14Z</time>
      </trkpt>
      <trkpt lat="39.810098834221" lon="3.10751314971">
        <ele>25.4</ele>
        <time>2015-06-19T11:28:19Z</time>
      </trkpt>
      <trkpt lat="39.810213917708" lon="3.108049256034">
        <ele>25.4</ele>
        <time>2015-06-19T11:28:28Z</time>
      </trkpt>
      <trkpt lat="39.810324223512" lon="3.108553762595">
        <ele>25.2</ele>
        <time>2015-06-19T11:28:36Z</time>
      </trkpt>
      <trkpt lat="39.810348279565" lon="3.108613274085">
        <ele>25.2</ele>
        <time>2015-06-19T11:28:37Z</time>
      </trkpt>
      <trkpt lat="39.81044257594" lon="3.10875367091">
        <ele>25.2</ele>
        <time>2015-06-19T11:28:40Z</time>
      </trkpt>
      <trkpt lat="39.810484401621" lon="3.108807482708">
        <ele>25.2</ele>
        <time>2015-06-19T11:28:41Z</time>
      </trkpt>
      <trkpt lat="39.810749437299" lon="3.109109482565">
        <ele>25.4</ele>
        <time>2015-06-19T11:28:48Z</time>
      </trkpt>
      <trkpt lat="39.811070128793" lon="3.109508461005">
        <ele>25.2</ele>
        <time>2015-06-19T11:28:57Z</time>
      </trkpt>
      <trkpt lat="39.811228965798" lon="3.109735861952">
        <ele>24.8</ele>
        <time>2015-06-19T11:29:02Z</time>
      </trkpt>
      <trkpt lat="39.811245813417" lon="3.109792355958">
        <ele>25</ele>
        <time>2015-06-19T11:29:03Z</time>
      </trkpt>
      <trkpt lat="39.811323932725" lon="3.110132661098">
        <ele>24.6</ele>
        <time>2015-06-19T11:29:09Z</time>
      </trkpt>
      <trkpt lat="39.811361483637" lon="3.110289905542">
        <ele>24.8</ele>
        <time>2015-06-19T11:29:12Z</time>
      </trkpt>
      <trkpt lat="39.811401381481" lon="3.110426614331">
        <ele>24.8</ele>
        <time>2015-06-19T11:29:15Z</time>
      </trkpt>
      <trkpt lat="39.811403393137" lon="3.110526778036">
        <ele>24.8</ele>
        <time>2015-06-19T11:29:17Z</time>
      </trkpt>
      <trkpt lat="39.811422922964" lon="3.110624762447">
        <ele>24.8</ele>
        <time>2015-06-19T11:29:19Z</time>
      </trkpt>
      <trkpt lat="39.811520404461" lon="3.111028770027">
        <ele>25</ele>
        <time>2015-06-19T11:29:26Z</time>
      </trkpt>
      <trkpt lat="39.811625681125" lon="3.111515255503">
        <ele>24.8</ele>
        <time>2015-06-19T11:29:34Z</time>
      </trkpt>
      <trkpt lat="39.811665914245" lon="3.111693370878">
        <ele>24.8</ele>
        <time>2015-06-19T11:29:37Z</time>
      </trkpt>
      <trkpt lat="39.811750571435" lon="3.111816920084">
        <ele>24.6</ele>
        <time>2015-06-19T11:29:40Z</time>
      </trkpt>
      <trkpt lat="39.811934135045" lon="3.111879616696">
        <ele>24.4</ele>
        <time>2015-06-19T11:29:44Z</time>
      </trkpt>
      <trkpt lat="39.812073777499" lon="3.111912473744">
        <ele>24.6</ele>
        <time>2015-06-19T11:29:47Z</time>
      </trkpt>
      <trkpt lat="39.812309308889" lon="3.111949940837">
        <ele>24.6</ele>
        <time>2015-06-19T11:29:52Z</time>
      </trkpt>
      <trkpt lat="39.812638801378" lon="3.112002914445">
        <ele>24.4</ele>
        <time>2015-06-19T11:29:59Z</time>
      </trkpt>
      <trkpt lat="39.812743826585" lon="3.112128307669">
        <ele>24.6</ele>
        <time>2015-06-19T11:30:03Z</time>
      </trkpt>
      <trkpt lat="39.812776683633" lon="3.112323270663">
        <ele>25.6</ele>
        <time>2015-06-19T11:30:07Z</time>
      </trkpt>
      <trkpt lat="39.812787663922" lon="3.11237213714">
        <ele>25.8</ele>
        <time>2015-06-19T11:30:08Z</time>
      </trkpt>
      <trkpt lat="39.8128682978" lon="3.112728284071">
        <ele>26.4</ele>
        <time>2015-06-19T11:30:14Z</time>
      </trkpt>
      <trkpt lat="39.812936861742" lon="3.113171183667">
        <ele>25.2</ele>
        <time>2015-06-19T11:30:20Z</time>
      </trkpt>
      <trkpt lat="39.812982040183" lon="3.113412582387">
        <ele>24.6</ele>
        <time>2015-06-19T11:30:24Z</time>
      </trkpt>
      <trkpt lat="39.812991427911" lon="3.113467316194">
        <ele>24.4</ele>
        <time>2015-06-19T11:30:25Z</time>
      </trkpt>
      <trkpt lat="39.813072313246" lon="3.113871742869">
        <ele>24.8</ele>
        <time>2015-06-19T11:30:32Z</time>
      </trkpt>
      <trkpt lat="39.813164514146" lon="3.114325874211">
        <ele>25.2</ele>
        <time>2015-06-19T11:30:41Z</time>
      </trkpt>
      <trkpt lat="39.813234083916" lon="3.114622844928">
        <ele>25.4</ele>
        <time>2015-06-19T11:30:49Z</time>
      </trkpt>
      <trkpt lat="39.813230312061" lon="3.114632400294">
        <ele>25.4</ele>
        <time>2015-06-19T11:30:50Z</time>
      </trkpt>
      <trkpt lat="39.813228216586" lon="3.114660814935">
        <ele>25.4</ele>
        <time>2015-06-19T11:30:52Z</time>
      </trkpt>
      <trkpt lat="39.813229725328" lon="3.114675986174">
        <ele>25.4</ele>
        <time>2015-06-19T11:30:55Z</time>
      </trkpt>
      <trkpt lat="39.81323207226" lon="3.114717560398">
        <ele>25.2</ele>
        <time>2015-06-19T11:31:07Z</time>
      </trkpt>
      <trkpt lat="39.81322452855" lon="3.114723008633">
        <ele>25.2</ele>
        <time>2015-06-19T11:31:21Z</time>
      </trkpt>
      <trkpt lat="39.81321279389" lon="3.11471906914">
        <ele>25.2</ele>
        <time>2015-06-19T11:31:23Z</time>
      </trkpt>
      <trkpt lat="39.813201729782" lon="3.114712950353">
        <ele>25.4</ele>
        <time>2015-06-19T11:31:28Z</time>
      </trkpt>
      <trkpt lat="39.813207010379" lon="3.1147056581">
        <ele>25.6</ele>
        <time>2015-06-19T11:31:35Z</time>
      </trkpt>
      <trkpt lat="39.813206423646" lon="3.114696018915">
        <ele>25.6</ele>
        <time>2015-06-19T11:31:41Z</time>
      </trkpt>
      <trkpt lat="39.813197957927" lon="3.114719320597">
        <ele>25.6</ele>
        <time>2015-06-19T11:31:52Z</time>
      </trkpt>
      <trkpt lat="39.813172476951" lon="3.114748070514">
        <ele>25.6</ele>
        <time>2015-06-19T11:32:07Z</time>
      </trkpt>
      <trkpt lat="39.813151354563" lon="3.11480037357">
        <ele>25.6</ele>
        <time>2015-06-19T11:32:19Z</time>
      </trkpt>
      <trkpt lat="39.813139787541" lon="3.114829961677">
        <ele>25.6</ele>
        <time>2015-06-19T11:32:29Z</time>
      </trkpt>
      <trkpt lat="39.813135093677" lon="3.114838846491">
        <ele>25.6</ele>
        <time>2015-06-19T11:32:38Z</time>
      </trkpt>
      <trkpt lat="39.813124616302" lon="3.114854772101">
        <ele>25.6</ele>
        <time>2015-06-19T11:32:48Z</time>
      </trkpt>
      <trkpt lat="39.813129896899" lon="3.114848569495">
        <ele>25.6</ele>
        <time>2015-06-19T11:32:57Z</time>
      </trkpt>
      <trkpt lat="39.813140290455" lon="3.114842199251">
        <ele>25.6</ele>
        <time>2015-06-19T11:33:04Z</time>
      </trkpt>
      <trkpt lat="39.813163508318" lon="3.114816550637">
        <ele>25.4</ele>
        <time>2015-06-19T11:33:10Z</time>
      </trkpt>
      <trkpt lat="39.81316417887" lon="3.114821915053">
        <ele>25.4</ele>
        <time>2015-06-19T11:33:11Z</time>
      </trkpt>
      <trkpt lat="39.813167615449" lon="3.114853598635">
        <ele>25.4</ele>
        <time>2015-06-19T11:33:15Z</time>
      </trkpt>
      <trkpt lat="39.813153533857" lon="3.114877654688">
        <ele>25.4</ele>
        <time>2015-06-19T11:33:17Z</time>
      </trkpt>
      <trkpt lat="39.813117575506" lon="3.114991983804">
        <ele>25.6</ele>
        <time>2015-06-19T11:33:22Z</time>
      </trkpt>
      <trkpt lat="39.813191420045" lon="3.115104217445">
        <ele>25.8</ele>
        <time>2015-06-19T11:33:25Z</time>
      </trkpt>
      <trkpt lat="39.813328883205" lon="3.115049902733">
        <ele>26.2</ele>
        <time>2015-06-19T11:33:28Z</time>
      </trkpt>
      <trkpt lat="39.813638762048" lon="3.114947978829">
        <ele>26</ele>
        <time>2015-06-19T11:33:34Z</time>
      </trkpt>
      <trkpt lat="39.813740099219" lon="3.114899782904">
        <ele>26</ele>
        <time>2015-06-19T11:33:36Z</time>
      </trkpt>
      <trkpt lat="39.813896589292" lon="3.114849323866">
        <ele>25.8</ele>
        <time>2015-06-19T11:33:39Z</time>
      </trkpt>
      <trkpt lat="39.814212586922" lon="3.114748992523">
        <ele>25.6</ele>
        <time>2015-06-19T11:33:46Z</time>
      </trkpt>
      <trkpt lat="39.814453566547" lon="3.114665927894">
        <ele>25.6</ele>
        <time>2015-06-19T11:33:52Z</time>
      </trkpt>
      <trkpt lat="39.814701503149" lon="3.114587389491">
        <ele>25.6</ele>
        <time>2015-06-19T11:33:58Z</time>
      </trkpt>
      <trkpt lat="39.814904177491" lon="3.114525028155">
        <ele>25.4</ele>
        <time>2015-06-19T11:34:04Z</time>
      </trkpt>
      <trkpt lat="39.815137781044" lon="3.114437353481">
        <ele>25.4</ele>
        <time>2015-06-19T11:34:11Z</time>
      </trkpt>
      <trkpt lat="39.815199639466" lon="3.114365688236">
        <ele>25.4</ele>
        <time>2015-06-19T11:34:13Z</time>
      </trkpt>
      <trkpt lat="39.815202237855" lon="3.114296705199">
        <ele>25.4</ele>
        <time>2015-06-19T11:34:14Z</time>
      </trkpt>
      <trkpt lat="39.815117915941" lon="3.114106184612">
        <ele>25.4</ele>
        <time>2015-06-19T11:34:17Z</time>
      </trkpt>
      <trkpt lat="39.81507609026" lon="3.113869898851">
        <ele>25.6</ele>
        <time>2015-06-19T11:34:20Z</time>
      </trkpt>
      <trkpt lat="39.815010879078" lon="3.113350221051">
        <ele>25.2</ele>
        <time>2015-06-19T11:34:26Z</time>
      </trkpt>
      <trkpt lat="39.814939716747" lon="3.112806235741">
        <ele>25.2</ele>
        <time>2015-06-19T11:34:32Z</time>
      </trkpt>
      <trkpt lat="39.814883809474" lon="3.112269375046">
        <ele>25.2</ele>
        <time>2015-06-19T11:34:38Z</time>
      </trkpt>
      <trkpt lat="39.814829997676" lon="3.111928231716">
        <ele>24.8</ele>
        <time>2015-06-19T11:34:43Z</time>
      </trkpt>
      <trkpt lat="39.814771072919" lon="3.111460605515">
        <ele>24.6</ele>
        <time>2015-06-19T11:34:49Z</time>
      </trkpt>
      <trkpt lat="39.814675603078" lon="3.110710257827">
        <ele>24.8</ele>
        <time>2015-06-19T11:34:58Z</time>
      </trkpt>
      <trkpt lat="39.814611481543" lon="3.110126542311">
        <ele>24.8</ele>
        <time>2015-06-19T11:35:05Z</time>
      </trkpt>
      <trkpt lat="39.814523639231" lon="3.10945272137">
        <ele>25</ele>
        <time>2015-06-19T11:35:13Z</time>
      </trkpt>
      <trkpt lat="39.814450968158" lon="3.108886691663">
        <ele>25.2</ele>
        <time>2015-06-19T11:35:20Z</time>
      </trkpt>
      <trkpt lat="39.81442230206" lon="3.108644287115">
        <ele>25.2</ele>
        <time>2015-06-19T11:35:23Z</time>
      </trkpt>
      <trkpt lat="39.8143854217" lon="3.108398110712">
        <ele>25.2</ele>
        <time>2015-06-19T11:35:26Z</time>
      </trkpt>
      <trkpt lat="39.814349128073" lon="3.107830572263">
        <ele>25.8</ele>
        <time>2015-06-19T11:35:33Z</time>
      </trkpt>
      <trkpt lat="39.814419871309" lon="3.107401921897">
        <ele>26.4</ele>
        <time>2015-06-19T11:35:38Z</time>
      </trkpt>
      <trkpt lat="39.81443990405" lon="3.107311565015">
        <ele>26.6</ele>
        <time>2015-06-19T11:35:39Z</time>
      </trkpt>
      <trkpt lat="39.814475778582" lon="3.106867324315">
        <ele>26.8</ele>
        <time>2015-06-19T11:35:44Z</time>
      </trkpt>
      <trkpt lat="39.814382404216" lon="3.10631789077">
        <ele>26.4</ele>
        <time>2015-06-19T11:35:50Z</time>
      </trkpt>
      <trkpt lat="39.814188949964" lon="3.105923690013">
        <ele>26</ele>
        <time>2015-06-19T11:35:55Z</time>
      </trkpt>
      <trkpt lat="39.813866917366" lon="3.105545163409">
        <ele>26.4</ele>
        <time>2015-06-19T11:36:01Z</time>
      </trkpt>
      <trkpt lat="39.813461065768" lon="3.105072005154">
        <ele>26.8</ele>
        <time>2015-06-19T11:36:09Z</time>
      </trkpt>
      <trkpt lat="39.813352687801" lon="3.104887854811">
        <ele>26.8</ele>
        <time>2015-06-19T11:36:12Z</time>
      </trkpt>
      <trkpt lat="39.813337516562" lon="3.104812333892">
        <ele>26.6</ele>
        <time>2015-06-19T11:36:13Z</time>
      </trkpt>
      <trkpt lat="39.813277837434" lon="3.104502455049">
        <ele>26.4</ele>
        <time>2015-06-19T11:36:17Z</time>
      </trkpt>
      <trkpt lat="39.813118748972" lon="3.104358454007">
        <ele>26.6</ele>
        <time>2015-06-19T11:36:20Z</time>
      </trkpt>
      <trkpt lat="39.813056806731" lon="3.104321908923">
        <ele>26.6</ele>
        <time>2015-06-19T11:36:21Z</time>
      </trkpt>
      <trkpt lat="39.81300073182" lon="3.104269522048">
        <ele>26.6</ele>
        <time>2015-06-19T11:36:22Z</time>
      </trkpt>
      <trkpt lat="39.812920600856" lon="3.104119486038">
        <ele>26.8</ele>
        <time>2015-06-19T11:36:24Z</time>
      </trkpt>
      <trkpt lat="39.812858826253" lon="3.103955116979">
        <ele>26.8</ele>
        <time>2015-06-19T11:36:26Z</time>
      </trkpt>
      <trkpt lat="39.812780958402" lon="3.103700474857">
        <ele>27</ele>
        <time>2015-06-19T11:36:29Z</time>
      </trkpt>
      <trkpt lat="39.812538302397" lon="3.102986756072">
        <ele>26.4</ele>
        <time>2015-06-19T11:36:37Z</time>
      </trkpt>
      <trkpt lat="39.81247770126" lon="3.102802857186">
        <ele>26.6</ele>
        <time>2015-06-19T11:36:39Z</time>
      </trkpt>
      <trkpt lat="39.812263208439" lon="3.102140435629">
        <ele>26.6</ele>
        <time>2015-06-19T11:36:46Z</time>
      </trkpt>
      <trkpt lat="39.812119626492" lon="3.101789653114">
        <ele>26.6</ele>
        <time>2015-06-19T11:36:50Z</time>
      </trkpt>
      <trkpt lat="39.811795079324" lon="3.101178780242">
        <ele>26</ele>
        <time>2015-06-19T11:36:57Z</time>
      </trkpt>
      <trkpt lat="39.811748308322" lon="3.101092279034">
        <ele>26</ele>
        <time>2015-06-19T11:36:58Z</time>
      </trkpt>
      <trkpt lat="39.81141236177" lon="3.100506216586">
        <ele>25.8</ele>
        <time>2015-06-19T11:37:05Z</time>
      </trkpt>
      <trkpt lat="39.8113595558" lon="3.100407645442">
        <ele>25.8</ele>
        <time>2015-06-19T11:37:06Z</time>
      </trkpt>
      <trkpt lat="39.81103936722" lon="3.099795766742">
        <ele>25.8</ele>
        <time>2015-06-19T11:37:13Z</time>
      </trkpt>
      <trkpt lat="39.810950854356" lon="3.099625362715">
        <ele>25.8</ele>
        <time>2015-06-19T11:37:15Z</time>
      </trkpt>
      <trkpt lat="39.810723956323" lon="3.09903904881">
        <ele>26</ele>
        <time>2015-06-19T11:37:21Z</time>
      </trkpt>
      <trkpt lat="39.810494711358" lon="3.098335388305">
        <ele>26</ele>
        <time>2015-06-19T11:37:28Z</time>
      </trkpt>
      <trkpt lat="39.810333192145" lon="3.097837251988">
        <ele>26</ele>
        <time>2015-06-19T11:37:33Z</time>
      </trkpt>
      <trkpt lat="39.810115514202" lon="3.097169130739">
        <ele>26.2</ele>
        <time>2015-06-19T11:37:40Z</time>
      </trkpt>
      <trkpt lat="39.8099597785" lon="3.09668205853">
        <ele>26</ele>
        <time>2015-06-19T11:37:45Z</time>
      </trkpt>
      <trkpt lat="39.809745034222" lon="3.096012596177">
        <ele>25.8</ele>
        <time>2015-06-19T11:37:52Z</time>
      </trkpt>
      <trkpt lat="39.809621317378" lon="3.095637506152">
        <ele>26</ele>
        <time>2015-06-19T11:37:56Z</time>
      </trkpt>
      <trkpt lat="39.809383019961" lon="3.094903251712">
        <ele>26.2</ele>
        <time>2015-06-19T11:38:04Z</time>
      </trkpt>
      <trkpt lat="39.809268774664" lon="3.094549116437">
        <ele>26.4</ele>
        <time>2015-06-19T11:38:08Z</time>
      </trkpt>
      <trkpt lat="39.809032991817" lon="3.093817292748">
        <ele>26.6</ele>
        <time>2015-06-19T11:38:16Z</time>
      </trkpt>
      <trkpt lat="39.80900340371" lon="3.093725343305">
        <ele>26.2</ele>
        <time>2015-06-19T11:38:17Z</time>
      </trkpt>
      <trkpt lat="39.808771141261" lon="3.093023610637">
        <ele>26</ele>
        <time>2015-06-19T11:38:24Z</time>
      </trkpt>
      <trkpt lat="39.808743900086" lon="3.092934259583">
        <ele>26</ele>
        <time>2015-06-19T11:38:25Z</time>
      </trkpt>
      <trkpt lat="39.808514403664" lon="3.092235795856">
        <ele>26.4</ele>
        <time>2015-06-19T11:38:32Z</time>
      </trkpt>
      <trkpt lat="39.808384903309" lon="3.09184067309">
        <ele>26.4</ele>
        <time>2015-06-19T11:38:36Z</time>
      </trkpt>
      <trkpt lat="39.808158927285" lon="3.091137515499">
        <ele>26.4</ele>
        <time>2015-06-19T11:38:43Z</time>
      </trkpt>
      <trkpt lat="39.808033282604" lon="3.090739207611">
        <ele>26.4</ele>
        <time>2015-06-19T11:38:47Z</time>
      </trkpt>
      <trkpt lat="39.807797835033" lon="3.090036301477">
        <ele>26.2</ele>
        <time>2015-06-19T11:38:54Z</time>
      </trkpt>
      <trkpt lat="39.807705717952" lon="3.089855587713">
        <ele>26.4</ele>
        <time>2015-06-19T11:38:56Z</time>
      </trkpt>
      <trkpt lat="39.807652409068" lon="3.089769086505">
        <ele>26.4</ele>
        <time>2015-06-19T11:38:57Z</time>
      </trkpt>
      <trkpt lat="39.807303722028" lon="3.089283020124">
        <ele>26.6</ele>
        <time>2015-06-19T11:39:03Z</time>
      </trkpt>
      <trkpt lat="39.806907844891" lon="3.088714978761">
        <ele>26.4</ele>
        <time>2015-06-19T11:39:10Z</time>
      </trkpt>
      <trkpt lat="39.80667491189" lon="3.088375763268">
        <ele>26.6</ele>
        <time>2015-06-19T11:39:14Z</time>
      </trkpt>
      <trkpt lat="39.806281046409" lon="3.087800010557">
        <ele>26.4</ele>
        <time>2015-06-19T11:39:21Z</time>
      </trkpt>
      <trkpt lat="39.806058423145" lon="3.087477977959">
        <ele>26.6</ele>
        <time>2015-06-19T11:39:25Z</time>
      </trkpt>
      <trkpt lat="39.805657013954" lon="3.08689199933">
        <ele>26.4</ele>
        <time>2015-06-19T11:39:32Z</time>
      </trkpt>
      <trkpt lat="39.805377309951" lon="3.08648966813">
        <ele>26.8</ele>
        <time>2015-06-19T11:39:37Z</time>
      </trkpt>
      <trkpt lat="39.804997945157" lon="3.085937636196">
        <ele>26.8</ele>
        <time>2015-06-19T11:39:44Z</time>
      </trkpt>
      <trkpt lat="39.804841203627" lon="3.085709229421">
        <ele>26.6</ele>
        <time>2015-06-19T11:39:47Z</time>
      </trkpt>
      <trkpt lat="39.804469466362" lon="3.085165914663">
        <ele>26.4</ele>
        <time>2015-06-19T11:39:54Z</time>
      </trkpt>
      <trkpt lat="39.804259667405" lon="3.084861819331">
        <ele>26.6</ele>
        <time>2015-06-19T11:39:58Z</time>
      </trkpt>
      <trkpt lat="39.803944843241" lon="3.084445406539">
        <ele>26.4</ele>
        <time>2015-06-19T11:40:04Z</time>
      </trkpt>
      <trkpt lat="39.803891366719" lon="3.084405341057">
        <ele>26.4</ele>
        <time>2015-06-19T11:40:05Z</time>
      </trkpt>
      <trkpt lat="39.803608980508" lon="3.084317163469">
        <ele>26.4</ele>
        <time>2015-06-19T11:40:09Z</time>
      </trkpt>
      <trkpt lat="39.803468080769" lon="3.084320683867">
        <ele>26.6</ele>
        <time>2015-06-19T11:40:11Z</time>
      </trkpt>
      <trkpt lat="39.803178402305" lon="3.084339124047">
        <ele>26.4</ele>
        <time>2015-06-19T11:40:15Z</time>
      </trkpt>
      <trkpt lat="39.802583874138" lon="3.084376842597">
        <ele>26.4</ele>
        <time>2015-06-19T11:40:23Z</time>
      </trkpt>
      <trkpt lat="39.802360328865" lon="3.084393774035">
        <ele>26.4</ele>
        <time>2015-06-19T11:40:26Z</time>
      </trkpt>
      <trkpt lat="39.801786503991" lon="3.084436186449">
        <ele>26.4</ele>
        <time>2015-06-19T11:40:34Z</time>
      </trkpt>
      <trkpt lat="39.801641413302" lon="3.084446412367">
        <ele>26.4</ele>
        <time>2015-06-19T11:40:36Z</time>
      </trkpt>
      <trkpt lat="39.8014186224" lon="3.084442305236">
        <ele>26.4</ele>
        <time>2015-06-19T11:40:39Z</time>
      </trkpt>
      <trkpt lat="39.801280237231" lon="3.08437826752">
        <ele>26.4</ele>
        <time>2015-06-19T11:40:41Z</time>
      </trkpt>
      <trkpt lat="39.801119556208" lon="3.084160086663">
        <ele>26.4</ele>
        <time>2015-06-19T11:40:44Z</time>
      </trkpt>
      <trkpt lat="39.80102886405" lon="3.083921621608">
        <ele>26.4</ele>
        <time>2015-06-19T11:40:47Z</time>
      </trkpt>
      <trkpt lat="39.800990223491" lon="3.083808968872">
        <ele>26.4</ele>
        <time>2015-06-19T11:40:48Z</time>
      </trkpt>
      <trkpt lat="39.800727786202" lon="3.083090975318">
        <ele>26.6</ele>
        <time>2015-06-19T11:40:56Z</time>
      </trkpt>
      <trkpt lat="39.800597699114" lon="3.082733487283">
        <ele>26.4</ele>
        <time>2015-06-19T11:41:00Z</time>
      </trkpt>
      <trkpt lat="39.800367113045" lon="3.082096630521">
        <ele>26.6</ele>
        <time>2015-06-19T11:41:07Z</time>
      </trkpt>
      <trkpt lat="39.80023425993" lon="3.081733526613">
        <ele>26.6</ele>
        <time>2015-06-19T11:41:11Z</time>
      </trkpt>
      <trkpt lat="39.799995627237" lon="3.081080325146">
        <ele>26.6</ele>
        <time>2015-06-19T11:41:18Z</time>
      </trkpt>
      <trkpt lat="39.799824049744" lon="3.080613620954">
        <ele>26.6</ele>
        <time>2015-06-19T11:41:23Z</time>
      </trkpt>
      <trkpt lat="39.79958047173" lon="3.079947762818">
        <ele>27</ele>
        <time>2015-06-19T11:41:30Z</time>
      </trkpt>
      <trkpt lat="39.799337983363" lon="3.079296824464">
        <ele>26.8</ele>
        <time>2015-06-19T11:41:37Z</time>
      </trkpt>
      <trkpt lat="39.79907671954" lon="3.078594002149">
        <ele>26.8</ele>
        <time>2015-06-19T11:41:45Z</time>
      </trkpt>
      <trkpt lat="39.798945878081" lon="3.078239866874">
        <ele>26.6</ele>
        <time>2015-06-19T11:41:49Z</time>
      </trkpt>
      <trkpt lat="39.798688721389" lon="3.077533691799">
        <ele>27.2</ele>
        <time>2015-06-19T11:41:57Z</time>
      </trkpt>
      <trkpt lat="39.798436426199" lon="3.076838245556">
        <ele>26.8</ele>
        <time>2015-06-19T11:42:05Z</time>
      </trkpt>
      <trkpt lat="39.798371047379" lon="3.076661638923">
        <ele>26.6</ele>
        <time>2015-06-19T11:42:07Z</time>
      </trkpt>
      <trkpt lat="39.798123110777" lon="3.075988739991">
        <ele>26.8</ele>
        <time>2015-06-19T11:42:15Z</time>
      </trkpt>
      <trkpt lat="39.798024874909" lon="3.075730912747">
        <ele>27</ele>
        <time>2015-06-19T11:42:18Z</time>
      </trkpt>
      <trkpt lat="39.797780458705" lon="3.075059774014">
        <ele>26.8</ele>
        <time>2015-06-19T11:42:26Z</time>
      </trkpt>
      <trkpt lat="39.797692784031" lon="3.074814184344">
        <ele>27</ele>
        <time>2015-06-19T11:42:29Z</time>
      </trkpt>
      <trkpt lat="39.797438393366" lon="3.074117229359">
        <ele>26.6</ele>
        <time>2015-06-19T11:42:37Z</time>
      </trkpt>
      <trkpt lat="39.797390951812" lon="3.073990327393">
        <ele>26.8</ele>
        <time>2015-06-19T11:42:39Z</time>
      </trkpt>
      <trkpt lat="39.797149217816" lon="3.073338886125">
        <ele>26.6</ele>
        <time>2015-06-19T11:42:46Z</time>
      </trkpt>
      <trkpt lat="39.796987698603" lon="3.072898752556">
        <ele>26.6</ele>
        <time>2015-06-19T11:42:51Z</time>
      </trkpt>
      <trkpt lat="39.79687898536" lon="3.07264779847">
        <ele>26.6</ele>
        <time>2015-06-19T11:42:54Z</time>
      </trkpt>
      <trkpt lat="39.79676750609" lon="3.072520728866">
        <ele>26.8</ele>
        <time>2015-06-19T11:42:56Z</time>
      </trkpt>
      <trkpt lat="39.796555276382" lon="3.072508491292">
        <ele>27</ele>
        <time>2015-06-19T11:42:59Z</time>
      </trkpt>
      <trkpt lat="39.796292839093" lon="3.072660119863">
        <ele>27.2</ele>
        <time>2015-06-19T11:43:03Z</time>
      </trkpt>
      <trkpt lat="39.796036101496" lon="3.072817364307">
        <ele>27.6</ele>
        <time>2015-06-19T11:43:07Z</time>
      </trkpt>
      <trkpt lat="39.79577928008" lon="3.072974608751">
        <ele>28</ele>
        <time>2015-06-19T11:43:11Z</time>
      </trkpt>
      <trkpt lat="39.79563259683" lon="3.073038059734">
        <ele>28.2</ele>
        <time>2015-06-19T11:43:13Z</time>
      </trkpt>
      <trkpt lat="39.795480297707" lon="3.073062367244">
        <ele>28</ele>
        <time>2015-06-19T11:43:15Z</time>
      </trkpt>
      <trkpt lat="39.795273264777" lon="3.072924568808">
        <ele>27.8</ele>
        <time>2015-06-19T11:43:18Z</time>
      </trkpt>
      <trkpt lat="39.79521266364" lon="3.072644613348">
        <ele>27.8</ele>
        <time>2015-06-19T11:43:21Z</time>
      </trkpt>
      <trkpt lat="39.795295225355" lon="3.0723770631">
        <ele>28</ele>
        <time>2015-06-19T11:43:24Z</time>
      </trkpt>
      <trkpt lat="39.795384995504" lon="3.072233062058">
        <ele>28</ele>
        <time>2015-06-19T11:43:26Z</time>
      </trkpt>
      <trkpt lat="39.79548256082" lon="3.072100125124">
        <ele>27.8</ele>
        <time>2015-06-19T11:43:28Z</time>
      </trkpt>
      <trkpt lat="39.795768635067" lon="3.071670888025">
        <ele>27.6</ele>
        <time>2015-06-19T11:43:34Z</time>
      </trkpt>
      <trkpt lat="39.795993521444" lon="3.071294540715">
        <ele>27.4</ele>
        <time>2015-06-19T11:43:39Z</time>
      </trkpt>
      <trkpt lat="39.796051943287" lon="3.07113235095">
        <ele>27.6</ele>
        <time>2015-06-19T11:43:41Z</time>
      </trkpt>
      <trkpt lat="39.796093852787" lon="3.070947697693">
        <ele>27.8</ele>
        <time>2015-06-19T11:43:43Z</time>
      </trkpt>
      <trkpt lat="39.796153867191" lon="3.070622228516">
        <ele>27.8</ele>
        <time>2015-06-19T11:43:47Z</time>
      </trkpt>
      <trkpt lat="39.796274818008" lon="3.069905156971">
        <ele>27.6</ele>
        <time>2015-06-19T11:43:55Z</time>
      </trkpt>
      <trkpt lat="39.79633835281" lon="3.069547166022">
        <ele>27.8</ele>
        <time>2015-06-19T11:43:59Z</time>
      </trkpt>
      <trkpt lat="39.796439941438" lon="3.068838644015">
        <ele>27.6</ele>
        <time>2015-06-19T11:44:07Z</time>
      </trkpt>
      <trkpt lat="39.796433571194" lon="3.068749544418">
        <ele>27.6</ele>
        <time>2015-06-19T11:44:08Z</time>
      </trkpt>
      <trkpt lat="39.796421752715" lon="3.068660863916">
        <ele>27.6</ele>
        <time>2015-06-19T11:44:09Z</time>
      </trkpt>
      <trkpt lat="39.796312033644" lon="3.068226262401">
        <ele>27.6</ele>
        <time>2015-06-19T11:44:14Z</time>
      </trkpt>
      <trkpt lat="39.796109778397" lon="3.067530061787">
        <ele>26.6</ele>
        <time>2015-06-19T11:44:22Z</time>
      </trkpt>
      <trkpt lat="39.796010033787" lon="3.067185900973">
        <ele>26.6</ele>
        <time>2015-06-19T11:44:26Z</time>
      </trkpt>
      <trkpt lat="39.795803252314" lon="3.06647704369">
        <ele>26.8</ele>
        <time>2015-06-19T11:44:34Z</time>
      </trkpt>
      <trkpt lat="39.795726893205" lon="3.066208152338">
        <ele>26.8</ele>
        <time>2015-06-19T11:44:37Z</time>
      </trkpt>
      <trkpt lat="39.795674925425" lon="3.066029031135">
        <ele>26.6</ele>
        <time>2015-06-19T11:44:39Z</time>
      </trkpt>
      <trkpt lat="39.795468395409" lon="3.065320425309">
        <ele>26.8</ele>
        <time>2015-06-19T11:44:47Z</time>
      </trkpt>
      <trkpt lat="39.795361777641" lon="3.06496243436">
        <ele>26.8</ele>
        <time>2015-06-19T11:44:51Z</time>
      </trkpt>
      <trkpt lat="39.795150889037" lon="3.064240668951">
        <ele>27</ele>
        <time>2015-06-19T11:44:59Z</time>
      </trkpt>
      <trkpt lat="39.79509447885" lon="3.06405132183">
        <ele>27.2</ele>
        <time>2015-06-19T11:45:01Z</time>
      </trkpt>
      <trkpt lat="39.794877555278" lon="3.063301644694">
        <ele>27.2</ele>
        <time>2015-06-19T11:45:09Z</time>
      </trkpt>
      <trkpt lat="39.794824665489" lon="3.063117242894">
        <ele>27.2</ele>
        <time>2015-06-19T11:45:11Z</time>
      </trkpt>
      <trkpt lat="39.794722238671" lon="3.062745840905">
        <ele>27.6</ele>
        <time>2015-06-19T11:45:15Z</time>
      </trkpt>
      <trkpt lat="39.794564239856" lon="3.062194144247">
        <ele>27.4</ele>
        <time>2015-06-19T11:45:21Z</time>
      </trkpt>
      <trkpt lat="39.794361481695" lon="3.061456201771">
        <ele>27.4</ele>
        <time>2015-06-19T11:45:29Z</time>
      </trkpt>
      <trkpt lat="39.794282691835" lon="3.061176833044">
        <ele>27.4</ele>
        <time>2015-06-19T11:45:32Z</time>
      </trkpt>
      <trkpt lat="39.794081274778" lon="3.060455654368">
        <ele>27.8</ele>
        <time>2015-06-19T11:45:40Z</time>
      </trkpt>
      <trkpt lat="39.793972812992" lon="3.060077127764">
        <ele>27.6</ele>
        <time>2015-06-19T11:45:44Z</time>
      </trkpt>
      <trkpt lat="39.793791428676" lon="3.059427279057">
        <ele>27.8</ele>
        <time>2015-06-19T11:45:51Z</time>
      </trkpt>
      <trkpt lat="39.793581964995" lon="3.058692521703">
        <ele>27.4</ele>
        <time>2015-06-19T11:45:59Z</time>
      </trkpt>
      <trkpt lat="39.793452380821" lon="3.058231433384">
        <ele>27.2</ele>
        <time>2015-06-19T11:46:04Z</time>
      </trkpt>
      <trkpt lat="39.793236043982" lon="3.057733213248">
        <ele>27.8</ele>
        <time>2015-06-19T11:46:10Z</time>
      </trkpt>
      <trkpt lat="39.792925075492" lon="3.057194508535">
        <ele>28</ele>
        <time>2015-06-19T11:46:17Z</time>
      </trkpt>
      <trkpt lat="39.792584686533" lon="3.056601992024">
        <ele>27.8</ele>
        <time>2015-06-19T11:46:25Z</time>
      </trkpt>
      <trkpt lat="39.792534730409" lon="3.056517167196">
        <ele>27.8</ele>
        <time>2015-06-19T11:46:26Z</time>
      </trkpt>
      <trkpt lat="39.792183780256" lon="3.055902773926">
        <ele>27.8</ele>
        <time>2015-06-19T11:46:34Z</time>
      </trkpt>
      <trkpt lat="39.792010694021" lon="3.055595912567">
        <ele>27.8</ele>
        <time>2015-06-19T11:46:38Z</time>
      </trkpt>
      <trkpt lat="39.791660749696" lon="3.054967521524">
        <ele>28</ele>
        <time>2015-06-19T11:46:46Z</time>
      </trkpt>
      <trkpt lat="39.791524795278" lon="3.054731822496">
        <ele>28</ele>
        <time>2015-06-19T11:46:49Z</time>
      </trkpt>
      <trkpt lat="39.791146520131" lon="3.054135785587">
        <ele>28.2</ele>
        <time>2015-06-19T11:46:57Z</time>
      </trkpt>
      <trkpt lat="39.791098156568" lon="3.054061270496">
        <ele>28.2</ele>
        <time>2015-06-19T11:46:58Z</time>
      </trkpt>
      <trkpt lat="39.790709655503" lon="3.053471771469">
        <ele>28.2</ele>
        <time>2015-06-19T11:47:06Z</time>
      </trkpt>
      <trkpt lat="39.790527935911" lon="3.0531741302">
        <ele>28.4</ele>
        <time>2015-06-19T11:47:10Z</time>
      </trkpt>
      <trkpt lat="39.790344959034" lon="3.052873471447">
        <ele>28.6</ele>
        <time>2015-06-19T11:47:14Z</time>
      </trkpt>
      <trkpt lat="39.790119485924" lon="3.052511708643">
        <ele>28.8</ele>
        <time>2015-06-19T11:47:19Z</time>
      </trkpt>
      <trkpt lat="39.78976526683" lon="3.05192690348">
        <ele>28.8</ele>
        <time>2015-06-19T11:47:27Z</time>
      </trkpt>
      <trkpt lat="39.789681866925" lon="3.051783992085">
        <ele>28.6</ele>
        <time>2015-06-19T11:47:29Z</time>
      </trkpt>
      <trkpt lat="39.789326558184" lon="3.051201617673">
        <ele>28.8</ele>
        <time>2015-06-19T11:47:37Z</time>
      </trkpt>
      <trkpt lat="39.789199907675" lon="3.050992237811">
        <ele>28.8</ele>
        <time>2015-06-19T11:47:40Z</time>
      </trkpt>
      <trkpt lat="39.788848957522" lon="3.05041732329">
        <ele>29.2</ele>
        <time>2015-06-19T11:47:48Z</time>
      </trkpt>
      <trkpt lat="39.788802689434" lon="3.050355548687">
        <ele>29</ele>
        <time>2015-06-19T11:47:49Z</time>
      </trkpt>
      <trkpt lat="39.788709650344" lon="3.050242225399">
        <ele>28.8</ele>
        <time>2015-06-19T11:47:51Z</time>
      </trkpt>
      <trkpt lat="39.788586268776" lon="3.050175170199">
        <ele>29</ele>
        <time>2015-06-19T11:47:53Z</time>
      </trkpt>
      <trkpt lat="39.788369764299" lon="3.050175589294">
        <ele>29.2</ele>
        <time>2015-06-19T11:47:56Z</time>
      </trkpt>
      <trkpt lat="39.788187877069" lon="3.0502991385">
        <ele>29.4</ele>
        <time>2015-06-19T11:47:59Z</time>
      </trkpt>
      <trkpt lat="39.788077738903" lon="3.050419167308">
        <ele>29.6</ele>
        <time>2015-06-19T11:48:01Z</time>
      </trkpt>
      <trkpt lat="39.78789777951" lon="3.050619494718">
        <ele>29.8</ele>
        <time>2015-06-19T11:48:05Z</time>
      </trkpt>
      <trkpt lat="39.787452616801" lon="3.051013946932">
        <ele>28.8</ele>
        <time>2015-06-19T11:48:12Z</time>
      </trkpt>
      <trkpt lat="39.787198393774" lon="3.051166832788">
        <ele>29.4</ele>
        <time>2015-06-19T11:48:16Z</time>
      </trkpt>
      <trkpt lat="39.787060176243" lon="3.051177310163">
        <ele>29.4</ele>
        <time>2015-06-19T11:48:18Z</time>
      </trkpt>
      <trkpt lat="39.786868146914" lon="3.051085695996">
        <ele>29.4</ele>
        <time>2015-06-19T11:48:21Z</time>
      </trkpt>
      <trkpt lat="39.786690366815" lon="3.050835915376">
        <ele>29</ele>
        <time>2015-06-19T11:48:25Z</time>
      </trkpt>
      <trkpt lat="39.786649966057" lon="3.050765255959">
        <ele>28.8</ele>
        <time>2015-06-19T11:48:26Z</time>
      </trkpt>
      <trkpt lat="39.786576372975" lon="3.050637264346">
        <ele>28.4</ele>
        <time>2015-06-19T11:48:28Z</time>
      </trkpt>
      <trkpt lat="39.786338494653" lon="3.050243315046">
        <ele>28.6</ele>
        <time>2015-06-19T11:48:34Z</time>
      </trkpt>
      <trkpt lat="39.786001374635" lon="3.049675944235">
        <ele>29</ele>
        <time>2015-06-19T11:48:42Z</time>
      </trkpt>
      <trkpt lat="39.78596072242" lon="3.049603859895">
        <ele>28.8</ele>
        <time>2015-06-19T11:48:43Z</time>
      </trkpt>
      <trkpt lat="39.785614214674" lon="3.049027688089">
        <ele>29.2</ele>
        <time>2015-06-19T11:48:51Z</time>
      </trkpt>
      <trkpt lat="39.78552654" lon="3.04889265568">
        <ele>29.4</ele>
        <time>2015-06-19T11:48:53Z</time>
      </trkpt>
      <trkpt lat="39.785477170609" lon="3.048816967123">
        <ele>29.6</ele>
        <time>2015-06-19T11:48:54Z</time>
      </trkpt>
      <trkpt lat="39.78509738672" lon="3.048250183045">
        <ele>29.2</ele>
        <time>2015-06-19T11:49:02Z</time>
      </trkpt>
      <trkpt lat="39.784997474472" lon="3.048106014365">
        <ele>29.4</ele>
        <time>2015-06-19T11:49:04Z</time>
      </trkpt>
      <trkpt lat="39.784607297027" lon="3.047536548079">
        <ele>29.8</ele>
        <time>2015-06-19T11:49:12Z</time>
      </trkpt>
      <trkpt lat="39.784513000652" lon="3.047393385227">
        <ele>29.8</ele>
        <time>2015-06-19T11:49:14Z</time>
      </trkpt>
      <trkpt lat="39.784142772129" lon="3.046828026072">
        <ele>29.4</ele>
        <time>2015-06-19T11:49:22Z</time>
      </trkpt>
      <trkpt lat="39.784098012783" lon="3.046763233985">
        <ele>29.6</ele>
        <time>2015-06-19T11:49:23Z</time>
      </trkpt>
      <trkpt lat="39.783724599138" lon="3.046222098521">
        <ele>30</ele>
        <time>2015-06-19T11:49:31Z</time>
      </trkpt>
      <trkpt lat="39.783583364123" lon="3.046026464975">
        <ele>30.2</ele>
        <time>2015-06-19T11:49:34Z</time>
      </trkpt>
      <trkpt lat="39.782988165404" lon="3.04514427">
        <ele>30.6</ele>
        <time>2015-06-19T11:49:47Z</time>
      </trkpt>
      <trkpt lat="39.782781719207" lon="3.044817627357">
        <ele>30.6</ele>
        <time>2015-06-19T11:49:52Z</time>
      </trkpt>
      <trkpt lat="39.78242942795" lon="3.044215974575">
        <ele>31.4</ele>
        <time>2015-06-19T11:50:00Z</time>
      </trkpt>
      <trkpt lat="39.782349967538" lon="3.044069291325">
        <ele>31.6</ele>
        <time>2015-06-19T11:50:02Z</time>
      </trkpt>
      <trkpt lat="39.782074705942" lon="3.043578698718">
        <ele>33</ele>
        <time>2015-06-19T11:50:09Z</time>
      </trkpt>
      <trkpt lat="39.782002202507" lon="3.043453389313">
        <ele>33.8</ele>
        <time>2015-06-19T11:50:11Z</time>
      </trkpt>
      <trkpt lat="39.781963981043" lon="3.043386669389">
        <ele>34</ele>
        <time>2015-06-19T11:50:12Z</time>
      </trkpt>
      <trkpt lat="39.781824925322" lon="3.043133955104">
        <ele>33</ele>
        <time>2015-06-19T11:50:16Z</time>
      </trkpt>
      <trkpt lat="39.781624597912" lon="3.042781160933">
        <ele>32.6</ele>
        <time>2015-06-19T11:50:22Z</time>
      </trkpt>
      <trkpt lat="39.781290998292" lon="3.042189901707">
        <ele>32</ele>
        <time>2015-06-19T11:50:32Z</time>
      </trkpt>
      <trkpt lat="39.781252860647" lon="3.042125361077">
        <ele>32</ele>
        <time>2015-06-19T11:50:33Z</time>
      </trkpt>
      <trkpt lat="39.781186308361" lon="3.042008936486">
        <ele>32</ele>
        <time>2015-06-19T11:50:35Z</time>
      </trkpt>
      <trkpt lat="39.780934264628" lon="3.041561175388">
        <ele>31.8</ele>
        <time>2015-06-19T11:50:42Z</time>
      </trkpt>
      <trkpt lat="39.780614495143" lon="3.040994223672">
        <ele>32.2</ele>
        <time>2015-06-19T11:50:51Z</time>
      </trkpt>
      <trkpt lat="39.780502848235" lon="3.040799260678">
        <ele>32.4</ele>
        <time>2015-06-19T11:50:54Z</time>
      </trkpt>
      <trkpt lat="39.780183665483" lon="3.04023834393">
        <ele>33.2</ele>
        <time>2015-06-19T11:51:03Z</time>
      </trkpt>
      <trkpt lat="39.780083753235" lon="3.040057127252">
        <ele>33.4</ele>
        <time>2015-06-19T11:51:06Z</time>
      </trkpt>
      <trkpt lat="39.779746800855" lon="3.039461593257">
        <ele>33.6</ele>
        <time>2015-06-19T11:51:16Z</time>
      </trkpt>
      <trkpt lat="39.779408758828" lon="3.038861533036">
        <ele>33.8</ele>
        <time>2015-06-19T11:51:26Z</time>
      </trkpt>
      <trkpt lat="39.77934237418" lon="3.038742090961">
        <ele>34.2</ele>
        <time>2015-06-19T11:51:28Z</time>
      </trkpt>
      <trkpt lat="39.779311025874" lon="3.038686938059">
        <ele>34.2</ele>
        <time>2015-06-19T11:51:29Z</time>
      </trkpt>
      <trkpt lat="39.779004332153" lon="3.038146473147">
        <ele>35</ele>
        <time>2015-06-19T11:51:38Z</time>
      </trkpt>
      <trkpt lat="39.77894507212" lon="3.038038681913">
        <ele>35.4</ele>
        <time>2015-06-19T11:51:40Z</time>
      </trkpt>
      <trkpt lat="39.778678024786" lon="3.037601482009">
        <ele>35.2</ele>
        <time>2015-06-19T11:51:48Z</time>
      </trkpt>
      <trkpt lat="39.778276028862" lon="3.03705070736">
        <ele>35.6</ele>
        <time>2015-06-19T11:51:59Z</time>
      </trkpt>
      <trkpt lat="39.777846456487" lon="3.036592636525">
        <ele>35.6</ele>
        <time>2015-06-19T11:52:09Z</time>
      </trkpt>
      <trkpt lat="39.777803960254" lon="3.03655030793">
        <ele>35.4</ele>
        <time>2015-06-19T11:52:10Z</time>
      </trkpt>
      <trkpt lat="39.777349912731" lon="3.03610271447">
        <ele>35.8</ele>
        <time>2015-06-19T11:52:20Z</time>
      </trkpt>
      <trkpt lat="39.777216975797" lon="3.035971789192">
        <ele>35.8</ele>
        <time>2015-06-19T11:52:23Z</time>
      </trkpt>
      <trkpt lat="39.776773992382" lon="3.035531655623">
        <ele>36.2</ele>
        <time>2015-06-19T11:52:33Z</time>
      </trkpt>
      <trkpt lat="39.776553296955" lon="3.035312468938">
        <ele>36.6</ele>
        <time>2015-06-19T11:52:38Z</time>
      </trkpt>
      <trkpt lat="39.776426897903" lon="3.035186824257">
        <ele>37</ele>
        <time>2015-06-19T11:52:41Z</time>
      </trkpt>
      <trkpt lat="39.775993972768" lon="3.034754402036">
        <ele>37.4</ele>
        <time>2015-06-19T11:52:51Z</time>
      </trkpt>
      <trkpt lat="39.775951476535" lon="3.03471215726">
        <ele>37.4</ele>
        <time>2015-06-19T11:52:52Z</time>
      </trkpt>
      <trkpt lat="39.775827508234" lon="3.034589278606">
        <ele>37.6</ele>
        <time>2015-06-19T11:52:55Z</time>
      </trkpt>
      <trkpt lat="39.775385363009" lon="3.034150402322">
        <ele>38.2</ele>
        <time>2015-06-19T11:53:06Z</time>
      </trkpt>
      <trkpt lat="39.77534504607" lon="3.034110085383">
        <ele>38</ele>
        <time>2015-06-19T11:53:07Z</time>
      </trkpt>
      <trkpt lat="39.774938356282" lon="3.033703144138">
        <ele>38.8</ele>
        <time>2015-06-19T11:53:17Z</time>
      </trkpt>
      <trkpt lat="39.774477016506" lon="3.033243899837">
        <ele>38.8</ele>
        <time>2015-06-19T11:53:28Z</time>
      </trkpt>
      <trkpt lat="39.774395544438" lon="3.033165864348">
        <ele>38.6</ele>
        <time>2015-06-19T11:53:30Z</time>
      </trkpt>
      <trkpt lat="39.773939988173" lon="3.032712822653">
        <ele>38.8</ele>
        <time>2015-06-19T11:53:41Z</time>
      </trkpt>
      <trkpt lat="39.773574704971" lon="3.032321387923">
        <ele>39.2</ele>
        <time>2015-06-19T11:53:50Z</time>
      </trkpt>
      <trkpt lat="39.773144294406" lon="3.031822329597">
        <ele>39.6</ele>
        <time>2015-06-19T11:54:01Z</time>
      </trkpt>
      <trkpt lat="39.772999706631" lon="3.031646644973">
        <ele>39.8</ele>
        <time>2015-06-19T11:54:05Z</time>
      </trkpt>
      <trkpt lat="39.772813041718" lon="3.031419830759">
        <ele>40.6</ele>
        <time>2015-06-19T11:54:10Z</time>
      </trkpt>
      <trkpt lat="39.772408698862" lon="3.030871067766">
        <ele>40.4</ele>
        <time>2015-06-19T11:54:21Z</time>
      </trkpt>
      <trkpt lat="39.772249778038" lon="3.030616090368">
        <ele>40.8</ele>
        <time>2015-06-19T11:54:26Z</time>
      </trkpt>
      <trkpt lat="39.772158415328" lon="3.030477537561">
        <ele>40.8</ele>
        <time>2015-06-19T11:54:29Z</time>
      </trkpt>
      <trkpt lat="39.77205431213" lon="3.030373099087">
        <ele>40.8</ele>
        <time>2015-06-19T11:54:32Z</time>
      </trkpt>
      <trkpt lat="39.771986083464" lon="3.030271929554">
        <ele>40.8</ele>
        <time>2015-06-19T11:54:34Z</time>
      </trkpt>
      <trkpt lat="39.771952807321" lon="3.03023789904">
        <ele>41</ele>
        <time>2015-06-19T11:54:35Z</time>
      </trkpt>
      <trkpt lat="39.771809476831" lon="3.030180985939">
        <ele>41.4</ele>
        <time>2015-06-19T11:54:38Z</time>
      </trkpt>
      <trkpt lat="39.771701517959" lon="3.030297997263">
        <ele>41.2</ele>
        <time>2015-06-19T11:54:41Z</time>
      </trkpt>
      <trkpt lat="39.771694980077" lon="3.03051366355">
        <ele>41</ele>
        <time>2015-06-19T11:54:44Z</time>
      </trkpt>
      <trkpt lat="39.771699087208" lon="3.030578623275">
        <ele>41</ele>
        <time>2015-06-19T11:54:45Z</time>
      </trkpt>
      <trkpt lat="39.771708642574" lon="3.030633692358">
        <ele>41</ele>
        <time>2015-06-19T11:54:46Z</time>
      </trkpt>
      <trkpt lat="39.771632032008" lon="3.030701921024">
        <ele>41</ele>
        <time>2015-06-19T11:54:48Z</time>
      </trkpt>
      <trkpt lat="39.77155307451" lon="3.030762438342">
        <ele>41</ele>
        <time>2015-06-19T11:54:50Z</time>
      </trkpt>
      <trkpt lat="39.771401613577" lon="3.030895207638">
        <ele>40.8</ele>
        <time>2015-06-19T11:54:54Z</time>
      </trkpt>
      <trkpt lat="39.771116209882" lon="3.031121435119">
        <ele>40.4</ele>
        <time>2015-06-19T11:55:02Z</time>
      </trkpt>
      <trkpt lat="39.770995761979" lon="3.031249175275">
        <ele>40.4</ele>
        <time>2015-06-19T11:55:07Z</time>
      </trkpt>
      <trkpt lat="39.77084312758" lon="3.03139627762">
        <ele>40</ele>
        <time>2015-06-19T11:55:12Z</time>
      </trkpt>
      <trkpt lat="39.770816137862" lon="3.031425698089">
        <ele>40</ele>
        <time>2015-06-19T11:55:13Z</time>
      </trkpt>
      <trkpt lat="39.77064363836" lon="3.031577410479">
        <ele>40.4</ele>
        <time>2015-06-19T11:55:18Z</time>
      </trkpt>
      <trkpt lat="39.77041145973" lon="3.031764494487">
        <ele>40.4</ele>
        <time>2015-06-19T11:55:25Z</time>
      </trkpt>
      <trkpt lat="39.770340548856" lon="3.031824005977">
        <ele>40.4</ele>
        <time>2015-06-19T11:55:27Z</time>
      </trkpt>
      <trkpt lat="39.77018431024" lon="3.031952584323">
        <ele>40.4</ele>
        <time>2015-06-19T11:55:32Z</time>
      </trkpt>
      <trkpt lat="39.769509483471" lon="3.03251945222">
        <ele>40.6</ele>
        <time>2015-06-19T11:55:50Z</time>
      </trkpt>
      <trkpt lat="39.769158533318" lon="3.032808460132">
        <ele>41</ele>
        <time>2015-06-19T11:55:59Z</time>
      </trkpt>
      <trkpt lat="39.769024758194" lon="3.032838132058">
        <ele>41</ele>
        <time>2015-06-19T11:56:02Z</time>
      </trkpt>
      <trkpt lat="39.768978657744" lon="3.032866546699">
        <ele>41</ele>
        <time>2015-06-19T11:56:03Z</time>
      </trkpt>
      <trkpt lat="39.768942280298" lon="3.032910635493">
        <ele>41</ele>
        <time>2015-06-19T11:56:04Z</time>
      </trkpt>
      <trkpt lat="39.768886875939" lon="3.033024210238">
        <ele>41.2</ele>
        <time>2015-06-19T11:56:06Z</time>
      </trkpt>
      <trkpt lat="39.768716807188" lon="3.033182376691">
        <ele>41.2</ele>
        <time>2015-06-19T11:56:10Z</time>
      </trkpt>
      <trkpt lat="39.768360995533" lon="3.033354708555">
        <ele>40.8</ele>
        <time>2015-06-19T11:56:17Z</time>
      </trkpt>
      <trkpt lat="39.768010548294" lon="3.033393852028">
        <ele>41.4</ele>
        <time>2015-06-19T11:56:23Z</time>
      </trkpt>
      <trkpt lat="39.767635458269" lon="3.033307099363">
        <ele>41.6</ele>
        <time>2015-06-19T11:56:30Z</time>
      </trkpt>
      <trkpt lat="39.767336475896" lon="3.033111717274">
        <ele>41.8</ele>
        <time>2015-06-19T11:56:36Z</time>
      </trkpt>
      <trkpt lat="39.767204796247" lon="3.032973667381">
        <ele>42</ele>
        <time>2015-06-19T11:56:39Z</time>
      </trkpt>
      <trkpt lat="39.767084264525" lon="3.032819775697">
        <ele>42.2</ele>
        <time>2015-06-19T11:56:42Z</time>
      </trkpt>
      <trkpt lat="39.766813780612" lon="3.032363465061">
        <ele>43</ele>
        <time>2015-06-19T11:56:50Z</time>
      </trkpt>
      <trkpt lat="39.766775475329" lon="3.032302193372">
        <ele>43</ele>
        <time>2015-06-19T11:56:51Z</time>
      </trkpt>
      <trkpt lat="39.766679334936" lon="3.032141679987">
        <ele>43</ele>
        <time>2015-06-19T11:56:54Z</time>
      </trkpt>
      <trkpt lat="39.766622924749" lon="3.032026261224">
        <ele>42.8</ele>
        <time>2015-06-19T11:56:56Z</time>
      </trkpt>
      <trkpt lat="39.766395104707" lon="3.03159241408">
        <ele>42.6</ele>
        <time>2015-06-19T11:57:04Z</time>
      </trkpt>
      <trkpt lat="39.766187065949" lon="3.031207014318">
        <ele>43.4</ele>
        <time>2015-06-19T11:57:11Z</time>
      </trkpt>
      <trkpt lat="39.76595312712" lon="3.030758163573">
        <ele>44.2</ele>
        <time>2015-06-19T11:57:19Z</time>
      </trkpt>
      <trkpt lat="39.765924963936" lon="3.030708542725">
        <ele>44.2</ele>
        <time>2015-06-19T11:57:20Z</time>
      </trkpt>
      <trkpt lat="39.765692198573" lon="3.030282742205">
        <ele>43.6</ele>
        <time>2015-06-19T11:57:28Z</time>
      </trkpt>
      <trkpt lat="39.765485836195" lon="3.029899018823">
        <ele>44.2</ele>
        <time>2015-06-19T11:57:36Z</time>
      </trkpt>
      <trkpt lat="39.765473179526" lon="3.029844117378">
        <ele>44.4</ele>
        <time>2015-06-19T11:57:37Z</time>
      </trkpt>
      <trkpt lat="39.76543428751" lon="3.029682598165">
        <ele>44.2</ele>
        <time>2015-06-19T11:57:40Z</time>
      </trkpt>
      <trkpt lat="39.765361029704" lon="3.029624595417">
        <ele>44.2</ele>
        <time>2015-06-19T11:57:42Z</time>
      </trkpt>
      <trkpt lat="39.765229182417" lon="3.029670276772">
        <ele>44.4</ele>
        <time>2015-06-19T11:57:45Z</time>
      </trkpt>
      <trkpt lat="39.765134886042" lon="3.029831041614">
        <ele>44.2</ele>
        <time>2015-06-19T11:57:48Z</time>
      </trkpt>
      <trkpt lat="39.765104543564" lon="3.029891056018">
        <ele>44</ele>
        <time>2015-06-19T11:57:49Z</time>
      </trkpt>
      <trkpt lat="39.76507302762" lon="3.02993531245">
        <ele>44</ele>
        <time>2015-06-19T11:57:50Z</time>
      </trkpt>
      <trkpt lat="39.764932546976" lon="3.030028686816">
        <ele>43.8</ele>
        <time>2015-06-19T11:57:53Z</time>
      </trkpt>
      <trkpt lat="39.764878651359" lon="3.030054419249">
        <ele>44</ele>
        <time>2015-06-19T11:57:54Z</time>
      </trkpt>
      <trkpt lat="39.76451479308" lon="3.03017168203">
        <ele>44.6</ele>
        <time>2015-06-19T11:58:01Z</time>
      </trkpt>
      <trkpt lat="39.764362661595" lon="3.030208813847">
        <ele>45.2</ele>
        <time>2015-06-19T11:58:04Z</time>
      </trkpt>
      <trkpt lat="39.764008107225" lon="3.030327920646">
        <ele>45.4</ele>
        <time>2015-06-19T11:58:11Z</time>
      </trkpt>
      <trkpt lat="39.76381155167" lon="3.030420205365">
        <ele>45.6</ele>
        <time>2015-06-19T11:58:15Z</time>
      </trkpt>
      <trkpt lat="39.763606362758" lon="3.030539898897">
        <ele>45.8</ele>
        <time>2015-06-19T11:58:19Z</time>
      </trkpt>
      <trkpt lat="39.763110657192" lon="3.030859919839">
        <ele>45.6</ele>
        <time>2015-06-19T11:58:28Z</time>
      </trkpt>
      <trkpt lat="39.763062125991" lon="3.030892190154">
        <ele>45.6</ele>
        <time>2015-06-19T11:58:29Z</time>
      </trkpt>
      <trkpt lat="39.762530964988" lon="3.031234255493">
        <ele>45.2</ele>
        <time>2015-06-19T11:58:38Z</time>
      </trkpt>
      <trkpt lat="39.762472543145" lon="3.031272728414">
        <ele>45.2</ele>
        <time>2015-06-19T11:58:39Z</time>
      </trkpt>
      <trkpt lat="39.761962420711" lon="3.031603394369">
        <ele>44.8</ele>
        <time>2015-06-19T11:58:48Z</time>
      </trkpt>
      <trkpt lat="39.761797548738" lon="3.031710934146">
        <ele>44.6</ele>
        <time>2015-06-19T11:58:51Z</time>
      </trkpt>
      <trkpt lat="39.7612609395" lon="3.032062806308">
        <ele>44.8</ele>
        <time>2015-06-19T11:59:01Z</time>
      </trkpt>
      <trkpt lat="39.761156752483" lon="3.032134303915">
        <ele>44.8</ele>
        <time>2015-06-19T11:59:03Z</time>
      </trkpt>
      <trkpt lat="39.760676637251" lon="3.032465472784">
        <ele>44.8</ele>
        <time>2015-06-19T11:59:12Z</time>
      </trkpt>
      <trkpt lat="39.760567085818" lon="3.032540909884">
        <ele>44.8</ele>
        <time>2015-06-19T11:59:14Z</time>
      </trkpt>
      <trkpt lat="39.760080097428" lon="3.032884400146">
        <ele>45</ele>
        <time>2015-06-19T11:59:23Z</time>
      </trkpt>
      <trkpt lat="39.759973898755" lon="3.032955897753">
        <ele>45.4</ele>
        <time>2015-06-19T11:59:25Z</time>
      </trkpt>
      <trkpt lat="39.759471236212" lon="3.033262591474">
        <ele>45.2</ele>
        <time>2015-06-19T11:59:34Z</time>
      </trkpt>
      <trkpt lat="39.759422118278" lon="3.033290838477">
        <ele>45.2</ele>
        <time>2015-06-19T11:59:35Z</time>
      </trkpt>
      <trkpt lat="39.758925993617" lon="3.033637430042">
        <ele>45.4</ele>
        <time>2015-06-19T11:59:44Z</time>
      </trkpt>
      <trkpt lat="39.758467922782" lon="3.034050070979">
        <ele>45.4</ele>
        <time>2015-06-19T11:59:53Z</time>
      </trkpt>
      <trkpt lat="39.758364909231" lon="3.034146127553">
        <ele>45.4</ele>
        <time>2015-06-19T11:59:55Z</time>
      </trkpt>
      <trkpt lat="39.757885296913" lon="3.034578968869">
        <ele>45.4</ele>
        <time>2015-06-19T12:00:04Z</time>
      </trkpt>
      <trkpt lat="39.757673653938" lon="3.034769321818">
        <ele>45.4</ele>
        <time>2015-06-19T12:00:08Z</time>
      </trkpt>
      <trkpt lat="39.757220193148" lon="3.035177604167">
        <ele>45.8</ele>
        <time>2015-06-19T12:00:17Z</time>
      </trkpt>
      <trkpt lat="39.757115000303" lon="3.035274834207">
        <ele>46</ele>
        <time>2015-06-19T12:00:19Z</time>
      </trkpt>
      <trkpt lat="39.75696521575" lon="3.035408441693">
        <ele>46.4</ele>
        <time>2015-06-19T12:00:22Z</time>
      </trkpt>
      <trkpt lat="39.756638154012" lon="3.035709100446">
        <ele>47.2</ele>
        <time>2015-06-19T12:00:29Z</time>
      </trkpt>
      <trkpt lat="39.756592975571" lon="3.035750758489">
        <ele>47.4</ele>
        <time>2015-06-19T12:00:30Z</time>
      </trkpt>
      <trkpt lat="39.756143202817" lon="3.036153592603">
        <ele>47.8</ele>
        <time>2015-06-19T12:00:40Z</time>
      </trkpt>
      <trkpt lat="39.755950502936" lon="3.036329277227">
        <ele>48.4</ele>
        <time>2015-06-19T12:00:44Z</time>
      </trkpt>
      <trkpt lat="39.755685802534" lon="3.036571095042">
        <ele>48.2</ele>
        <time>2015-06-19T12:00:49Z</time>
      </trkpt>
      <trkpt lat="39.755214823573" lon="3.036995554458">
        <ele>47.2</ele>
        <time>2015-06-19T12:00:57Z</time>
      </trkpt>
      <trkpt lat="39.755153551884" lon="3.037050372084">
        <ele>47.4</ele>
        <time>2015-06-19T12:00:58Z</time>
      </trkpt>
      <trkpt lat="39.754774857642" lon="3.037394113803">
        <ele>46.2</ele>
        <time>2015-06-19T12:01:04Z</time>
      </trkpt>
      <trkpt lat="39.754487945205" lon="3.037653533608">
        <ele>46.2</ele>
        <time>2015-06-19T12:01:09Z</time>
      </trkpt>
      <trkpt lat="39.754157446888" lon="3.037952767438">
        <ele>45</ele>
        <time>2015-06-19T12:01:15Z</time>
      </trkpt>
      <trkpt lat="39.753817141748" lon="3.038257281865">
        <ele>45</ele>
        <time>2015-06-19T12:01:21Z</time>
      </trkpt>
      <trkpt lat="39.753338619077" lon="3.038688362982">
        <ele>45</ele>
        <time>2015-06-19T12:01:30Z</time>
      </trkpt>
      <trkpt lat="39.753282125071" lon="3.038739073477">
        <ele>45</ele>
        <time>2015-06-19T12:01:31Z</time>
      </trkpt>
      <trkpt lat="39.752836627086" lon="3.039129250922">
        <ele>44.8</ele>
        <time>2015-06-19T12:01:39Z</time>
      </trkpt>
      <trkpt lat="39.752474277549" lon="3.039441644335">
        <ele>44.2</ele>
        <time>2015-06-19T12:01:45Z</time>
      </trkpt>
      <trkpt lat="39.752165991267" lon="3.039723108537">
        <ele>44</ele>
        <time>2015-06-19T12:01:50Z</time>
      </trkpt>
      <trkpt lat="39.751913947534" lon="3.039958891384">
        <ele>42.8</ele>
        <time>2015-06-19T12:01:54Z</time>
      </trkpt>
      <trkpt lat="39.751446237514" lon="3.04037999804">
        <ele>42</ele>
        <time>2015-06-19T12:02:02Z</time>
      </trkpt>
      <trkpt lat="39.751385468739" lon="3.040434145114">
        <ele>42</ele>
        <time>2015-06-19T12:02:03Z</time>
      </trkpt>
      <trkpt lat="39.751328555638" lon="3.040485274704">
        <ele>41.8</ele>
        <time>2015-06-19T12:02:04Z</time>
      </trkpt>
      <trkpt lat="39.750849362415" lon="3.040914511803">
        <ele>42</ele>
        <time>2015-06-19T12:02:13Z</time>
      </trkpt>
      <trkpt lat="39.750365726785" lon="3.041354980648">
        <ele>42.6</ele>
        <time>2015-06-19T12:02:23Z</time>
      </trkpt>
      <trkpt lat="39.750213176205" lon="3.04149395255">
        <ele>42.8</ele>
        <time>2015-06-19T12:02:26Z</time>
      </trkpt>
      <trkpt lat="39.749855771989" lon="3.041819673184">
        <ele>43</ele>
        <time>2015-06-19T12:02:33Z</time>
      </trkpt>
      <trkpt lat="39.749375321481" lon="3.042249413197">
        <ele>43.2</ele>
        <time>2015-06-19T12:02:42Z</time>
      </trkpt>
      <trkpt lat="39.749218328494" lon="3.042388217461">
        <ele>43.2</ele>
        <time>2015-06-19T12:02:45Z</time>
      </trkpt>
      <trkpt lat="39.748727568249" lon="3.042824243899">
        <ele>43.6</ele>
        <time>2015-06-19T12:02:54Z</time>
      </trkpt>
      <trkpt lat="39.74861851973" lon="3.042922060672">
        <ele>43.6</ele>
        <time>2015-06-19T12:02:56Z</time>
      </trkpt>
      <trkpt lat="39.748159443067" lon="3.043338641102">
        <ele>43</ele>
        <time>2015-06-19T12:03:04Z</time>
      </trkpt>
      <trkpt lat="39.747980573321" lon="3.043501669057">
        <ele>43</ele>
        <time>2015-06-19T12:03:07Z</time>
      </trkpt>
      <trkpt lat="39.747516132242" lon="3.043925960835">
        <ele>42.8</ele>
        <time>2015-06-19T12:03:15Z</time>
      </trkpt>
      <trkpt lat="39.747340699075" lon="3.044085133116">
        <ele>43</ele>
        <time>2015-06-19T12:03:18Z</time>
      </trkpt>
      <trkpt lat="39.746868965743" lon="3.044514454034">
        <ele>43</ele>
        <time>2015-06-19T12:03:26Z</time>
      </trkpt>
      <trkpt lat="39.746693616395" lon="3.044672285211">
        <ele>43.2</ele>
        <time>2015-06-19T12:03:29Z</time>
      </trkpt>
      <trkpt lat="39.746216686285" lon="3.045105126527">
        <ele>43.2</ele>
        <time>2015-06-19T12:03:37Z</time>
      </trkpt>
      <trkpt lat="39.746098585314" lon="3.045202775662">
        <ele>43.2</ele>
        <time>2015-06-19T12:03:39Z</time>
      </trkpt>
      <trkpt lat="39.745680412323" lon="3.045577949506">
        <ele>43.8</ele>
        <time>2015-06-19T12:03:47Z</time>
      </trkpt>
      <trkpt lat="39.74521211557" lon="3.045998134153">
        <ele>43.6</ele>
        <time>2015-06-19T12:03:57Z</time>
      </trkpt>
      <trkpt lat="39.744874911733" lon="3.046300888381">
        <ele>43.8</ele>
        <time>2015-06-19T12:04:06Z</time>
      </trkpt>
      <trkpt lat="39.744552124764" lon="3.046608252654">
        <ele>44.8</ele>
        <time>2015-06-19T12:04:16Z</time>
      </trkpt>
      <trkpt lat="39.744464785366" lon="3.046697184613">
        <ele>45</ele>
        <time>2015-06-19T12:04:19Z</time>
      </trkpt>
      <trkpt lat="39.744330172052" lon="3.046834731592">
        <ele>46</ele>
        <time>2015-06-19T12:04:24Z</time>
      </trkpt>
      <trkpt lat="39.744282814317" lon="3.046886531734">
        <ele>46.6</ele>
        <time>2015-06-19T12:04:26Z</time>
      </trkpt>
      <trkpt lat="39.744220285343" lon="3.04695308402">
        <ele>47.2</ele>
        <time>2015-06-19T12:04:29Z</time>
      </trkpt>
      <trkpt lat="39.744137388352" lon="3.047039920504">
        <ele>47.8</ele>
        <time>2015-06-19T12:04:33Z</time>
      </trkpt>
      <trkpt lat="39.744075781387" lon="3.0471056346">
        <ele>48.4</ele>
        <time>2015-06-19T12:04:36Z</time>
      </trkpt>
      <trkpt lat="39.743956423131" lon="3.047237314249">
        <ele>49.4</ele>
        <time>2015-06-19T12:04:42Z</time>
      </trkpt>
      <trkpt lat="39.743917447296" lon="3.047280732491">
        <ele>49.8</ele>
        <time>2015-06-19T12:04:44Z</time>
      </trkpt>
      <trkpt lat="39.743878639099" lon="3.047324486009">
        <ele>50.4</ele>
        <time>2015-06-19T12:04:46Z</time>
      </trkpt>
      <trkpt lat="39.743800184515" lon="3.047411490131">
        <ele>51.6</ele>
        <time>2015-06-19T12:04:50Z</time>
      </trkpt>
      <trkpt lat="39.743694824032" lon="3.047524813419">
        <ele>52.4</ele>
        <time>2015-06-19T12:04:55Z</time>
      </trkpt>
      <trkpt lat="39.743650902876" lon="3.047572674068">
        <ele>52.8</ele>
        <time>2015-06-19T12:04:57Z</time>
      </trkpt>
      <trkpt lat="39.743502627065" lon="3.047733858005">
        <ele>54</ele>
        <time>2015-06-19T12:05:04Z</time>
      </trkpt>
      <trkpt lat="39.743463902687" lon="3.047777276247">
        <ele>54.6</ele>
        <time>2015-06-19T12:05:06Z</time>
      </trkpt>
      <trkpt lat="39.743423585748" lon="3.047824214887">
        <ele>55.2</ele>
        <time>2015-06-19T12:05:08Z</time>
      </trkpt>
      <trkpt lat="39.74332283531" lon="3.047938879279">
        <ele>56.4</ele>
        <time>2015-06-19T12:05:13Z</time>
      </trkpt>
      <trkpt lat="39.743263910553" lon="3.048006353574">
        <ele>56.8</ele>
        <time>2015-06-19T12:05:16Z</time>
      </trkpt>
      <trkpt lat="39.743186629435" lon="3.048099225026">
        <ele>57.4</ele>
        <time>2015-06-19T12:05:20Z</time>
      </trkpt>
      <trkpt lat="39.743087136282" lon="3.048208608821">
        <ele>58.6</ele>
        <time>2015-06-19T12:05:25Z</time>
      </trkpt>
      <trkpt lat="39.743064505152" lon="3.048231826684">
        <ele>58.8</ele>
        <time>2015-06-19T12:05:26Z</time>
      </trkpt>
      <trkpt lat="39.743003652558" lon="3.048298043694">
        <ele>59.8</ele>
        <time>2015-06-19T12:05:29Z</time>
      </trkpt>
      <trkpt lat="39.742903656491" lon="3.048414133009">
        <ele>60.8</ele>
        <time>2015-06-19T12:05:34Z</time>
      </trkpt>
      <trkpt lat="39.7428207595" lon="3.048504657529">
        <ele>61.6</ele>
        <time>2015-06-19T12:05:38Z</time>
      </trkpt>
      <trkpt lat="39.742784382054" lon="3.048547153762">
        <ele>62</ele>
        <time>2015-06-19T12:05:40Z</time>
      </trkpt>
      <trkpt lat="39.742705676013" lon="3.048636923911">
        <ele>63</ele>
        <time>2015-06-19T12:05:44Z</time>
      </trkpt>
      <trkpt lat="39.742598303874" lon="3.048753264683">
        <ele>64</ele>
        <time>2015-06-19T12:05:49Z</time>
      </trkpt>
      <trkpt lat="39.742519765471" lon="3.04884739342">
        <ele>65.2</ele>
        <time>2015-06-19T12:05:53Z</time>
      </trkpt>
      <trkpt lat="39.742403592337" lon="3.048987622607">
        <ele>66.2</ele>
        <time>2015-06-19T12:05:59Z</time>
      </trkpt>
      <trkpt lat="39.742381967035" lon="3.049011846298">
        <ele>66.4</ele>
        <time>2015-06-19T12:06:00Z</time>
      </trkpt>
      <trkpt lat="39.742314744197" lon="3.049090049425">
        <ele>67.4</ele>
        <time>2015-06-19T12:06:04Z</time>
      </trkpt>
      <trkpt lat="39.742263949883" lon="3.049151404933">
        <ele>67.8</ele>
        <time>2015-06-19T12:06:07Z</time>
      </trkpt>
      <trkpt lat="39.742202929651" lon="3.049229691879">
        <ele>68.4</ele>
        <time>2015-06-19T12:06:11Z</time>
      </trkpt>
      <trkpt lat="39.742135706813" lon="3.049313091784">
        <ele>69</ele>
        <time>2015-06-19T12:06:15Z</time>
      </trkpt>
      <trkpt lat="39.74204543375" lon="3.049434294058">
        <ele>69.4</ele>
        <time>2015-06-19T12:06:20Z</time>
      </trkpt>
      <trkpt lat="39.74197334941" lon="3.049535631229">
        <ele>70</ele>
        <time>2015-06-19T12:06:24Z</time>
      </trkpt>
      <trkpt lat="39.741870335859" lon="3.049655911494">
        <ele>70.4</ele>
        <time>2015-06-19T12:06:30Z</time>
      </trkpt>
      <trkpt lat="39.741848375281" lon="3.049664041937">
        <ele>70.6</ele>
        <time>2015-06-19T12:06:31Z</time>
      </trkpt>
      <trkpt lat="39.741770172154" lon="3.049686253972">
        <ele>70.8</ele>
        <time>2015-06-19T12:06:35Z</time>
      </trkpt>
      <trkpt lat="39.741650813898" lon="3.049806198961">
        <ele>71</ele>
        <time>2015-06-19T12:06:42Z</time>
      </trkpt>
      <trkpt lat="39.741628098949" lon="3.049847605547">
        <ele>71</ele>
        <time>2015-06-19T12:06:44Z</time>
      </trkpt>
      <trkpt lat="39.741597085919" lon="3.049899573327">
        <ele>71.2</ele>
        <time>2015-06-19T12:06:47Z</time>
      </trkpt>
      <trkpt lat="39.741593314064" lon="3.049923964656">
        <ele>71.2</ele>
        <time>2015-06-19T12:06:49Z</time>
      </trkpt>
      <trkpt lat="39.741597421195" lon="3.049911224168">
        <ele>71.2</ele>
        <time>2015-06-19T12:06:52Z</time>
      </trkpt>
      <trkpt lat="39.741606725104" lon="3.049905943571">
        <ele>71</ele>
        <time>2015-06-19T12:07:10Z</time>
      </trkpt>
      <trkpt lat="39.741597085919" lon="3.049908374322">
        <ele>71.2</ele>
        <time>2015-06-19T12:07:21Z</time>
      </trkpt>
      <trkpt lat="39.741595409539" lon="3.04990938015">
        <ele>71.2</ele>
        <time>2015-06-19T12:07:30Z</time>
      </trkpt>
      <trkpt lat="39.741622734533" lon="3.049903931915">
        <ele>71.2</ele>
        <time>2015-06-19T12:07:39Z</time>
      </trkpt>
      <trkpt lat="39.74167830653" lon="3.049918767878">
        <ele>71.2</ele>
        <time>2015-06-19T12:07:52Z</time>
      </trkpt>
      <trkpt lat="39.741693980683" lon="3.049936705144">
        <ele>71.2</ele>
        <time>2015-06-19T12:08:08Z</time>
      </trkpt>
      <trkpt lat="39.741676546331" lon="3.049946344329">
        <ele>71.4</ele>
        <time>2015-06-19T12:08:25Z</time>
      </trkpt>
      <trkpt lat="39.741657938513" lon="3.04994290775">
        <ele>71.2</ele>
        <time>2015-06-19T12:08:37Z</time>
      </trkpt>
      <trkpt lat="39.741642096722" lon="3.049948104528">
        <ele>71.2</ele>
        <time>2015-06-19T12:08:57Z</time>
      </trkpt>
      <trkpt lat="39.741631870804" lon="3.049979955748">
        <ele>71</ele>
        <time>2015-06-19T12:09:05Z</time>
      </trkpt>
      <trkpt lat="39.741626590207" lon="3.049979369015">
        <ele>71.4</ele>
        <time>2015-06-19T12:09:13Z</time>
      </trkpt>
      <trkpt lat="39.741618711221" lon="3.049984146698">
        <ele>71.2</ele>
        <time>2015-06-19T12:09:23Z</time>
      </trkpt>
      <trkpt lat="39.741617621574" lon="3.050000323765">
        <ele>71.2</ele>
        <time>2015-06-19T12:09:24Z</time>
      </trkpt>
      <trkpt lat="39.741555344057" lon="3.05008037091">
        <ele>71.4</ele>
        <time>2015-06-19T12:09:28Z</time>
      </trkpt>
      <trkpt lat="39.741503627734" lon="3.050129740301">
        <ele>71.6</ele>
        <time>2015-06-19T12:09:30Z</time>
      </trkpt>
      <trkpt lat="39.741433219774" lon="3.050223366124">
        <ele>72</ele>
        <time>2015-06-19T12:09:33Z</time>
      </trkpt>
      <trkpt lat="39.741311598405" lon="3.050373653591">
        <ele>72.8</ele>
        <time>2015-06-19T12:09:38Z</time>
      </trkpt>
      <trkpt lat="39.741236748038" lon="3.050466525043">
        <ele>73.4</ele>
        <time>2015-06-19T12:09:41Z</time>
      </trkpt>
      <trkpt lat="39.741077408119" lon="3.050669534661">
        <ele>73.8</ele>
        <time>2015-06-19T12:09:47Z</time>
      </trkpt>
      <trkpt lat="39.74093734657" lon="3.050846392751">
        <ele>74.4</ele>
        <time>2015-06-19T12:09:52Z</time>
      </trkpt>
      <trkpt lat="39.740775659719" lon="3.051037080976">
        <ele>75</ele>
        <time>2015-06-19T12:09:58Z</time>
      </trkpt>
      <trkpt lat="39.740663426078" lon="3.051150068988">
        <ele>75.2</ele>
        <time>2015-06-19T12:10:02Z</time>
      </trkpt>
      <trkpt lat="39.740507858014" lon="3.051279569343">
        <ele>76</ele>
        <time>2015-06-19T12:10:07Z</time>
      </trkpt>
      <trkpt lat="39.740321947472" lon="3.051411165173">
        <ele>76.6</ele>
        <time>2015-06-19T12:10:13Z</time>
      </trkpt>
      <trkpt lat="39.74020309213" lon="3.051478220373">
        <ele>77</ele>
        <time>2015-06-19T12:10:17Z</time>
      </trkpt>
      <trkpt lat="39.740073927051" lon="3.05155055617">
        <ele>77.6</ele>
        <time>2015-06-19T12:10:21Z</time>
      </trkpt>
      <trkpt lat="39.739965968179" lon="3.051629597487">
        <ele>78.2</ele>
        <time>2015-06-19T12:10:25Z</time>
      </trkpt>
      <trkpt lat="39.739872593813" lon="3.051742250223">
        <ele>79.4</ele>
        <time>2015-06-19T12:10:29Z</time>
      </trkpt>
      <trkpt lat="39.739743261096" lon="3.051921958159">
        <ele>80.4</ele>
        <time>2015-06-19T12:10:35Z</time>
      </trkpt>
      <trkpt lat="39.739680480665" lon="3.051962023641">
        <ele>81</ele>
        <time>2015-06-19T12:10:37Z</time>
      </trkpt>
      <trkpt lat="39.739618957519" lon="3.051996137974">
        <ele>81.6</ele>
        <time>2015-06-19T12:10:39Z</time>
      </trkpt>
      <trkpt lat="39.73948811606" lon="3.052143240319">
        <ele>81.8</ele>
        <time>2015-06-19T12:10:44Z</time>
      </trkpt>
      <trkpt lat="39.739240095639" lon="3.052388494713">
        <ele>82.6</ele>
        <time>2015-06-19T12:10:53Z</time>
      </trkpt>
      <trkpt lat="39.739210339894" lon="3.052417328449">
        <ele>82.8</ele>
        <time>2015-06-19T12:10:54Z</time>
      </trkpt>
      <trkpt lat="39.739033984718" lon="3.052633916745">
        <ele>83.6</ele>
        <time>2015-06-19T12:11:01Z</time>
      </trkpt>
      <trkpt lat="39.73901034776" lon="3.052666689974">
        <ele>83.8</ele>
        <time>2015-06-19T12:11:02Z</time>
      </trkpt>
      <trkpt lat="39.738848660909" lon="3.052937928258">
        <ele>84.2</ele>
        <time>2015-06-19T12:11:09Z</time>
      </trkpt>
      <trkpt lat="39.738669958801" lon="3.053218889546">
        <ele>84</ele>
        <time>2015-06-19T12:11:16Z</time>
      </trkpt>
      <trkpt lat="39.738647327671" lon="3.053252752422">
        <ele>84</ele>
        <time>2015-06-19T12:11:17Z</time>
      </trkpt>
      <trkpt lat="39.738435097963" lon="3.05356221217">
        <ele>84.2</ele>
        <time>2015-06-19T12:11:24Z</time>
      </trkpt>
      <trkpt lat="39.738361756338" lon="3.053676625105">
        <ele>84.6</ele>
        <time>2015-06-19T12:11:27Z</time>
      </trkpt>
      <trkpt lat="39.738309034187" lon="3.053770753842">
        <ele>84.8</ele>
        <time>2015-06-19T12:11:29Z</time>
      </trkpt>
      <trkpt lat="39.738169224095" lon="3.054012404019">
        <ele>84.8</ele>
        <time>2015-06-19T12:11:34Z</time>
      </trkpt>
      <trkpt lat="39.738075682091" lon="3.054181383123">
        <ele>84.8</ele>
        <time>2015-06-19T12:11:38Z</time>
      </trkpt>
      <trkpt lat="39.738049362925" lon="3.054225807193">
        <ele>85</ele>
        <time>2015-06-19T12:11:39Z</time>
      </trkpt>
      <trkpt lat="39.73792405352" lon="3.054422865662">
        <ele>85.8</ele>
        <time>2015-06-19T12:11:44Z</time>
      </trkpt>
      <trkpt lat="39.737909552833" lon="3.054463685515">
        <ele>85.8</ele>
        <time>2015-06-19T12:11:45Z</time>
      </trkpt>
      <trkpt lat="39.737745267593" lon="3.054707682624">
        <ele>86.4</ele>
        <time>2015-06-19T12:11:51Z</time>
      </trkpt>
      <trkpt lat="39.737713332554" lon="3.054742048414">
        <ele>86.4</ele>
        <time>2015-06-19T12:11:52Z</time>
      </trkpt>
      <trkpt lat="39.737625154966" lon="3.054849252915">
        <ele>87</ele>
        <time>2015-06-19T12:11:55Z</time>
      </trkpt>
      <trkpt lat="39.737536390645" lon="3.054942208186">
        <ele>87.4</ele>
        <time>2015-06-19T12:11:58Z</time>
      </trkpt>
      <trkpt lat="39.737421307158" lon="3.055078833156">
        <ele>88</ele>
        <time>2015-06-19T12:12:02Z</time>
      </trkpt>
      <trkpt lat="39.737368082093" lon="3.055141278311">
        <ele>88.4</ele>
        <time>2015-06-19T12:12:04Z</time>
      </trkpt>
      <trkpt lat="39.737205892328" lon="3.055353675657">
        <ele>88.8</ele>
        <time>2015-06-19T12:12:10Z</time>
      </trkpt>
      <trkpt lat="39.737180662809" lon="3.055394579329">
        <ele>88.8</ele>
        <time>2015-06-19T12:12:11Z</time>
      </trkpt>
      <trkpt lat="39.737098101094" lon="3.055506477694">
        <ele>89</ele>
        <time>2015-06-19T12:12:14Z</time>
      </trkpt>
      <trkpt lat="39.737053425567" lon="3.055552578144">
        <ele>89.6</ele>
        <time>2015-06-19T12:12:17Z</time>
      </trkpt>
      <trkpt lat="39.737049150798" lon="3.055576634197">
        <ele>89.8</ele>
        <time>2015-06-19T12:12:21Z</time>
      </trkpt>
      <trkpt lat="39.737058287069" lon="3.055593817092">
        <ele>89.8</ele>
        <time>2015-06-19T12:12:22Z</time>
      </trkpt>
      <trkpt lat="39.737016545207" lon="3.055655004962">
        <ele>89.8</ele>
        <time>2015-06-19T12:12:25Z</time>
      </trkpt>
      <trkpt lat="39.736945131419" lon="3.055743853102">
        <ele>90</ele>
        <time>2015-06-19T12:12:28Z</time>
      </trkpt>
      <trkpt lat="39.736920404814" lon="3.055781152557">
        <ele>90</ele>
        <time>2015-06-19T12:12:29Z</time>
      </trkpt>
      <trkpt lat="39.736895342933" lon="3.05581861965">
        <ele>90.2</ele>
        <time>2015-06-19T12:12:30Z</time>
      </trkpt>
      <trkpt lat="39.736785875319" lon="3.056009056418">
        <ele>90.6</ele>
        <time>2015-06-19T12:12:35Z</time>
      </trkpt>
      <trkpt lat="39.736721837603" lon="3.056074938152">
        <ele>91</ele>
        <time>2015-06-19T12:12:38Z</time>
      </trkpt>
      <trkpt lat="39.736677078257" lon="3.056106621734">
        <ele>91</ele>
        <time>2015-06-19T12:12:39Z</time>
      </trkpt>
      <trkpt lat="39.736586889013" lon="3.056166887595">
        <ele>91.4</ele>
        <time>2015-06-19T12:12:41Z</time>
      </trkpt>
      <trkpt lat="39.736395278779" lon="3.056315414863">
        <ele>90.8</ele>
        <time>2015-06-19T12:12:45Z</time>
      </trkpt>
      <trkpt lat="39.736246667692" lon="3.056441981553">
        <ele>90.2</ele>
        <time>2015-06-19T12:12:49Z</time>
      </trkpt>
      <trkpt lat="39.736224371838" lon="3.056461595199">
        <ele>90</ele>
        <time>2015-06-19T12:12:50Z</time>
      </trkpt>
      <trkpt lat="39.736142480675" lon="3.056505181079">
        <ele>89.6</ele>
        <time>2015-06-19T12:12:55Z</time>
      </trkpt>
      <trkpt lat="39.736048016662" lon="3.056553041728">
        <ele>89.4</ele>
        <time>2015-06-19T12:12:59Z</time>
      </trkpt>
      <trkpt lat="39.735920444144" lon="3.056669717776">
        <ele>89.6</ele>
        <time>2015-06-19T12:13:03Z</time>
      </trkpt>
      <trkpt lat="39.735667226945" lon="3.056856466508">
        <ele>90.2</ele>
        <time>2015-06-19T12:13:10Z</time>
      </trkpt>
      <trkpt lat="39.735505791551" lon="3.056943135354">
        <ele>90.6</ele>
        <time>2015-06-19T12:13:15Z</time>
      </trkpt>
      <trkpt lat="39.735427839881" lon="3.057004742319">
        <ele>91</ele>
        <time>2015-06-19T12:13:17Z</time>
      </trkpt>
      <trkpt lat="39.735332705316" lon="3.057092249355">
        <ele>91.2</ele>
        <time>2015-06-19T12:13:20Z</time>
      </trkpt>
      <trkpt lat="39.735309152177" lon="3.057107252956">
        <ele>91.2</ele>
        <time>2015-06-19T12:13:22Z</time>
      </trkpt>
      <trkpt lat="39.735287191599" lon="3.057110689535">
        <ele>91.2</ele>
        <time>2015-06-19T12:13:24Z</time>
      </trkpt>
      <trkpt lat="39.735174371225" lon="3.05715050356">
        <ele>91.2</ele>
        <time>2015-06-19T12:13:28Z</time>
      </trkpt>
      <trkpt lat="39.734990472339" lon="3.057228790506">
        <ele>91.8</ele>
        <time>2015-06-19T12:13:33Z</time>
      </trkpt>
      <trkpt lat="39.734877065232" lon="3.05727455568">
        <ele>92.4</ele>
        <time>2015-06-19T12:13:36Z</time>
      </trkpt>
      <trkpt lat="39.734758293709" lon="3.0573147888">
        <ele>93</ele>
        <time>2015-06-19T12:13:39Z</time>
      </trkpt>
      <trkpt lat="39.734658046185" lon="3.057361475983">
        <ele>93.6</ele>
        <time>2015-06-19T12:13:42Z</time>
      </trkpt>
      <trkpt lat="39.734622590748" lon="3.057377401593">
        <ele>93.8</ele>
        <time>2015-06-19T12:13:43Z</time>
      </trkpt>
      <trkpt lat="39.734590739528" lon="3.057369103512">
        <ele>94</ele>
        <time>2015-06-19T12:13:44Z</time>
      </trkpt>
      <trkpt lat="39.734491078737" lon="3.057377904507">
        <ele>94.6</ele>
        <time>2015-06-19T12:13:47Z</time>
      </trkpt>
      <trkpt lat="39.734291170422" lon="3.057479325497">
        <ele>95.6</ele>
        <time>2015-06-19T12:13:53Z</time>
      </trkpt>
      <trkpt lat="39.734129986485" lon="3.057585607989">
        <ele>96.4</ele>
        <time>2015-06-19T12:13:58Z</time>
      </trkpt>
      <trkpt lat="39.734101990939" lon="3.057593822251">
        <ele>96.6</ele>
        <time>2015-06-19T12:13:59Z</time>
      </trkpt>
      <trkpt lat="39.733920438985" lon="3.057660039261">
        <ele>97.6</ele>
        <time>2015-06-19T12:14:04Z</time>
      </trkpt>
      <trkpt lat="39.733888671584" lon="3.0576752105">
        <ele>97.6</ele>
        <time>2015-06-19T12:14:05Z</time>
      </trkpt>
      <trkpt lat="39.733632017806" lon="3.057823989225">
        <ele>98.6</ele>
        <time>2015-06-19T12:14:12Z</time>
      </trkpt>
      <trkpt lat="39.733586084994" lon="3.057847290907">
        <ele>98.8</ele>
        <time>2015-06-19T12:14:13Z</time>
      </trkpt>
      <trkpt lat="39.73341040037" lon="3.057931529002">
        <ele>99.6</ele>
        <time>2015-06-19T12:14:17Z</time>
      </trkpt>
      <trkpt lat="39.733315014348" lon="3.057977210357">
        <ele>99.8</ele>
        <time>2015-06-19T12:14:19Z</time>
      </trkpt>
      <trkpt lat="39.733148968909" lon="3.058076200596">
        <ele>99.8</ele>
        <time>2015-06-19T12:14:23Z</time>
      </trkpt>
      <trkpt lat="39.732871360381" lon="3.05817309536">
        <ele>100.4</ele>
        <time>2015-06-19T12:14:29Z</time>
      </trkpt>
      <trkpt lat="39.732635577534" lon="3.058281305689">
        <ele>100</ele>
        <time>2015-06-19T12:14:34Z</time>
      </trkpt>
      <trkpt lat="39.732320921008" lon="3.058432682803">
        <ele>99.8</ele>
        <time>2015-06-19T12:14:40Z</time>
      </trkpt>
      <trkpt lat="39.731942226766" lon="3.058614234757">
        <ele>100</ele>
        <time>2015-06-19T12:14:47Z</time>
      </trkpt>
      <trkpt lat="39.731654308501" lon="3.05874893189">
        <ele>99.8</ele>
        <time>2015-06-19T12:14:52Z</time>
      </trkpt>
      <trkpt lat="39.731605693481" lon="3.058769216088">
        <ele>99.6</ele>
        <time>2015-06-19T12:14:53Z</time>
      </trkpt>
      <trkpt lat="39.73155129495" lon="3.058786985716">
        <ele>99.4</ele>
        <time>2015-06-19T12:14:54Z</time>
      </trkpt>
      <trkpt lat="39.731414502342" lon="3.0587983851">
        <ele>99.2</ele>
        <time>2015-06-19T12:14:57Z</time>
      </trkpt>
      <trkpt lat="39.731368066616" lon="3.058814394529">
        <ele>99.2</ele>
        <time>2015-06-19T12:14:58Z</time>
      </trkpt>
      <trkpt lat="39.731221383366" lon="3.058813556339">
        <ele>99.6</ele>
        <time>2015-06-19T12:15:01Z</time>
      </trkpt>
      <trkpt lat="39.731015440083" lon="3.058881701186">
        <ele>99.8</ele>
        <time>2015-06-19T12:15:05Z</time>
      </trkpt>
      <trkpt lat="39.730948720159" lon="3.058890837457">
        <ele>99.4</ele>
        <time>2015-06-19T12:15:06Z</time>
      </trkpt>
      <trkpt lat="39.730672117459" lon="3.058972141887">
        <ele>98.8</ele>
        <time>2015-06-19T12:15:11Z</time>
      </trkpt>
      <trkpt lat="39.730558626533" lon="3.059016733595">
        <ele>99</ele>
        <time>2015-06-19T12:15:13Z</time>
      </trkpt>
      <trkpt lat="39.730504144183" lon="3.059025283133">
        <ele>99</ele>
        <time>2015-06-19T12:15:14Z</time>
      </trkpt>
      <trkpt lat="39.730226032741" lon="3.05907079685">
        <ele>99.2</ele>
        <time>2015-06-19T12:15:19Z</time>
      </trkpt>
      <trkpt lat="39.730067614831" lon="3.059115388558">
        <ele>99.4</ele>
        <time>2015-06-19T12:15:22Z</time>
      </trkpt>
      <trkpt lat="39.729905341247" lon="3.059155705497">
        <ele>99.4</ele>
        <time>2015-06-19T12:15:25Z</time>
      </trkpt>
      <trkpt lat="39.729664361622" lon="3.059222257783">
        <ele>99</ele>
        <time>2015-06-19T12:15:30Z</time>
      </trkpt>
      <trkpt lat="39.729500663115" lon="3.059233573348">
        <ele>99</ele>
        <time>2015-06-19T12:15:35Z</time>
      </trkpt>
      <trkpt lat="39.729268987399" lon="3.059153107108">
        <ele>98.8</ele>
        <time>2015-06-19T12:15:41Z</time>
      </trkpt>
      <trkpt lat="39.729184665485" lon="3.059116562024">
        <ele>98.6</ele>
        <time>2015-06-19T12:15:43Z</time>
      </trkpt>
      <trkpt lat="39.729028426869" lon="3.059043471856">
        <ele>98</ele>
        <time>2015-06-19T12:15:47Z</time>
      </trkpt>
      <trkpt lat="39.728987774654" lon="3.059014554301">
        <ele>97.8</ele>
        <time>2015-06-19T12:15:48Z</time>
      </trkpt>
      <trkpt lat="39.728948128267" lon="3.058975913742">
        <ele>97.6</ele>
        <time>2015-06-19T12:15:49Z</time>
      </trkpt>
      <trkpt lat="39.728816448618" lon="3.058943894884">
        <ele>97</ele>
        <time>2015-06-19T12:15:52Z</time>
      </trkpt>
      <trkpt lat="39.728733216351" lon="3.058920509383">
        <ele>96.4</ele>
        <time>2015-06-19T12:15:54Z</time>
      </trkpt>
      <trkpt lat="39.728511263639" lon="3.058830906872">
        <ele>96.4</ele>
        <time>2015-06-19T12:15:59Z</time>
      </trkpt>
      <trkpt lat="39.728133826682" lon="3.058655222248">
        <ele>95.4</ele>
        <time>2015-06-19T12:16:06Z</time>
      </trkpt>
      <trkpt lat="39.728074901925" lon="3.058636782068">
        <ele>95.4</ele>
        <time>2015-06-19T12:16:07Z</time>
      </trkpt>
      <trkpt lat="39.727661338979" lon="3.058475179036">
        <ele>94.4</ele>
        <time>2015-06-19T12:16:14Z</time>
      </trkpt>
      <trkpt lat="39.727548602424" lon="3.058417511564">
        <ele>94.4</ele>
        <time>2015-06-19T12:16:16Z</time>
      </trkpt>
      <trkpt lat="39.727501915241" lon="3.058402507963">
        <ele>94.4</ele>
        <time>2015-06-19T12:16:17Z</time>
      </trkpt>
      <trkpt lat="39.727226821283" lon="3.058276025092">
        <ele>94.2</ele>
        <time>2015-06-19T12:16:22Z</time>
      </trkpt>
      <trkpt lat="39.72709380053" lon="3.058200420354">
        <ele>93.6</ele>
        <time>2015-06-19T12:16:26Z</time>
      </trkpt>
      <trkpt lat="39.727088184657" lon="3.058194972119">
        <ele>93.4</ele>
        <time>2015-06-19T12:16:27Z</time>
      </trkpt>
      <trkpt lat="39.727087765562" lon="3.058188937151">
        <ele>93</ele>
        <time>2015-06-19T12:16:30Z</time>
      </trkpt>
      <trkpt lat="39.727092543245" lon="3.058187260771">
        <ele>92.4</ele>
        <time>2015-06-19T12:16:50Z</time>
      </trkpt>
      <trkpt lat="39.72708960958" lon="3.058180387613">
        <ele>92.4</ele>
        <time>2015-06-19T12:17:03Z</time>
      </trkpt>
      <trkpt lat="39.727087346467" lon="3.058177118672">
        <ele>92.6</ele>
        <time>2015-06-19T12:17:10Z</time>
      </trkpt>
      <trkpt lat="39.727082149689" lon="3.05816638984">
        <ele>92.6</ele>
        <time>2015-06-19T12:17:29Z</time>
      </trkpt>
      <trkpt lat="39.727061530215" lon="3.058171921894">
        <ele>92.6</ele>
        <time>2015-06-19T12:17:31Z</time>
      </trkpt>
      <trkpt lat="39.727066056441" lon="3.058224811683">
        <ele>92.6</ele>
        <time>2015-06-19T12:17:34Z</time>
      </trkpt>
      <trkpt lat="39.72710385881" lon="3.05823763599">
        <ele>92.6</ele>
        <time>2015-06-19T12:17:36Z</time>
      </trkpt>
      <trkpt lat="39.727184911783" lon="3.058277450015">
        <ele>92.8</ele>
        <time>2015-06-19T12:17:39Z</time>
      </trkpt>
      <trkpt lat="39.727422622467" lon="3.058364705594">
        <ele>93</ele>
        <time>2015-06-19T12:17:45Z</time>
      </trkpt>
      <trkpt lat="39.727611969588" lon="3.058440813246">
        <ele>93.4</ele>
        <time>2015-06-19T12:17:49Z</time>
      </trkpt>
      <trkpt lat="39.727833838481" lon="3.058547347195">
        <ele>93.6</ele>
        <time>2015-06-19T12:17:54Z</time>
      </trkpt>
      <trkpt lat="39.728204905194" lon="3.05868690583">
        <ele>94.4</ele>
        <time>2015-06-19T12:18:02Z</time>
      </trkpt>
      <trkpt lat="39.728246227961" lon="3.058706687114">
        <ele>94.6</ele>
        <time>2015-06-19T12:18:03Z</time>
      </trkpt>
      <trkpt lat="39.728604470367" lon="3.058860494979">
        <ele>95</ele>
        <time>2015-06-19T12:18:11Z</time>
      </trkpt>
      <trkpt lat="39.728786776692" lon="3.058933501328">
        <ele>95.6</ele>
        <time>2015-06-19T12:18:15Z</time>
      </trkpt>
      <trkpt lat="39.728866237104" lon="3.05896937586">
        <ele>95.8</ele>
        <time>2015-06-19T12:18:17Z</time>
      </trkpt>
      <trkpt lat="39.729093889508" lon="3.059070042479">
        <ele>96.4</ele>
        <time>2015-06-19T12:18:23Z</time>
      </trkpt>
      <trkpt lat="39.729203860036" lon="3.059125446838">
        <ele>96.6</ele>
        <time>2015-06-19T12:18:26Z</time>
      </trkpt>
      <trkpt lat="39.729333276572" lon="3.059197698816">
        <ele>97</ele>
        <time>2015-06-19T12:18:30Z</time>
      </trkpt>
      <trkpt lat="39.729438385598" lon="3.059277243047">
        <ele>97.6</ele>
        <time>2015-06-19T12:18:34Z</time>
      </trkpt>
      <trkpt lat="39.72944576167" lon="3.059295850865">
        <ele>97.8</ele>
        <time>2015-06-19T12:18:35Z</time>
      </trkpt>
      <trkpt lat="39.729485324238" lon="3.05934656136">
        <ele>98.4</ele>
        <time>2015-06-19T12:18:39Z</time>
      </trkpt>
      <trkpt lat="39.729500579296" lon="3.059349327387">
        <ele>98.6</ele>
        <time>2015-06-19T12:18:40Z</time>
      </trkpt>
      <trkpt lat="39.729577441319" lon="3.059322756764">
        <ele>98.8</ele>
        <time>2015-06-19T12:18:43Z</time>
      </trkpt>
      <trkpt lat="39.729612729118" lon="3.059302304928">
        <ele>98.8</ele>
        <time>2015-06-19T12:18:44Z</time>
      </trkpt>
      <trkpt lat="39.729769722105" lon="3.059231477873">
        <ele>98.6</ele>
        <time>2015-06-19T12:18:48Z</time>
      </trkpt>
      <trkpt lat="39.729976838854" lon="3.059149419072">
        <ele>98.8</ele>
        <time>2015-06-19T12:18:53Z</time>
      </trkpt>
      <trkpt lat="39.730069961763" lon="3.059119579508">
        <ele>98.6</ele>
        <time>2015-06-19T12:18:55Z</time>
      </trkpt>
      <trkpt lat="39.730386462307" lon="3.05905403305">
        <ele>98.8</ele>
        <time>2015-06-19T12:19:01Z</time>
      </trkpt>
      <trkpt lat="39.730433233309" lon="3.059042214571">
        <ele>98.8</ele>
        <time>2015-06-19T12:19:02Z</time>
      </trkpt>
      <trkpt lat="39.730803126556" lon="3.058973650629">
        <ele>99.2</ele>
        <time>2015-06-19T12:19:09Z</time>
      </trkpt>
      <trkpt lat="39.731215599855" lon="3.058890669819">
        <ele>98.8</ele>
        <time>2015-06-19T12:19:17Z</time>
      </trkpt>
      <trkpt lat="39.731589516414" lon="3.058860075884">
        <ele>98.8</ele>
        <time>2015-06-19T12:19:24Z</time>
      </trkpt>
      <trkpt lat="39.731732008714" lon="3.058839540229">
        <ele>99.2</ele>
        <time>2015-06-19T12:19:27Z</time>
      </trkpt>
      <trkpt lat="39.731884391656" lon="3.058836690383">
        <ele>99.4</ele>
        <time>2015-06-19T12:19:30Z</time>
      </trkpt>
      <trkpt lat="39.732096202269" lon="3.058844234093">
        <ele>99.8</ele>
        <time>2015-06-19T12:19:34Z</time>
      </trkpt>
      <trkpt lat="39.732202065666" lon="3.058843312084">
        <ele>99.8</ele>
        <time>2015-06-19T12:19:36Z</time>
      </trkpt>
      <trkpt lat="39.732694167015" lon="3.058833002347">
        <ele>100.6</ele>
        <time>2015-06-19T12:19:46Z</time>
      </trkpt>
      <trkpt lat="39.732773459789" lon="3.058830739234">
        <ele>100.8</ele>
        <time>2015-06-19T12:19:48Z</time>
      </trkpt>
      <trkpt lat="39.732904887981" lon="3.058816573823">
        <ele>101</ele>
        <time>2015-06-19T12:19:51Z</time>
      </trkpt>
      <trkpt lat="39.7330390822" lon="3.05878832682">
        <ele>100.8</ele>
        <time>2015-06-19T12:19:56Z</time>
      </trkpt>
      <trkpt lat="39.733185430174" lon="3.058719427602">
        <ele>100.2</ele>
        <time>2015-06-19T12:20:02Z</time>
      </trkpt>
      <trkpt lat="39.733397492244" lon="3.058632591118">
        <ele>100</ele>
        <time>2015-06-19T12:20:07Z</time>
      </trkpt>
      <trkpt lat="39.733439234106" lon="3.058625298865">
        <ele>99.8</ele>
        <time>2015-06-19T12:20:08Z</time>
      </trkpt>
      <trkpt lat="39.733599412215" lon="3.058537456553">
        <ele>99.4</ele>
        <time>2015-06-19T12:20:12Z</time>
      </trkpt>
      <trkpt lat="39.733733019701" lon="3.058470317534">
        <ele>98.6</ele>
        <time>2015-06-19T12:20:16Z</time>
      </trkpt>
      <trkpt lat="39.733920522804" lon="3.058356407513">
        <ele>97.6</ele>
        <time>2015-06-19T12:20:21Z</time>
      </trkpt>
      <trkpt lat="39.7339610912" lon="3.058335285125">
        <ele>97.6</ele>
        <time>2015-06-19T12:20:22Z</time>
      </trkpt>
      <trkpt lat="39.734005934365" lon="3.05831977861">
        <ele>97.4</ele>
        <time>2015-06-19T12:20:23Z</time>
      </trkpt>
      <trkpt lat="39.734152617615" lon="3.058253729238">
        <ele>97.2</ele>
        <time>2015-06-19T12:20:26Z</time>
      </trkpt>
      <trkpt lat="39.734330481533" lon="3.058165719288">
        <ele>96.2</ele>
        <time>2015-06-19T12:20:30Z</time>
      </trkpt>
      <trkpt lat="39.734359985821" lon="3.058157505026">
        <ele>96</ele>
        <time>2015-06-19T12:20:31Z</time>
      </trkpt>
      <trkpt lat="39.734444643011" lon="3.058103860866">
        <ele>95.2</ele>
        <time>2015-06-19T12:20:35Z</time>
      </trkpt>
      <trkpt lat="39.734462077363" lon="3.058078631347">
        <ele>95</ele>
        <time>2015-06-19T12:20:36Z</time>
      </trkpt>
      <trkpt lat="39.734566851113" lon="3.057979892565">
        <ele>94.6</ele>
        <time>2015-06-19T12:20:40Z</time>
      </trkpt>
      <trkpt lat="39.734684365351" lon="3.057887943122">
        <ele>94.4</ele>
        <time>2015-06-19T12:20:44Z</time>
      </trkpt>
      <trkpt lat="39.734752426379" lon="3.05786128868">
        <ele>94.2</ele>
        <time>2015-06-19T12:20:47Z</time>
      </trkpt>
      <trkpt lat="39.73480598672" lon="3.057849218744">
        <ele>94</ele>
        <time>2015-06-19T12:20:49Z</time>
      </trkpt>
      <trkpt lat="39.734869102427" lon="3.057795490765">
        <ele>93.8</ele>
        <time>2015-06-19T12:20:52Z</time>
      </trkpt>
      <trkpt lat="39.734945545355" lon="3.057733464705">
        <ele>93.6</ele>
        <time>2015-06-19T12:20:57Z</time>
      </trkpt>
      <trkpt lat="39.735055683521" lon="3.057664900763">
        <ele>93.4</ele>
        <time>2015-06-19T12:21:01Z</time>
      </trkpt>
      <trkpt lat="39.735116452296" lon="3.057620476693">
        <ele>93.4</ele>
        <time>2015-06-19T12:21:03Z</time>
      </trkpt>
      <trkpt lat="39.735258693139" lon="3.057533975485">
        <ele>93.4</ele>
        <time>2015-06-19T12:21:07Z</time>
      </trkpt>
      <trkpt lat="39.735276965681" lon="3.057519139522">
        <ele>93.2</ele>
        <time>2015-06-19T12:21:10Z</time>
      </trkpt>
      <trkpt lat="39.735266404487" lon="3.057350160418">
        <ele>93.2</ele>
        <time>2015-06-19T12:21:15Z</time>
      </trkpt>
      <trkpt lat="39.735234134172" lon="3.057181097495">
        <ele>93</ele>
        <time>2015-06-19T12:21:19Z</time>
      </trkpt>
      <trkpt lat="39.735234972362" lon="3.057115048123">
        <ele>92.6</ele>
        <time>2015-06-19T12:21:21Z</time>
      </trkpt>
      <trkpt lat="39.735223489159" lon="3.057094931563">
        <ele>92.4</ele>
        <time>2015-06-19T12:21:22Z</time>
      </trkpt>
      <trkpt lat="39.735218962933" lon="3.057071797519">
        <ele>92</ele>
        <time>2015-06-19T12:21:25Z</time>
      </trkpt>
      <trkpt lat="39.735221309865" lon="3.057059727583">
        <ele>91.8</ele>
        <time>2015-06-19T12:21:26Z</time>
      </trkpt>
      <trkpt lat="39.73524184552" lon="3.057044640163">
        <ele>91.2</ele>
        <time>2015-06-19T12:21:32Z</time>
      </trkpt>
      <trkpt lat="39.735287778332" lon="3.056994684039">
        <ele>91.2</ele>
        <time>2015-06-19T12:21:37Z</time>
      </trkpt>
      <trkpt lat="39.735438317256" lon="3.056922683518">
        <ele>91.2</ele>
        <time>2015-06-19T12:21:43Z</time>
      </trkpt>
      <trkpt lat="39.735593633863" lon="3.056805085461">
        <ele>91.2</ele>
        <time>2015-06-19T12:21:48Z</time>
      </trkpt>
      <trkpt lat="39.735823968475" lon="3.056670891242">
        <ele>90.8</ele>
        <time>2015-06-19T12:21:54Z</time>
      </trkpt>
      <trkpt lat="39.735912481339" lon="3.056611212114">
        <ele>90.8</ele>
        <time>2015-06-19T12:21:57Z</time>
      </trkpt>
      <trkpt lat="39.735943913464" lon="3.056602411119">
        <ele>90.4</ele>
        <time>2015-06-19T12:21:59Z</time>
      </trkpt>
      <trkpt lat="39.736008202637" lon="3.05660735644">
        <ele>89.6</ele>
        <time>2015-06-19T12:22:03Z</time>
      </trkpt>
      <trkpt lat="39.736092356913" lon="3.056738533175">
        <ele>89.6</ele>
        <time>2015-06-19T12:22:07Z</time>
      </trkpt>
      <trkpt lat="39.736213978282" lon="3.056981356818">
        <ele>90.4</ele>
        <time>2015-06-19T12:22:13Z</time>
      </trkpt>
      <trkpt lat="39.736281368758" lon="3.057079425048">
        <ele>90.6</ele>
        <time>2015-06-19T12:22:16Z</time>
      </trkpt>
      <trkpt lat="39.736310956865" lon="3.057151425569">
        <ele>91.2</ele>
        <time>2015-06-19T12:22:19Z</time>
      </trkpt>
      <trkpt lat="39.736391926019" lon="3.057226527393">
        <ele>91.4</ele>
        <time>2015-06-19T12:22:25Z</time>
      </trkpt>
      <trkpt lat="39.736524946772" lon="3.057338928672">
        <ele>91.8</ele>
        <time>2015-06-19T12:22:30Z</time>
      </trkpt>
      <trkpt lat="39.736661571742" lon="3.057454682711">
        <ele>92.6</ele>
        <time>2015-06-19T12:22:36Z</time>
      </trkpt>
      <trkpt lat="39.736712198418" lon="3.05749248508">
        <ele>92.8</ele>
        <time>2015-06-19T12:22:39Z</time>
      </trkpt>
      <trkpt lat="39.73673633829" lon="3.05752098354">
        <ele>93</ele>
        <time>2015-06-19T12:22:42Z</time>
      </trkpt>
      <trkpt lat="39.736790736821" lon="3.05748661775">
        <ele>92.8</ele>
        <time>2015-06-19T12:22:50Z</time>
      </trkpt>
      <trkpt lat="39.73683775928" lon="3.057460969136">
        <ele>92.8</ele>
        <time>2015-06-19T12:22:58Z</time>
      </trkpt>
      <trkpt lat="39.73687715421" lon="3.057444875888">
        <ele>93</ele>
        <time>2015-06-19T12:23:10Z</time>
      </trkpt>
      <trkpt lat="39.736920488633" lon="3.057444792069">
        <ele>93</ele>
        <time>2015-06-19T12:23:22Z</time>
      </trkpt>
      <trkpt lat="39.736974216612" lon="3.057468931941">
        <ele>93</ele>
        <time>2015-06-19T12:23:26Z</time>
      </trkpt>
      <trkpt lat="39.736972372594" lon="3.057479996049">
        <ele>93</ele>
        <time>2015-06-19T12:23:27Z</time>
      </trkpt>
      <trkpt lat="39.73696600235" lon="3.057480834239">
        <ele>93.2</ele>
        <time>2015-06-19T12:23:33Z</time>
      </trkpt>
      <trkpt lat="39.736967846368" lon="3.057492401261">
        <ele>93.2</ele>
        <time>2015-06-19T12:23:41Z</time>
      </trkpt>
      <trkpt lat="39.73698360434" lon="3.057536657693">
        <ele>93.2</ele>
        <time>2015-06-19T12:23:47Z</time>
      </trkpt>
      <trkpt lat="39.73696516416" lon="3.057568173637">
        <ele>93.2</ele>
        <time>2015-06-19T12:23:48Z</time>
      </trkpt>
      <trkpt lat="39.736948484179" lon="3.05763413919">
        <ele>93.2</ele>
        <time>2015-06-19T12:23:50Z</time>
      </trkpt>
      <trkpt lat="39.736891738716" lon="3.057730111945">
        <ele>93.4</ele>
        <time>2015-06-19T12:23:52Z</time>
      </trkpt>
      <trkpt lat="39.73685033213" lon="3.057752826894">
        <ele>93.6</ele>
        <time>2015-06-19T12:23:53Z</time>
      </trkpt>
      <trkpt lat="39.736840022393" lon="3.057775625662">
        <ele>93.6</ele>
        <time>2015-06-19T12:23:54Z</time>
      </trkpt>
      <trkpt lat="39.736780343265" lon="3.057905209836">
        <ele>94</ele>
        <time>2015-06-19T12:23:57Z</time>
      </trkpt>
      <trkpt lat="39.736641706639" lon="3.058193966291">
        <ele>94.6</ele>
        <time>2015-06-19T12:24:04Z</time>
      </trkpt>
      <trkpt lat="39.736584122986" lon="3.05831307309">
        <ele>95</ele>
        <time>2015-06-19T12:24:07Z</time>
      </trkpt>
      <trkpt lat="39.73655193649" lon="3.058353976762">
        <ele>95.2</ele>
        <time>2015-06-19T12:24:09Z</time>
      </trkpt>
      <trkpt lat="39.736557217087" lon="3.058368225992">
        <ele>95.4</ele>
        <time>2015-06-19T12:24:10Z</time>
      </trkpt>
      <trkpt lat="39.736522180745" lon="3.058371830209">
        <ele>95.6</ele>
        <time>2015-06-19T12:24:12Z</time>
      </trkpt>
      <trkpt lat="39.736400643195" lon="3.058310977615">
        <ele>95.6</ele>
        <time>2015-06-19T12:24:16Z</time>
      </trkpt>
      <trkpt lat="39.736288241916" lon="3.058251382306">
        <ele>95.6</ele>
        <time>2015-06-19T12:24:21Z</time>
      </trkpt>
      <trkpt lat="39.736164525072" lon="3.058175442292">
        <ele>95.4</ele>
        <time>2015-06-19T12:24:26Z</time>
      </trkpt>
      <trkpt lat="39.736086573402" lon="3.058162953261">
        <ele>95.4</ele>
        <time>2015-06-19T12:24:29Z</time>
      </trkpt>
      <trkpt lat="39.73605069887" lon="3.058175274654">
        <ele>95.2</ele>
        <time>2015-06-19T12:24:31Z</time>
      </trkpt>
      <trkpt lat="39.735977943978" lon="3.058256411446">
        <ele>95</ele>
        <time>2015-06-19T12:24:34Z</time>
      </trkpt>
      <trkpt lat="39.735970735544" lon="3.058277198558">
        <ele>95.2</ele>
        <time>2015-06-19T12:24:35Z</time>
      </trkpt>
      <trkpt lat="39.735881635947" lon="3.058395467167">
        <ele>95.8</ele>
        <time>2015-06-19T12:24:40Z</time>
      </trkpt>
      <trkpt lat="39.735855065324" lon="3.058418098297">
        <ele>96</ele>
        <time>2015-06-19T12:24:41Z</time>
      </trkpt>
      <trkpt lat="39.735752470868" lon="3.058562686072">
        <ele>96.6</ele>
        <time>2015-06-19T12:24:45Z</time>
      </trkpt>
      <trkpt lat="39.735699245803" lon="3.058627813435">
        <ele>97</ele>
        <time>2015-06-19T12:24:47Z</time>
      </trkpt>
      <trkpt lat="39.7356207074" lon="3.058711883892">
        <ele>97.4</ele>
        <time>2015-06-19T12:24:50Z</time>
      </trkpt>
      <trkpt lat="39.735562704652" lon="3.058801151127">
        <ele>98.2</ele>
        <time>2015-06-19T12:24:54Z</time>
      </trkpt>
      <trkpt lat="39.735456841255" lon="3.058935680622">
        <ele>98.6</ele>
        <time>2015-06-19T12:24:59Z</time>
      </trkpt>
      <trkpt lat="39.7353608685" lon="3.059046992254">
        <ele>99</ele>
        <time>2015-06-19T12:25:03Z</time>
      </trkpt>
      <trkpt lat="39.735298088069" lon="3.059106922839">
        <ele>99.2</ele>
        <time>2015-06-19T12:25:05Z</time>
      </trkpt>
      <trkpt lat="39.735186692618" lon="3.059155202583">
        <ele>99.4</ele>
        <time>2015-06-19T12:25:08Z</time>
      </trkpt>
      <trkpt lat="39.734938085464" lon="3.059213959702">
        <ele>99.8</ele>
        <time>2015-06-19T12:25:14Z</time>
      </trkpt>
      <trkpt lat="39.734733399466" lon="3.059277075409">
        <ele>99.6</ele>
        <time>2015-06-19T12:25:20Z</time>
      </trkpt>
      <trkpt lat="39.734655783072" lon="3.05929124082">
        <ele>99.8</ele>
        <time>2015-06-19T12:25:22Z</time>
      </trkpt>
      <trkpt lat="39.734570790606" lon="3.059324516963">
        <ele>100</ele>
        <time>2015-06-19T12:25:24Z</time>
      </trkpt>
      <trkpt lat="39.734526450355" lon="3.059340191116">
        <ele>100.2</ele>
        <time>2015-06-19T12:25:25Z</time>
      </trkpt>
      <trkpt lat="39.734300139055" lon="3.059405569936">
        <ele>100</ele>
        <time>2015-06-19T12:25:30Z</time>
      </trkpt>
      <trkpt lat="39.734256217899" lon="3.05941445475">
        <ele>100.2</ele>
        <time>2015-06-19T12:25:31Z</time>
      </trkpt>
      <trkpt lat="39.734215565684" lon="3.059427698152">
        <ele>100</ele>
        <time>2015-06-19T12:25:32Z</time>
      </trkpt>
      <trkpt lat="39.734133003969" lon="3.059446054513">
        <ele>100.2</ele>
        <time>2015-06-19T12:25:34Z</time>
      </trkpt>
      <trkpt lat="39.734012556066" lon="3.059476564629">
        <ele>100.4</ele>
        <time>2015-06-19T12:25:37Z</time>
      </trkpt>
      <trkpt lat="39.733716004444" lon="3.059565831864">
        <ele>101.4</ele>
        <time>2015-06-19T12:25:45Z</time>
      </trkpt>
      <trkpt lat="39.733610308685" lon="3.059633389978">
        <ele>101.8</ele>
        <time>2015-06-19T12:25:50Z</time>
      </trkpt>
      <trkpt lat="39.733453567155" lon="3.059677730229">
        <ele>101.6</ele>
        <time>2015-06-19T12:25:54Z</time>
      </trkpt>
      <trkpt lat="39.73322432219" lon="3.059753502605">
        <ele>102.2</ele>
        <time>2015-06-19T12:26:00Z</time>
      </trkpt>
      <trkpt lat="39.73306925704" lon="3.059778564486">
        <ele>102.4</ele>
        <time>2015-06-19T12:26:04Z</time>
      </trkpt>
      <trkpt lat="39.733005638419" lon="3.059783509807">
        <ele>102.6</ele>
        <time>2015-06-19T12:26:06Z</time>
      </trkpt>
      <trkpt lat="39.732935398097" lon="3.059788538947">
        <ele>102.4</ele>
        <time>2015-06-19T12:26:11Z</time>
      </trkpt>
      <trkpt lat="39.732889130009" lon="3.059788790404">
        <ele>102</ele>
        <time>2015-06-19T12:26:20Z</time>
      </trkpt>
      <trkpt lat="39.732865912146" lon="3.059778145391">
        <ele>102</ele>
        <time>2015-06-19T12:26:26Z</time>
      </trkpt>
      <trkpt lat="39.732852584925" lon="3.059772026604">
        <ele>102</ele>
        <time>2015-06-19T12:26:27Z</time>
      </trkpt>
      <trkpt lat="39.732806735932" lon="3.059707150698">
        <ele>102.2</ele>
        <time>2015-06-19T12:26:31Z</time>
      </trkpt>
      <trkpt lat="39.732715037946" lon="3.05959131284">
        <ele>102.6</ele>
        <time>2015-06-19T12:26:36Z</time>
      </trkpt>
      <trkpt lat="39.732693245006" lon="3.05955862343">
        <ele>102.8</ele>
        <time>2015-06-19T12:26:39Z</time>
      </trkpt>
      <trkpt lat="39.732717133421" lon="3.059538590689">
        <ele>102.8</ele>
        <time>2015-06-19T12:26:40Z</time>
      </trkpt>
      <trkpt lat="39.732719312715" lon="3.059466171073">
        <ele>102.6</ele>
        <time>2015-06-19T12:26:43Z</time>
      </trkpt>
      <trkpt lat="39.732767676278" lon="3.059344382066">
        <ele>102.6</ele>
        <time>2015-06-19T12:26:46Z</time>
      </trkpt>
      <trkpt lat="39.732789636856" lon="3.059299371263">
        <ele>102.6</ele>
        <time>2015-06-19T12:26:47Z</time>
      </trkpt>
      <trkpt lat="39.732902624868" lon="3.059054452145">
        <ele>102.4</ele>
        <time>2015-06-19T12:26:52Z</time>
      </trkpt>
      <trkpt lat="39.733001698926" lon="3.058878432245">
        <ele>101.6</ele>
        <time>2015-06-19T12:26:57Z</time>
      </trkpt>
      <trkpt lat="39.733019217097" lon="3.058839791686">
        <ele>101.4</ele>
        <time>2015-06-19T12:26:59Z</time>
      </trkpt>
      <trkpt lat="39.733027850454" lon="3.058839959324">
        <ele>101.2</ele>
        <time>2015-06-19T12:27:01Z</time>
      </trkpt>
      <trkpt lat="39.733038411648" lon="3.058827135017">
        <ele>100.8</ele>
        <time>2015-06-19T12:27:08Z</time>
      </trkpt>
      <trkpt lat="39.733033633965" lon="3.058808191923">
        <ele>101</ele>
        <time>2015-06-19T12:27:14Z</time>
      </trkpt>
      <trkpt lat="39.733039501295" lon="3.058828140845">
        <ele>100.8</ele>
        <time>2015-06-19T12:27:21Z</time>
      </trkpt>
      <trkpt lat="39.733041010037" lon="3.0588235308">
        <ele>100.8</ele>
        <time>2015-06-19T12:27:28Z</time>
      </trkpt>
      <trkpt lat="39.733029443015" lon="3.058828308483">
        <ele>101</ele>
        <time>2015-06-19T12:27:36Z</time>
      </trkpt>
      <trkpt lat="39.733033047232" lon="3.058861500807">
        <ele>101</ele>
        <time>2015-06-19T12:27:48Z</time>
      </trkpt>
      <trkpt lat="39.733054588715" lon="3.058850185242">
        <ele>100.8</ele>
        <time>2015-06-19T12:27:56Z</time>
      </trkpt>
      <trkpt lat="39.73304830229" lon="3.058835516917">
        <ele>100.8</ele>
        <time>2015-06-19T12:28:03Z</time>
      </trkpt>
      <trkpt lat="39.733039501295" lon="3.058820932411">
        <ele>100.8</ele>
        <time>2015-06-19T12:28:12Z</time>
      </trkpt>
      <trkpt lat="39.733018295088" lon="3.058805509715">
        <ele>100.8</ele>
        <time>2015-06-19T12:28:22Z</time>
      </trkpt>
      <trkpt lat="39.733005386962" lon="3.058822608791">
        <ele>100.8</ele>
        <time>2015-06-19T12:28:29Z</time>
      </trkpt>
      <trkpt lat="39.733005135505" lon="3.058844904645">
        <ele>100.8</ele>
        <time>2015-06-19T12:28:37Z</time>
      </trkpt>
      <trkpt lat="39.73301477469" lon="3.058845910473">
        <ele>100.8</ele>
        <time>2015-06-19T12:28:45Z</time>
      </trkpt>
      <trkpt lat="39.733116363318" lon="3.058786985716">
        <ele>101</ele>
        <time>2015-06-19T12:28:50Z</time>
      </trkpt>
      <trkpt lat="39.733120218992" lon="3.05876318112">
        <ele>100.8</ele>
        <time>2015-06-19T12:28:51Z</time>
      </trkpt>
      <trkpt lat="39.733165565071" lon="3.05874390275">
        <ele>100.8</ele>
        <time>2015-06-19T12:28:53Z</time>
      </trkpt>
      <trkpt lat="39.733342423161" lon="3.058686654373">
        <ele>100.4</ele>
        <time>2015-06-19T12:28:57Z</time>
      </trkpt>
      <trkpt lat="39.733415513329" lon="3.05866259832">
        <ele>100.4</ele>
        <time>2015-06-19T12:28:59Z</time>
      </trkpt>
      <trkpt lat="39.733464463625" lon="3.05864248176">
        <ele>100.2</ele>
        <time>2015-06-19T12:29:00Z</time>
      </trkpt>
      <trkpt lat="39.733521376726" lon="3.058612726015">
        <ele>100</ele>
        <time>2015-06-19T12:29:01Z</time>
      </trkpt>
      <trkpt lat="39.73361659511" lon="3.058564027176">
        <ele>99.6</ele>
        <time>2015-06-19T12:29:03Z</time>
      </trkpt>
      <trkpt lat="39.73376579293" lon="3.058501162926">
        <ele>99.2</ele>
        <time>2015-06-19T12:29:06Z</time>
      </trkpt>
      <trkpt lat="39.734015154455" lon="3.058438969228">
        <ele>98.2</ele>
        <time>2015-06-19T12:29:11Z</time>
      </trkpt>
      <trkpt lat="39.734057902145" lon="3.058419858496">
        <ele>98.2</ele>
        <time>2015-06-19T12:29:12Z</time>
      </trkpt>
      <trkpt lat="39.734277591744" lon="3.058343583206">
        <ele>97.2</ele>
        <time>2015-06-19T12:29:17Z</time>
      </trkpt>
      <trkpt lat="39.734311119344" lon="3.058319359515">
        <ele>97</ele>
        <time>2015-06-19T12:29:18Z</time>
      </trkpt>
      <trkpt lat="39.734457048223" lon="3.058211568281">
        <ele>96.2</ele>
        <time>2015-06-19T12:29:22Z</time>
      </trkpt>
      <trkpt lat="39.73460146836" lon="3.058080307727">
        <ele>95.8</ele>
        <time>2015-06-19T12:29:26Z</time>
      </trkpt>
      <trkpt lat="39.73467858184" lon="3.058019203676">
        <ele>95.6</ele>
        <time>2015-06-19T12:29:28Z</time>
      </trkpt>
      <trkpt lat="39.734809255661" lon="3.05792918207">
        <ele>95.2</ele>
        <time>2015-06-19T12:29:32Z</time>
      </trkpt>
      <trkpt lat="39.734901959475" lon="3.057873610073">
        <ele>94.8</ele>
        <time>2015-06-19T12:29:35Z</time>
      </trkpt>
      <trkpt lat="39.734970188141" lon="3.057851649495">
        <ele>94.6</ele>
        <time>2015-06-19T12:29:37Z</time>
      </trkpt>
      <trkpt lat="39.734997596954" lon="3.057818457171">
        <ele>94.4</ele>
        <time>2015-06-19T12:29:38Z</time>
      </trkpt>
      <trkpt lat="39.735050822019" lon="3.057759532414">
        <ele>94.4</ele>
        <time>2015-06-19T12:29:40Z</time>
      </trkpt>
      <trkpt lat="39.735136568856" lon="3.057716449448">
        <ele>94.2</ele>
        <time>2015-06-19T12:29:42Z</time>
      </trkpt>
      <trkpt lat="39.735240588235" lon="3.057673366482">
        <ele>94.2</ele>
        <time>2015-06-19T12:29:45Z</time>
      </trkpt>
      <trkpt lat="39.735295824956" lon="3.057668756437">
        <ele>94</ele>
        <time>2015-06-19T12:29:48Z</time>
      </trkpt>
      <trkpt lat="39.735352402781" lon="3.057750479962">
        <ele>93.8</ele>
        <time>2015-06-19T12:29:52Z</time>
      </trkpt>
      <trkpt lat="39.735492212873" lon="3.05787050877">
        <ele>93.8</ele>
        <time>2015-06-19T12:29:57Z</time>
      </trkpt>
      <trkpt lat="39.735602602496" lon="3.057986430447">
        <ele>94.6</ele>
        <time>2015-06-19T12:30:02Z</time>
      </trkpt>
      <trkpt lat="39.735652139525" lon="3.058024148997">
        <ele>94.8</ele>
        <time>2015-06-19T12:30:04Z</time>
      </trkpt>
      <trkpt lat="39.735672172266" lon="3.058042924453">
        <ele>95</ele>
        <time>2015-06-19T12:30:05Z</time>
      </trkpt>
      <trkpt lat="39.73573218667" lon="3.058208466978">
        <ele>95.4</ele>
        <time>2015-06-19T12:30:10Z</time>
      </trkpt>
      <trkpt lat="39.735770659591" lon="3.058258674559">
        <ele>95.4</ele>
        <time>2015-06-19T12:30:12Z</time>
      </trkpt>
      <trkpt lat="39.735849197994" lon="3.058299913507">
        <ele>95.4</ele>
        <time>2015-06-19T12:30:16Z</time>
      </trkpt>
      <trkpt lat="39.735877109721" lon="3.05829630929">
        <ele>95.4</ele>
        <time>2015-06-19T12:30:17Z</time>
      </trkpt>
      <trkpt lat="39.736004011687" lon="3.058348612346">
        <ele>95.4</ele>
        <time>2015-06-19T12:30:22Z</time>
      </trkpt>
      <trkpt lat="39.73602722955" lon="3.058364957051">
        <ele>95.4</ele>
        <time>2015-06-19T12:30:23Z</time>
      </trkpt>
      <trkpt lat="39.736184725451" lon="3.05848406385">
        <ele>95.6</ele>
        <time>2015-06-19T12:30:29Z</time>
      </trkpt>
      <trkpt lat="39.736292516685" lon="3.058589089057">
        <ele>96</ele>
        <time>2015-06-19T12:30:34Z</time>
      </trkpt>
      <trkpt lat="39.736306765915" lon="3.058605685219">
        <ele>96</ele>
        <time>2015-06-19T12:30:35Z</time>
      </trkpt>
      <trkpt lat="39.736326379561" lon="3.058634267498">
        <ele>96</ele>
        <time>2015-06-19T12:30:37Z</time>
      </trkpt>
      <trkpt lat="39.736374910762" lon="3.058657150085">
        <ele>96</ele>
        <time>2015-06-19T12:30:40Z</time>
      </trkpt>
      <trkpt lat="39.736451772785" lon="3.0586642747">
        <ele>96.2</ele>
        <time>2015-06-19T12:30:45Z</time>
      </trkpt>
      <trkpt lat="39.736519330899" lon="3.058620521182">
        <ele>96.2</ele>
        <time>2015-06-19T12:30:48Z</time>
      </trkpt>
      <trkpt lat="39.736542297305" lon="3.058595962215">
        <ele>96.2</ele>
        <time>2015-06-19T12:30:49Z</time>
      </trkpt>
      <trkpt lat="39.736654028032" lon="3.058452967001">
        <ele>96.2</ele>
        <time>2015-06-19T12:30:53Z</time>
      </trkpt>
      <trkpt lat="39.736830969941" lon="3.05822925409">
        <ele>95.6</ele>
        <time>2015-06-19T12:30:59Z</time>
      </trkpt>
      <trkpt lat="39.736899869159" lon="3.058131353498">
        <ele>95</ele>
        <time>2015-06-19T12:31:02Z</time>
      </trkpt>
      <trkpt lat="39.736939347908" lon="3.058056503131">
        <ele>94.6</ele>
        <time>2015-06-19T12:31:05Z</time>
      </trkpt>
      <trkpt lat="39.736941527202" lon="3.058019958047">
        <ele>94.6</ele>
        <time>2015-06-19T12:31:06Z</time>
      </trkpt>
      <trkpt lat="39.736984191073" lon="3.057940246178">
        <ele>94.4</ele>
        <time>2015-06-19T12:31:10Z</time>
      </trkpt>
      <trkpt lat="39.737049737531" lon="3.057938066884">
        <ele>94.4</ele>
        <time>2015-06-19T12:31:14Z</time>
      </trkpt>
      <trkpt lat="39.737076056697" lon="3.057936893418">
        <ele>94.4</ele>
        <time>2015-06-19T12:31:15Z</time>
      </trkpt>
      <trkpt lat="39.737169933977" lon="3.057963715498">
        <ele>94.6</ele>
        <time>2015-06-19T12:31:19Z</time>
      </trkpt>
      <trkpt lat="39.737176807135" lon="3.057984334972">
        <ele>94.8</ele>
        <time>2015-06-19T12:31:20Z</time>
      </trkpt>
      <trkpt lat="39.737236653901" lon="3.058154487542">
        <ele>95.2</ele>
        <time>2015-06-19T12:31:27Z</time>
      </trkpt>
      <trkpt lat="39.737321143453" lon="3.058368225992">
        <ele>95.8</ele>
        <time>2015-06-19T12:31:35Z</time>
      </trkpt>
      <trkpt lat="39.737341427651" lon="3.058474927579">
        <ele>96</ele>
        <time>2015-06-19T12:31:38Z</time>
      </trkpt>
      <trkpt lat="39.737330279724" lon="3.05854860448">
        <ele>96.2</ele>
        <time>2015-06-19T12:31:40Z</time>
      </trkpt>
      <trkpt lat="39.737329944448" lon="3.058736778135">
        <ele>96.8</ele>
        <time>2015-06-19T12:31:45Z</time>
      </trkpt>
      <trkpt lat="39.737300021065" lon="3.058852532174">
        <ele>97</ele>
        <time>2015-06-19T12:31:49Z</time>
      </trkpt>
      <trkpt lat="39.7372887055" lon="3.058871642906">
        <ele>97.2</ele>
        <time>2015-06-19T12:31:50Z</time>
      </trkpt>
      <trkpt lat="39.737182003913" lon="3.059004747478">
        <ele>97.8</ele>
        <time>2015-06-19T12:31:56Z</time>
      </trkpt>
      <trkpt lat="39.737104974252" lon="3.059067695547">
        <ele>98.2</ele>
        <time>2015-06-19T12:31:59Z</time>
      </trkpt>
      <trkpt lat="39.737042026183" lon="3.059126787942">
        <ele>98.4</ele>
        <time>2015-06-19T12:32:03Z</time>
      </trkpt>
      <trkpt lat="39.737041355631" lon="3.059137768231">
        <ele>98.4</ele>
        <time>2015-06-19T12:32:04Z</time>
      </trkpt>
      <trkpt lat="39.737043199649" lon="3.059187053803">
        <ele>98.4</ele>
        <time>2015-06-19T12:32:07Z</time>
      </trkpt>
      <trkpt lat="39.737049486074" lon="3.059218821204">
        <ele>98.4</ele>
        <time>2015-06-19T12:32:08Z</time>
      </trkpt>
      <trkpt lat="39.737111679772" lon="3.059357374011">
        <ele>98.6</ele>
        <time>2015-06-19T12:32:13Z</time>
      </trkpt>
      <trkpt lat="39.737200192636" lon="3.059476983724">
        <ele>99.2</ele>
        <time>2015-06-19T12:32:17Z</time>
      </trkpt>
      <trkpt lat="39.737222739947" lon="3.059511768609">
        <ele>99.2</ele>
        <time>2015-06-19T12:32:18Z</time>
      </trkpt>
      <trkpt lat="39.737372105405" lon="3.059705809594">
        <ele>99.8</ele>
        <time>2015-06-19T12:32:25Z</time>
      </trkpt>
      <trkpt lat="39.737401106779" lon="3.059735062425">
        <ele>100</ele>
        <time>2015-06-19T12:32:29Z</time>
      </trkpt>
      <trkpt lat="39.737406387376" lon="3.059750233664">
        <ele>100</ele>
        <time>2015-06-19T12:32:39Z</time>
      </trkpt>
      <trkpt lat="39.737395658544" lon="3.059768087111">
        <ele>99.8</ele>
        <time>2015-06-19T12:32:45Z</time>
      </trkpt>
      <trkpt lat="39.737407141747" lon="3.059781079056">
        <ele>99.8</ele>
        <time>2015-06-19T12:32:50Z</time>
      </trkpt>
      <trkpt lat="39.737412841439" lon="3.059789041861">
        <ele>99.8</ele>
        <time>2015-06-19T12:32:58Z</time>
      </trkpt>
      <trkpt lat="39.737426252479" lon="3.059778313029">
        <ele>100</ele>
        <time>2015-06-19T12:33:08Z</time>
      </trkpt>
      <trkpt lat="39.737431700714" lon="3.059751742406">
        <ele>99.8</ele>
        <time>2015-06-19T12:33:13Z</time>
      </trkpt>
      <trkpt lat="39.737423234995" lon="3.059764482894">
        <ele>100</ele>
        <time>2015-06-19T12:33:15Z</time>
      </trkpt>
      <trkpt lat="39.737418541131" lon="3.059787365481">
        <ele>100.2</ele>
        <time>2015-06-19T12:33:24Z</time>
      </trkpt>
      <trkpt lat="39.737423905547" lon="3.059800273607">
        <ele>100.2</ele>
        <time>2015-06-19T12:33:31Z</time>
      </trkpt>
      <trkpt lat="39.737421726253" lon="3.05981510957">
        <ele>100</ele>
        <time>2015-06-19T12:33:38Z</time>
      </trkpt>
      <trkpt lat="39.737417870579" lon="3.059854588319">
        <ele>100.2</ele>
        <time>2015-06-19T12:33:47Z</time>
      </trkpt>
      <trkpt lat="39.737418708769" lon="3.059892809783">
        <ele>100.2</ele>
        <time>2015-06-19T12:33:50Z</time>
      </trkpt>
      <trkpt lat="39.737417283846" lon="3.059897168371">
        <ele>100.2</ele>
        <time>2015-06-19T12:33:52Z</time>
      </trkpt>
      <trkpt lat="39.737421642434" lon="3.059887613005">
        <ele>100</ele>
        <time>2015-06-19T12:34:02Z</time>
      </trkpt>
      <trkpt lat="39.737486099245" lon="3.059926924116">
        <ele>99.8</ele>
        <time>2015-06-19T12:34:07Z</time>
      </trkpt>
      <trkpt lat="39.737647786096" lon="3.059962128096">
        <ele>99.6</ele>
        <time>2015-06-19T12:34:12Z</time>
      </trkpt>
      <trkpt lat="39.737691371976" lon="3.05995424911">
        <ele>99.2</ele>
        <time>2015-06-19T12:34:13Z</time>
      </trkpt>
      <trkpt lat="39.737849370791" lon="3.059936479482">
        <ele>98</ele>
        <time>2015-06-19T12:34:16Z</time>
      </trkpt>
      <trkpt lat="39.737965879201" lon="3.059934635464">
        <ele>97</ele>
        <time>2015-06-19T12:34:18Z</time>
      </trkpt>
      <trkpt lat="39.738142653472" lon="3.05992323608">
        <ele>95.4</ele>
        <time>2015-06-19T12:34:21Z</time>
      </trkpt>
      <trkpt lat="39.738190011207" lon="3.059926085926">
        <ele>95</ele>
        <time>2015-06-19T12:34:22Z</time>
      </trkpt>
      <trkpt lat="39.738287408885" lon="3.059923487537">
        <ele>94.2</ele>
        <time>2015-06-19T12:34:24Z</time>
      </trkpt>
      <trkpt lat="39.738415316679" lon="3.059935222197">
        <ele>93</ele>
        <time>2015-06-19T12:34:27Z</time>
      </trkpt>
      <trkpt lat="39.738449347193" lon="3.059948800875">
        <ele>93</ele>
        <time>2015-06-19T12:34:28Z</time>
      </trkpt>
      <trkpt lat="39.738477929472" lon="3.060059190498">
        <ele>92.4</ele>
        <time>2015-06-19T12:34:31Z</time>
      </trkpt>
      <trkpt lat="39.738415484317" lon="3.060098501609">
        <ele>91.8</ele>
        <time>2015-06-19T12:34:33Z</time>
      </trkpt>
      <trkpt lat="39.738372066075" lon="3.060089365338">
        <ele>91.6</ele>
        <time>2015-06-19T12:34:34Z</time>
      </trkpt>
      <trkpt lat="39.738272824379" lon="3.060065896018">
        <ele>90.6</ele>
        <time>2015-06-19T12:34:36Z</time>
      </trkpt>
      <trkpt lat="39.738124883844" lon="3.060028177468">
        <ele>89.6</ele>
        <time>2015-06-19T12:34:39Z</time>
      </trkpt>
      <trkpt lat="39.738082555249" lon="3.060022310138">
        <ele>89.2</ele>
        <time>2015-06-19T12:34:40Z</time>
      </trkpt>
      <trkpt lat="39.737974596377" lon="3.06009003589">
        <ele>88.2</ele>
        <time>2015-06-19T12:34:43Z</time>
      </trkpt>
      <trkpt lat="39.738006531416" lon="3.060217692227">
        <ele>88</ele>
        <time>2015-06-19T12:34:46Z</time>
      </trkpt>
      <trkpt lat="39.73815287939" lon="3.060273348043">
        <ele>88</ele>
        <time>2015-06-19T12:34:49Z</time>
      </trkpt>
      <trkpt lat="39.738347423289" lon="3.060319532312">
        <ele>87</ele>
        <time>2015-06-19T12:34:52Z</time>
      </trkpt>
      <trkpt lat="39.738423111846" lon="3.060335793198">
        <ele>86.6</ele>
        <time>2015-06-19T12:34:53Z</time>
      </trkpt>
      <trkpt lat="39.73849821367" lon="3.060353311369">
        <ele>86</ele>
        <time>2015-06-19T12:34:54Z</time>
      </trkpt>
      <trkpt lat="39.738654452286" lon="3.060394047403">
        <ele>84.6</ele>
        <time>2015-06-19T12:34:56Z</time>
      </trkpt>
      <trkpt lat="39.738806499952" lon="3.060437717102">
        <ele>83</ele>
        <time>2015-06-19T12:34:58Z</time>
      </trkpt>
      <trkpt lat="39.738951925917" lon="3.060479878059">
        <ele>81.6</ele>
        <time>2015-06-19T12:35:00Z</time>
      </trkpt>
      <trkpt lat="39.739024345533" lon="3.060504772302">
        <ele>81.2</ele>
        <time>2015-06-19T12:35:01Z</time>
      </trkpt>
      <trkpt lat="39.7390991959" lon="3.060536204427">
        <ele>80.4</ele>
        <time>2015-06-19T12:35:02Z</time>
      </trkpt>
      <trkpt lat="39.739245711512" lon="3.060617173581">
        <ele>79.2</ele>
        <time>2015-06-19T12:35:04Z</time>
      </trkpt>
      <trkpt lat="39.739394322599" lon="3.060701411676">
        <ele>78.4</ele>
        <time>2015-06-19T12:35:06Z</time>
      </trkpt>
      <trkpt lat="39.739463976188" lon="3.06073963314">
        <ele>77.8</ele>
        <time>2015-06-19T12:35:07Z</time>
      </trkpt>
      <trkpt lat="39.739589453231" lon="3.060796546241">
        <ele>76</ele>
        <time>2015-06-19T12:35:09Z</time>
      </trkpt>
      <trkpt lat="39.739705291089" lon="3.060831498764">
        <ele>74.8</ele>
        <time>2015-06-19T12:35:11Z</time>
      </trkpt>
      <trkpt lat="39.739873264365" lon="3.060871815703">
        <ele>74.4</ele>
        <time>2015-06-19T12:35:15Z</time>
      </trkpt>
      <trkpt lat="39.739971584052" lon="3.060856309188">
        <ele>74</ele>
        <time>2015-06-19T12:35:20Z</time>
      </trkpt>
      <trkpt lat="39.739975188269" lon="3.06085781793">
        <ele>73.8</ele>
        <time>2015-06-19T12:35:21Z</time>
      </trkpt>
      <trkpt lat="39.739973679527" lon="3.060853710799">
        <ele>73.2</ele>
        <time>2015-06-19T12:35:26Z</time>
      </trkpt>
      <trkpt lat="39.739998825227" lon="3.060921352732">
        <ele>73</ele>
        <time>2015-06-19T12:35:34Z</time>
      </trkpt>
      <trkpt lat="39.74002204309" lon="3.060935350505">
        <ele>73</ele>
        <time>2015-06-19T12:35:35Z</time>
      </trkpt>
      <trkpt lat="39.74014022788" lon="3.060984803715">
        <ele>72.6</ele>
        <time>2015-06-19T12:35:38Z</time>
      </trkpt>
      <trkpt lat="39.740347428448" lon="3.06106904181">
        <ele>71.4</ele>
        <time>2015-06-19T12:35:42Z</time>
      </trkpt>
      <trkpt lat="39.740398306581" lon="3.061084380687">
        <ele>71</ele>
        <time>2015-06-19T12:35:43Z</time>
      </trkpt>
      <trkpt lat="39.740495788078" lon="3.061128301843">
        <ele>70</ele>
        <time>2015-06-19T12:35:45Z</time>
      </trkpt>
      <trkpt lat="39.740537362302" lon="3.061168367325">
        <ele>69.8</ele>
        <time>2015-06-19T12:35:46Z</time>
      </trkpt>
      <trkpt lat="39.740567285685" lon="3.061230225747">
        <ele>69.6</ele>
        <time>2015-06-19T12:35:47Z</time>
      </trkpt>
      <trkpt lat="39.740592347566" lon="3.061377914825">
        <ele>69</ele>
        <time>2015-06-19T12:35:49Z</time>
      </trkpt>
      <trkpt lat="39.740598466353" lon="3.061453519563">
        <ele>68.8</ele>
        <time>2015-06-19T12:35:50Z</time>
      </trkpt>
      <trkpt lat="39.740603579312" lon="3.061539350219">
        <ele>68.6</ele>
        <time>2015-06-19T12:35:51Z</time>
      </trkpt>
      <trkpt lat="39.740609865737" lon="3.061701707622">
        <ele>68</ele>
        <time>2015-06-19T12:35:53Z</time>
      </trkpt>
      <trkpt lat="39.740610955384" lon="3.062129184522">
        <ele>66.8</ele>
        <time>2015-06-19T12:35:58Z</time>
      </trkpt>
      <trkpt lat="39.74060877609" lon="3.062398578788">
        <ele>65.8</ele>
        <time>2015-06-19T12:36:01Z</time>
      </trkpt>
      <trkpt lat="39.740589078625" lon="3.062578035267">
        <ele>65.6</ele>
        <time>2015-06-19T12:36:03Z</time>
      </trkpt>
      <trkpt lat="39.74054339727" lon="3.062740895584">
        <ele>65.4</ele>
        <time>2015-06-19T12:36:05Z</time>
      </trkpt>
      <trkpt lat="39.740349272466" lon="3.063305751825">
        <ele>65.4</ele>
        <time>2015-06-19T12:36:12Z</time>
      </trkpt>
      <trkpt lat="39.740090355575" lon="3.063872116808">
        <ele>65</ele>
        <time>2015-06-19T12:36:20Z</time>
      </trkpt>
      <trkpt lat="39.740056660337" lon="3.064043610482">
        <ele>64.8</ele>
        <time>2015-06-19T12:36:22Z</time>
      </trkpt>
      <trkpt lat="39.740060013097" lon="3.064217031993">
        <ele>64.6</ele>
        <time>2015-06-19T12:36:24Z</time>
      </trkpt>
      <trkpt lat="39.740080548752" lon="3.064405708562">
        <ele>64.2</ele>
        <time>2015-06-19T12:36:26Z</time>
      </trkpt>
      <trkpt lat="39.740118015845" lon="3.064581728462">
        <ele>63.6</ele>
        <time>2015-06-19T12:36:28Z</time>
      </trkpt>
      <trkpt lat="39.740140311699" lon="3.064669989869">
        <ele>63.4</ele>
        <time>2015-06-19T12:36:29Z</time>
      </trkpt>
      <trkpt lat="39.740351367941" lon="3.065376835496">
        <ele>63.4</ele>
        <time>2015-06-19T12:36:37Z</time>
      </trkpt>
      <trkpt lat="39.740480449201" lon="3.066064486572">
        <ele>64</ele>
        <time>2015-06-19T12:36:45Z</time>
      </trkpt>
      <trkpt lat="39.740541553252" lon="3.066762615023">
        <ele>64</ele>
        <time>2015-06-19T12:36:53Z</time>
      </trkpt>
      <trkpt lat="39.740545828021" lon="3.066844254729">
        <ele>64</ele>
        <time>2015-06-19T12:36:54Z</time>
      </trkpt>
      <trkpt lat="39.740571308997" lon="3.067010216349">
        <ele>63.8</ele>
        <time>2015-06-19T12:36:56Z</time>
      </trkpt>
      <trkpt lat="39.740642806604" lon="3.067137956505">
        <ele>63.6</ele>
        <time>2015-06-19T12:36:58Z</time>
      </trkpt>
      <trkpt lat="39.740787394379" lon="3.067287657239">
        <ele>63.6</ele>
        <time>2015-06-19T12:37:01Z</time>
      </trkpt>
      <trkpt lat="39.74086693861" lon="3.067394526464">
        <ele>63.6</ele>
        <time>2015-06-19T12:37:03Z</time>
      </trkpt>
      <trkpt lat="39.740924689901" lon="3.067502401517">
        <ele>63.4</ele>
        <time>2015-06-19T12:37:05Z</time>
      </trkpt>
      <trkpt lat="39.740996774241" lon="3.067721169107">
        <ele>63.6</ele>
        <time>2015-06-19T12:37:08Z</time>
      </trkpt>
      <trkpt lat="39.741025607977" lon="3.067857710258">
        <ele>63.4</ele>
        <time>2015-06-19T12:37:10Z</time>
      </trkpt>
      <trkpt lat="39.741107331502" lon="3.068144538876">
        <ele>63.8</ele>
        <time>2015-06-19T12:37:14Z</time>
      </trkpt>
      <trkpt lat="39.741191401959" lon="3.068423823784">
        <ele>64.6</ele>
        <time>2015-06-19T12:37:18Z</time>
      </trkpt>
      <trkpt lat="39.741343952539" lon="3.068837973463">
        <ele>65.4</ele>
        <time>2015-06-19T12:37:24Z</time>
      </trkpt>
      <trkpt lat="39.741501699897" lon="3.069365027335">
        <ele>65.6</ele>
        <time>2015-06-19T12:37:31Z</time>
      </trkpt>
      <trkpt lat="39.741546040148" lon="3.069793174787">
        <ele>66.2</ele>
        <time>2015-06-19T12:37:37Z</time>
      </trkpt>
      <trkpt lat="39.741552661849" lon="3.069954023448">
        <ele>66.8</ele>
        <time>2015-06-19T12:37:40Z</time>
      </trkpt>
      <trkpt lat="39.741553080944" lon="3.070106154933">
        <ele>67.6</ele>
        <time>2015-06-19T12:37:43Z</time>
      </trkpt>
      <trkpt lat="39.741550985469" lon="3.070153261211">
        <ele>68</ele>
        <time>2015-06-19T12:37:44Z</time>
      </trkpt>
      <trkpt lat="39.741475296912" lon="3.070344536169">
        <ele>69.2</ele>
        <time>2015-06-19T12:37:49Z</time>
      </trkpt>
      <trkpt lat="39.741301372487" lon="3.070420643821">
        <ele>69.8</ele>
        <time>2015-06-19T12:37:54Z</time>
      </trkpt>
      <trkpt lat="39.741184361163" lon="3.070451573032">
        <ele>70.2</ele>
        <time>2015-06-19T12:37:57Z</time>
      </trkpt>
      <trkpt lat="39.741075312644" lon="3.070477808379">
        <ele>71.6</ele>
        <time>2015-06-19T12:38:00Z</time>
      </trkpt>
      <trkpt lat="39.740972466731" lon="3.070532290729">
        <ele>73</ele>
        <time>2015-06-19T12:38:03Z</time>
      </trkpt>
      <trkpt lat="39.740898622192" lon="3.070684673671">
        <ele>74</ele>
        <time>2015-06-19T12:38:07Z</time>
      </trkpt>
      <trkpt lat="39.740955535293" lon="3.070848875092">
        <ele>74.6</ele>
        <time>2015-06-19T12:38:11Z</time>
      </trkpt>
      <trkpt lat="39.741021500846" lon="3.070895226999">
        <ele>75.2</ele>
        <time>2015-06-19T12:38:13Z</time>
      </trkpt>
      <trkpt lat="39.741080593241" lon="3.070934789567">
        <ele>75.8</ele>
        <time>2015-06-19T12:38:15Z</time>
      </trkpt>
      <trkpt lat="39.74114018855" lon="3.070968736262">
        <ele>76.4</ele>
        <time>2015-06-19T12:38:17Z</time>
      </trkpt>
      <trkpt lat="39.741258205702" lon="3.071046352656">
        <ele>77.6</ele>
        <time>2015-06-19T12:38:21Z</time>
      </trkpt>
      <trkpt lat="39.741316962821" lon="3.071087172509">
        <ele>78.2</ele>
        <time>2015-06-19T12:38:23Z</time>
      </trkpt>
      <trkpt lat="39.74141092392" lon="3.071153808614">
        <ele>78.8</ele>
        <time>2015-06-19T12:38:26Z</time>
      </trkpt>
      <trkpt lat="39.741613514443" lon="3.071312645619">
        <ele>79.8</ele>
        <time>2015-06-19T12:38:33Z</time>
      </trkpt>
      <trkpt lat="39.741693142493" lon="3.071377772982">
        <ele>80.8</ele>
        <time>2015-06-19T12:38:36Z</time>
      </trkpt>
      <trkpt lat="39.741796658958" lon="3.071455976109">
        <ele>82</ele>
        <time>2015-06-19T12:38:40Z</time>
      </trkpt>
      <trkpt lat="39.741883327804" lon="3.071520935834">
        <ele>82.6</ele>
        <time>2015-06-19T12:38:43Z</time>
      </trkpt>
      <trkpt lat="39.741968236451" lon="3.0715807826">
        <ele>83</ele>
        <time>2015-06-19T12:38:46Z</time>
      </trkpt>
      <trkpt lat="39.742046355759" lon="3.071613052915">
        <ele>83.4</ele>
        <time>2015-06-19T12:38:48Z</time>
      </trkpt>
      <trkpt lat="39.742392276772" lon="3.071770464997">
        <ele>83.8</ele>
        <time>2015-06-19T12:38:57Z</time>
      </trkpt>
      <trkpt lat="39.742691845878" lon="3.071928212355">
        <ele>83.4</ele>
        <time>2015-06-19T12:39:03Z</time>
      </trkpt>
      <trkpt lat="39.742970292596" lon="3.072093922518">
        <ele>82.2</ele>
        <time>2015-06-19T12:39:08Z</time>
      </trkpt>
      <trkpt lat="39.743023517661" lon="3.072136754027">
        <ele>81.8</ele>
        <time>2015-06-19T12:39:09Z</time>
      </trkpt>
      <trkpt lat="39.743137511501" lon="3.072245215813">
        <ele>80.8</ele>
        <time>2015-06-19T12:39:11Z</time>
      </trkpt>
      <trkpt lat="39.743192664403" lon="3.072303721475">
        <ele>80.4</ele>
        <time>2015-06-19T12:39:12Z</time>
      </trkpt>
      <trkpt lat="39.743294755945" lon="3.072445710861">
        <ele>79.4</ele>
        <time>2015-06-19T12:39:14Z</time>
      </trkpt>
      <trkpt lat="39.74333792273" lon="3.072522572884">
        <ele>79.2</ele>
        <time>2015-06-19T12:39:15Z</time>
      </trkpt>
      <trkpt lat="39.743468848008" lon="3.072790542227">
        <ele>78.2</ele>
        <time>2015-06-19T12:39:18Z</time>
      </trkpt>
      <trkpt lat="39.743513355897" lon="3.072880480014">
        <ele>77.6</ele>
        <time>2015-06-19T12:39:19Z</time>
      </trkpt>
      <trkpt lat="39.743601617304" lon="3.073066139099">
        <ele>76.6</ele>
        <time>2015-06-19T12:39:21Z</time>
      </trkpt>
      <trkpt lat="39.743868161724" lon="3.073625630924">
        <ele>75.6</ele>
        <time>2015-06-19T12:39:27Z</time>
      </trkpt>
      <trkpt lat="39.743910071224" lon="3.073708276458">
        <ele>75.2</ele>
        <time>2015-06-19T12:39:28Z</time>
      </trkpt>
      <trkpt lat="39.743984586315" lon="3.073857390459">
        <ele>74.2</ele>
        <time>2015-06-19T12:39:30Z</time>
      </trkpt>
      <trkpt lat="39.74404200233" lon="3.073979850018">
        <ele>73.6</ele>
        <time>2015-06-19T12:39:32Z</time>
      </trkpt>
      <trkpt lat="39.744094640662" lon="3.074158971221">
        <ele>74.4</ele>
        <time>2015-06-19T12:39:36Z</time>
      </trkpt>
      <trkpt lat="39.7440864264" lon="3.074211525734">
        <ele>74.6</ele>
        <time>2015-06-19T12:39:37Z</time>
      </trkpt>
      <trkpt lat="39.744039990674" lon="3.074318981692">
        <ele>74.4</ele>
        <time>2015-06-19T12:39:39Z</time>
      </trkpt>
      <trkpt lat="39.743932618535" lon="3.074503718768">
        <ele>73.6</ele>
        <time>2015-06-19T12:39:42Z</time>
      </trkpt>
      <trkpt lat="39.743858773996" lon="3.074641181928">
        <ele>73</ele>
        <time>2015-06-19T12:39:44Z</time>
      </trkpt>
      <trkpt lat="39.743737487903" lon="3.074863218459">
        <ele>71.8</ele>
        <time>2015-06-19T12:39:47Z</time>
      </trkpt>
      <trkpt lat="39.743563479659" lon="3.075157926063">
        <ele>71.6</ele>
        <time>2015-06-19T12:39:51Z</time>
      </trkpt>
      <trkpt lat="39.743359128937" lon="3.075500075221">
        <ele>70.8</ele>
        <time>2015-06-19T12:39:56Z</time>
      </trkpt>
      <trkpt lat="39.743218732112" lon="3.07575580699">
        <ele>69.8</ele>
        <time>2015-06-19T12:40:00Z</time>
      </trkpt>
      <trkpt lat="39.742905332871" lon="3.07630314506">
        <ele>70.6</ele>
        <time>2015-06-19T12:40:09Z</time>
      </trkpt>
      <trkpt lat="39.742870883262" lon="3.076363662378">
        <ele>70.8</ele>
        <time>2015-06-19T12:40:10Z</time>
      </trkpt>
      <trkpt lat="39.742749848626" lon="3.076622327812">
        <ele>71</ele>
        <time>2015-06-19T12:40:14Z</time>
      </trkpt>
      <trkpt lat="39.742753536662" lon="3.076693573962">
        <ele>71</ele>
        <time>2015-06-19T12:40:15Z</time>
      </trkpt>
      <trkpt lat="39.742874655117" lon="3.076868252758">
        <ele>71.2</ele>
        <time>2015-06-19T12:40:18Z</time>
      </trkpt>
      <trkpt lat="39.742989487147" lon="3.076960788934">
        <ele>71.2</ele>
        <time>2015-06-19T12:40:20Z</time>
      </trkpt>
      <trkpt lat="39.74324572183" lon="3.077168576235">
        <ele>69.6</ele>
        <time>2015-06-19T12:40:24Z</time>
      </trkpt>
      <trkpt lat="39.743450491647" lon="3.077335711321">
        <ele>68</ele>
        <time>2015-06-19T12:40:27Z</time>
      </trkpt>
      <trkpt lat="39.743728603089" lon="3.077567722313">
        <ele>66.8</ele>
        <time>2015-06-19T12:40:31Z</time>
      </trkpt>
      <trkpt lat="39.743800435972" lon="3.077628574907">
        <ele>66.2</ele>
        <time>2015-06-19T12:40:32Z</time>
      </trkpt>
      <trkpt lat="39.743875034882" lon="3.077688840768">
        <ele>65.6</ele>
        <time>2015-06-19T12:40:33Z</time>
      </trkpt>
      <trkpt lat="39.744017108087" lon="3.077807277015">
        <ele>64.2</ele>
        <time>2015-06-19T12:40:35Z</time>
      </trkpt>
      <trkpt lat="39.744170413038" lon="3.07793510099">
        <ele>62.8</ele>
        <time>2015-06-19T12:40:37Z</time>
      </trkpt>
      <trkpt lat="39.744380379633" lon="3.078109025415">
        <ele>61.8</ele>
        <time>2015-06-19T12:40:40Z</time>
      </trkpt>
      <trkpt lat="39.74446109733" lon="3.078178595185">
        <ele>61.4</ele>
        <time>2015-06-19T12:40:41Z</time>
      </trkpt>
      <trkpt lat="39.744753290364" lon="3.078412617833">
        <ele>60.8</ele>
        <time>2015-06-19T12:40:45Z</time>
      </trkpt>
      <trkpt lat="39.745077753713" lon="3.078643706816">
        <ele>59.6</ele>
        <time>2015-06-19T12:40:49Z</time>
      </trkpt>
      <trkpt lat="39.745237093632" lon="3.07875485081">
        <ele>58.4</ele>
        <time>2015-06-19T12:40:51Z</time>
      </trkpt>
      <trkpt lat="39.745482683302" lon="3.078924249009">
        <ele>57.4</ele>
        <time>2015-06-19T12:40:54Z</time>
      </trkpt>
      <trkpt lat="39.745743276573" lon="3.079102615841">
        <ele>56.2</ele>
        <time>2015-06-19T12:40:57Z</time>
      </trkpt>
      <trkpt lat="39.745823910451" lon="3.07915718201">
        <ele>55.8</ele>
        <time>2015-06-19T12:40:58Z</time>
      </trkpt>
      <trkpt lat="39.746089197586" lon="3.079332698996">
        <ele>55</ele>
        <time>2015-06-19T12:41:01Z</time>
      </trkpt>
      <trkpt lat="39.746343085337" lon="3.079503438299">
        <ele>53.6</ele>
        <time>2015-06-19T12:41:04Z</time>
      </trkpt>
      <trkpt lat="39.746518769961" lon="3.079621623089">
        <ele>52.2</ele>
        <time>2015-06-19T12:41:06Z</time>
      </trkpt>
      <trkpt lat="39.746600074391" lon="3.07967602162">
        <ele>51.6</ele>
        <time>2015-06-19T12:41:07Z</time>
      </trkpt>
      <trkpt lat="39.746752457333" lon="3.079779202809">
        <ele>51.2</ele>
        <time>2015-06-19T12:41:09Z</time>
      </trkpt>
      <trkpt lat="39.747132744136" lon="3.080009788878">
        <ele>52.2</ele>
        <time>2015-06-19T12:41:14Z</time>
      </trkpt>
      <trkpt lat="39.747203738829" lon="3.080049351446">
        <ele>52.2</ele>
        <time>2015-06-19T12:41:15Z</time>
      </trkpt>
      <trkpt lat="39.747715537643" lon="3.080328720173">
        <ele>51.8</ele>
        <time>2015-06-19T12:41:22Z</time>
      </trkpt>
      <trkpt lat="39.747870602793" lon="3.080408432042">
        <ele>51.4</ele>
        <time>2015-06-19T12:41:24Z</time>
      </trkpt>
      <trkpt lat="39.748172015917" lon="3.080549164143">
        <ele>54.4</ele>
        <time>2015-06-19T12:41:28Z</time>
      </trkpt>
      <trkpt lat="39.748252063062" lon="3.080587804702">
        <ele>55.6</ele>
        <time>2015-06-19T12:41:29Z</time>
      </trkpt>
      <trkpt lat="39.748324482678" lon="3.08062233813">
        <ele>56.8</ele>
        <time>2015-06-19T12:41:30Z</time>
      </trkpt>
      <trkpt lat="39.748554482014" lon="3.080738595083">
        <ele>57</ele>
        <time>2015-06-19T12:41:33Z</time>
      </trkpt>
      <trkpt lat="39.749073992176" lon="3.081003295485">
        <ele>55.8</ele>
        <time>2015-06-19T12:41:40Z</time>
      </trkpt>
      <trkpt lat="39.749237774502" lon="3.08109088634">
        <ele>55.8</ele>
        <time>2015-06-19T12:41:42Z</time>
      </trkpt>
      <trkpt lat="39.749311116127" lon="3.081132963478">
        <ele>55.4</ele>
        <time>2015-06-19T12:41:43Z</time>
      </trkpt>
      <trkpt lat="39.74960339298" lon="3.081319544572">
        <ele>54.6</ele>
        <time>2015-06-19T12:41:47Z</time>
      </trkpt>
      <trkpt lat="39.749890640693" lon="3.081497827585">
        <ele>54</ele>
        <time>2015-06-19T12:41:51Z</time>
      </trkpt>
      <trkpt lat="39.750439319867" lon="3.081853471602">
        <ele>53.8</ele>
        <time>2015-06-19T12:41:59Z</time>
      </trkpt>
      <trkpt lat="39.750499585728" lon="3.081893788541">
        <ele>54</ele>
        <time>2015-06-19T12:42:00Z</time>
      </trkpt>
      <trkpt lat="39.750950531948" lon="3.082156142011">
        <ele>53.8</ele>
        <time>2015-06-19T12:42:07Z</time>
      </trkpt>
      <trkpt lat="39.751225458268" lon="3.082299137225">
        <ele>53.4</ele>
        <time>2015-06-19T12:42:11Z</time>
      </trkpt>
      <trkpt lat="39.751505749004" lon="3.082448167407">
        <ele>53.2</ele>
        <time>2015-06-19T12:42:15Z</time>
      </trkpt>
      <trkpt lat="39.75195954507" lon="3.082683195883">
        <ele>52.4</ele>
        <time>2015-06-19T12:42:21Z</time>
      </trkpt>
      <trkpt lat="39.752186443103" lon="3.082799704293">
        <ele>51.6</ele>
        <time>2015-06-19T12:42:24Z</time>
      </trkpt>
      <trkpt lat="39.752340670063" lon="3.082881846913">
        <ele>51.2</ele>
        <time>2015-06-19T12:42:26Z</time>
      </trkpt>
      <trkpt lat="39.752720034857" lon="3.083091394413">
        <ele>50</ele>
        <time>2015-06-19T12:42:31Z</time>
      </trkpt>
      <trkpt lat="39.752819025096" lon="3.083144368021">
        <ele>49.6</ele>
        <time>2015-06-19T12:42:32Z</time>
      </trkpt>
      <trkpt lat="39.753056065228" lon="3.083272946367">
        <ele>48.8</ele>
        <time>2015-06-19T12:42:35Z</time>
      </trkpt>
      <trkpt lat="39.753429143597" lon="3.083491378681">
        <ele>47.6</ele>
        <time>2015-06-19T12:42:40Z</time>
      </trkpt>
      <trkpt lat="39.753509609837" lon="3.083542340633">
        <ele>47.4</ele>
        <time>2015-06-19T12:42:41Z</time>
      </trkpt>
      <trkpt lat="39.75406172559" lon="3.083894212795">
        <ele>46.8</ele>
        <time>2015-06-19T12:42:49Z</time>
      </trkpt>
      <trkpt lat="39.754196171266" lon="3.083971996827">
        <ele>46.4</ele>
        <time>2015-06-19T12:42:51Z</time>
      </trkpt>
      <trkpt lat="39.754389374061" lon="3.084099401707">
        <ele>45.8</ele>
        <time>2015-06-19T12:42:54Z</time>
      </trkpt>
      <trkpt lat="39.754495488915" lon="3.084214233737">
        <ele>45.6</ele>
        <time>2015-06-19T12:42:56Z</time>
      </trkpt>
      <trkpt lat="39.754593389507" lon="3.084328898129">
        <ele>45.2</ele>
        <time>2015-06-19T12:42:58Z</time>
      </trkpt>
      <trkpt lat="39.754975185052" lon="3.084758554323">
        <ele>45.6</ele>
        <time>2015-06-19T12:43:05Z</time>
      </trkpt>
      <trkpt lat="39.755406349988" lon="3.085260127219">
        <ele>45.6</ele>
        <time>2015-06-19T12:43:13Z</time>
      </trkpt>
      <trkpt lat="39.755817817459" lon="3.085735129492">
        <ele>45.6</ele>
        <time>2015-06-19T12:43:21Z</time>
      </trkpt>
      <trkpt lat="39.755924351408" lon="3.085851386445">
        <ele>45.4</ele>
        <time>2015-06-19T12:43:23Z</time>
      </trkpt>
      <trkpt lat="39.756348224091" lon="3.086337285188">
        <ele>44.4</ele>
        <time>2015-06-19T12:43:31Z</time>
      </trkpt>
      <trkpt lat="39.756456015325" lon="3.086459660928">
        <ele>44.6</ele>
        <time>2015-06-19T12:43:33Z</time>
      </trkpt>
      <trkpt lat="39.756714345483" lon="3.086754368532">
        <ele>44.2</ele>
        <time>2015-06-19T12:43:38Z</time>
      </trkpt>
      <trkpt lat="39.75701215439" lon="3.087109258178">
        <ele>43</ele>
        <time>2015-06-19T12:43:44Z</time>
      </trkpt>
      <trkpt lat="39.757376012669" lon="3.087522569667">
        <ele>42</ele>
        <time>2015-06-19T12:43:52Z</time>
      </trkpt>
      <trkpt lat="39.757710953393" lon="3.087910986913">
        <ele>41.4</ele>
        <time>2015-06-19T12:43:59Z</time>
      </trkpt>
      <trkpt lat="39.758069028161" lon="3.088317257606">
        <ele>40.8</ele>
        <time>2015-06-19T12:44:06Z</time>
      </trkpt>
      <trkpt lat="39.758269187933" lon="3.088539713232">
        <ele>40</ele>
        <time>2015-06-19T12:44:10Z</time>
      </trkpt>
      <trkpt lat="39.758480914727" lon="3.088780860495">
        <ele>39.6</ele>
        <time>2015-06-19T12:44:14Z</time>
      </trkpt>
      <trkpt lat="39.758852232897" lon="3.089196770373">
        <ele>38.8</ele>
        <time>2015-06-19T12:44:21Z</time>
      </trkpt>
      <trkpt lat="39.758901267012" lon="3.089250079257">
        <ele>38.4</ele>
        <time>2015-06-19T12:44:22Z</time>
      </trkpt>
      <trkpt lat="39.759231010958" lon="3.089640340521">
        <ele>38</ele>
        <time>2015-06-19T12:44:29Z</time>
      </trkpt>
      <trkpt lat="39.759480875397" lon="3.0899203798">
        <ele>37.2</ele>
        <time>2015-06-19T12:44:35Z</time>
      </trkpt>
      <trkpt lat="39.759527227304" lon="3.089972599037">
        <ele>37.2</ele>
        <time>2015-06-19T12:44:36Z</time>
      </trkpt>
      <trkpt lat="39.759872645403" lon="3.090391777856">
        <ele>36.4</ele>
        <time>2015-06-19T12:44:44Z</time>
      </trkpt>
      <trkpt lat="39.759996781342" lon="3.090534186337">
        <ele>36.2</ele>
        <time>2015-06-19T12:44:47Z</time>
      </trkpt>
      <trkpt lat="39.760185793187" lon="3.09076611351">
        <ele>36</ele>
        <time>2015-06-19T12:44:52Z</time>
      </trkpt>
      <trkpt lat="39.760508999251" lon="3.091154279299">
        <ele>35.6</ele>
        <time>2015-06-19T12:44:59Z</time>
      </trkpt>
      <trkpt lat="39.76084435907" lon="3.091566249684">
        <ele>35.2</ele>
        <time>2015-06-19T12:45:06Z</time>
      </trkpt>
      <trkpt lat="39.761029096146" lon="3.091787112749">
        <ele>34.6</ele>
        <time>2015-06-19T12:45:10Z</time>
      </trkpt>
      <trkpt lat="39.76146042872" lon="3.092279633193">
        <ele>34.4</ele>
        <time>2015-06-19T12:45:19Z</time>
      </trkpt>
      <trkpt lat="39.761558245493" lon="3.092391783015">
        <ele>34</ele>
        <time>2015-06-19T12:45:21Z</time>
      </trkpt>
      <trkpt lat="39.761973065724" lon="3.092868545487">
        <ele>33.6</ele>
        <time>2015-06-19T12:45:29Z</time>
      </trkpt>
      <trkpt lat="39.76207649837" lon="3.092987568467">
        <ele>33.4</ele>
        <time>2015-06-19T12:45:31Z</time>
      </trkpt>
      <trkpt lat="39.762508669134" lon="3.093476903789">
        <ele>32.8</ele>
        <time>2015-06-19T12:45:39Z</time>
      </trkpt>
      <trkpt lat="39.762552255014" lon="3.093529877397">
        <ele>33</ele>
        <time>2015-06-19T12:45:40Z</time>
      </trkpt>
      <trkpt lat="39.762977804077" lon="3.094036144157">
        <ele>33</ele>
        <time>2015-06-19T12:45:49Z</time>
      </trkpt>
      <trkpt lat="39.76338826572" lon="3.094526904402">
        <ele>32.2</ele>
        <time>2015-06-19T12:45:58Z</time>
      </trkpt>
      <trkpt lat="39.763436713102" lon="3.094586332073">
        <ele>32</ele>
        <time>2015-06-19T12:45:59Z</time>
      </trkpt>
      <trkpt lat="39.763480885715" lon="3.094638802767">
        <ele>31.6</ele>
        <time>2015-06-19T12:46:00Z</time>
      </trkpt>
      <trkpt lat="39.763896376498" lon="3.09514649445">
        <ele>31</ele>
        <time>2015-06-19T12:46:09Z</time>
      </trkpt>
      <trkpt lat="39.763978938213" lon="3.095251854933">
        <ele>30.6</ele>
        <time>2015-06-19T12:46:11Z</time>
      </trkpt>
      <trkpt lat="39.764173733569" lon="3.095496690232">
        <ele>30.6</ele>
        <time>2015-06-19T12:46:16Z</time>
      </trkpt>
      <trkpt lat="39.764308849797" lon="3.095620993809">
        <ele>30.8</ele>
        <time>2015-06-19T12:46:19Z</time>
      </trkpt>
      <trkpt lat="39.764419658515" lon="3.095654186133">
        <ele>30.6</ele>
        <time>2015-06-19T12:46:21Z</time>
      </trkpt>
      <trkpt lat="39.76453490964" lon="3.095672207218">
        <ele>30.6</ele>
        <time>2015-06-19T12:46:23Z</time>
      </trkpt>
      <trkpt lat="39.764749151004" lon="3.095701292411">
        <ele>30.4</ele>
        <time>2015-06-19T12:46:27Z</time>
      </trkpt>
      <trkpt lat="39.76478552845" lon="3.095712775614">
        <ele>30.4</ele>
        <time>2015-06-19T12:46:28Z</time>
      </trkpt>
      <trkpt lat="39.764872951667" lon="3.095788715628">
        <ele>30</ele>
        <time>2015-06-19T12:46:31Z</time>
      </trkpt>
      <trkpt lat="39.76491628609" lon="3.095867002574">
        <ele>30</ele>
        <time>2015-06-19T12:46:33Z</time>
      </trkpt>
      <trkpt lat="39.764994908312" lon="3.095942104398">
        <ele>30.4</ele>
        <time>2015-06-19T12:46:36Z</time>
      </trkpt>
      <trkpt lat="39.765041595495" lon="3.095993401626">
        <ele>30.4</ele>
        <time>2015-06-19T12:46:40Z</time>
      </trkpt>
      <trkpt lat="39.765040170572" lon="3.095991809065">
        <ele>29.4</ele>
        <time>2015-06-19T12:46:45Z</time>
      </trkpt>
      <trkpt lat="39.765038997106" lon="3.095990803237">
        <ele>29.2</ele>
        <time>2015-06-19T12:46:48Z</time>
      </trkpt>
      <trkpt lat="39.765039416201" lon="3.095987701934">
        <ele>28.6</ele>
        <time>2015-06-19T12:47:16Z</time>
      </trkpt>
      <trkpt lat="39.765061712055" lon="3.095991976703">
        <ele>28.8</ele>
        <time>2015-06-19T12:47:31Z</time>
      </trkpt>
      <trkpt lat="39.765075961285" lon="3.096009913969">
        <ele>28.8</ele>
        <time>2015-06-19T12:47:32Z</time>
      </trkpt>
      <trkpt lat="39.765122564649" lon="3.09611795666">
        <ele>29.2</ele>
        <time>2015-06-19T12:47:35Z</time>
      </trkpt>
      <trkpt lat="39.765141507743" lon="3.096171852277">
        <ele>29.4</ele>
        <time>2015-06-19T12:47:36Z</time>
      </trkpt>
      <trkpt lat="39.765227925132" lon="3.096409730599">
        <ele>30</ele>
        <time>2015-06-19T12:47:40Z</time>
      </trkpt>
      <trkpt lat="39.765356754935" lon="3.096752382671">
        <ele>30.4</ele>
        <time>2015-06-19T12:47:45Z</time>
      </trkpt>
      <trkpt lat="39.765462366875" lon="3.09703577471">
        <ele>30.6</ele>
        <time>2015-06-19T12:47:49Z</time>
      </trkpt>
      <trkpt lat="39.765492876991" lon="3.097186313634">
        <ele>30.6</ele>
        <time>2015-06-19T12:47:51Z</time>
      </trkpt>
      <trkpt lat="39.765511065714" lon="3.097409104536">
        <ele>30.8</ele>
        <time>2015-06-19T12:47:54Z</time>
      </trkpt>
      <trkpt lat="39.765575438706" lon="3.098176216024">
        <ele>30.6</ele>
        <time>2015-06-19T12:48:04Z</time>
      </trkpt>
      <trkpt lat="39.765588933565" lon="3.09833999835">
        <ele>30.4</ele>
        <time>2015-06-19T12:48:06Z</time>
      </trkpt>
      <trkpt lat="39.765584491158" lon="3.098977693302">
        <ele>30.2</ele>
        <time>2015-06-19T12:48:14Z</time>
      </trkpt>
      <trkpt lat="39.765524895849" lon="3.099701721824">
        <ele>30.4</ele>
        <time>2015-06-19T12:48:23Z</time>
      </trkpt>
      <trkpt lat="39.765501258891" lon="3.099850081454">
        <ele>30.4</ele>
        <time>2015-06-19T12:48:25Z</time>
      </trkpt>
      <trkpt lat="39.765341080782" lon="3.100475957927">
        <ele>29.8</ele>
        <time>2015-06-19T12:48:33Z</time>
      </trkpt>
      <trkpt lat="39.765142178295" lon="3.101161513528">
        <ele>30.2</ele>
        <time>2015-06-19T12:48:42Z</time>
      </trkpt>
      <trkpt lat="39.764967331861" lon="3.101889397724">
        <ele>30</ele>
        <time>2015-06-19T12:48:51Z</time>
      </trkpt>
      <trkpt lat="39.764797514567" lon="3.102584257234">
        <ele>30.8</ele>
        <time>2015-06-19T12:49:00Z</time>
      </trkpt>
      <trkpt lat="39.764778236197" lon="3.102660197248">
        <ele>30.6</ele>
        <time>2015-06-19T12:49:01Z</time>
      </trkpt>
      <trkpt lat="39.764618477183" lon="3.103329491963">
        <ele>30.2</ele>
        <time>2015-06-19T12:49:10Z</time>
      </trkpt>
      <trkpt lat="39.764564749204" lon="3.103552366684">
        <ele>30.4</ele>
        <time>2015-06-19T12:49:13Z</time>
      </trkpt>
      <trkpt lat="39.764386969105" lon="3.104254183171">
        <ele>29.8</ele>
        <time>2015-06-19T12:49:23Z</time>
      </trkpt>
      <trkpt lat="39.764359560292" lon="3.104320400181">
        <ele>29.6</ele>
        <time>2015-06-19T12:49:24Z</time>
      </trkpt>
      <trkpt lat="39.764330894194" lon="3.104380330766">
        <ele>29.4</ele>
        <time>2015-06-19T12:49:25Z</time>
      </trkpt>
      <trkpt lat="39.764133751906" lon="3.104751648936">
        <ele>29.6</ele>
        <time>2015-06-19T12:49:31Z</time>
      </trkpt>
      <trkpt lat="39.763817838095" lon="3.105333688072">
        <ele>29.4</ele>
        <time>2015-06-19T12:49:40Z</time>
      </trkpt>
      <trkpt lat="39.76377718588" lon="3.105412394113">
        <ele>29.2</ele>
        <time>2015-06-19T12:49:41Z</time>
      </trkpt>
      <trkpt lat="39.763438305663" lon="3.106041371889">
        <ele>30</ele>
        <time>2015-06-19T12:49:50Z</time>
      </trkpt>
      <trkpt lat="39.763362617106" lon="3.106183025999">
        <ele>29.8</ele>
        <time>2015-06-19T12:49:52Z</time>
      </trkpt>
      <trkpt lat="39.763031029142" lon="3.106797167812">
        <ele>29.6</ele>
        <time>2015-06-19T12:50:01Z</time>
      </trkpt>
      <trkpt lat="39.76295324511" lon="3.106935804438">
        <ele>29.6</ele>
        <time>2015-06-19T12:50:03Z</time>
      </trkpt>
      <trkpt lat="39.762612017961" lon="3.107580037272">
        <ele>28.6</ele>
        <time>2015-06-19T12:50:12Z</time>
      </trkpt>
      <trkpt lat="39.762574802325" lon="3.107654552363">
        <ele>28.6</ele>
        <time>2015-06-19T12:50:13Z</time>
      </trkpt>
      <trkpt lat="39.762271377545" lon="3.108238100241">
        <ele>28.6</ele>
        <time>2015-06-19T12:50:21Z</time>
      </trkpt>
      <trkpt lat="39.762195940445" lon="3.108380592541">
        <ele>28.4</ele>
        <time>2015-06-19T12:50:23Z</time>
      </trkpt>
      <trkpt lat="39.762159311542" lon="3.108454185623">
        <ele>28.2</ele>
        <time>2015-06-19T12:50:24Z</time>
      </trkpt>
      <trkpt lat="39.761851109079" lon="3.109028010497">
        <ele>28.2</ele>
        <time>2015-06-19T12:50:32Z</time>
      </trkpt>
      <trkpt lat="39.761512815595" lon="3.109660927766">
        <ele>28.2</ele>
        <time>2015-06-19T12:50:41Z</time>
      </trkpt>
      <trkpt lat="39.761475767597" lon="3.109729575527">
        <ele>28.2</ele>
        <time>2015-06-19T12:50:42Z</time>
      </trkpt>
      <trkpt lat="39.761155998112" lon="3.110331060671">
        <ele>28.8</ele>
        <time>2015-06-19T12:50:51Z</time>
      </trkpt>
      <trkpt lat="39.761083746134" lon="3.110466595994">
        <ele>28.4</ele>
        <time>2015-06-19T12:50:53Z</time>
      </trkpt>
      <trkpt lat="39.760752325808" lon="3.111076463038">
        <ele>28.6</ele>
        <time>2015-06-19T12:51:02Z</time>
      </trkpt>
      <trkpt lat="39.760426772812" lon="3.111678032001">
        <ele>28.8</ele>
        <time>2015-06-19T12:51:11Z</time>
      </trkpt>
      <trkpt lat="39.760287633272" lon="3.111944073507">
        <ele>28.6</ele>
        <time>2015-06-19T12:51:15Z</time>
      </trkpt>
      <trkpt lat="39.76019224725" lon="3.112152196084">
        <ele>29.2</ele>
        <time>2015-06-19T12:51:18Z</time>
      </trkpt>
      <trkpt lat="39.760145476248" lon="3.112285300656">
        <ele>29.8</ele>
        <time>2015-06-19T12:51:20Z</time>
      </trkpt>
      <trkpt lat="39.760125862602" lon="3.112360234842">
        <ele>30</ele>
        <time>2015-06-19T12:51:21Z</time>
      </trkpt>
      <trkpt lat="39.760106584232" lon="3.112578834794">
        <ele>30</ele>
        <time>2015-06-19T12:51:24Z</time>
      </trkpt>
      <trkpt lat="39.760101974187" lon="3.112727194424">
        <ele>29.8</ele>
        <time>2015-06-19T12:51:26Z</time>
      </trkpt>
      <trkpt lat="39.760088898423" lon="3.113485002003">
        <ele>29.6</ele>
        <time>2015-06-19T12:51:36Z</time>
      </trkpt>
      <trkpt lat="39.760083953102" lon="3.114135102167">
        <ele>29.8</ele>
        <time>2015-06-19T12:51:45Z</time>
      </trkpt>
      <trkpt lat="39.760074397736" lon="3.114648242085">
        <ele>29.8</ele>
        <time>2015-06-19T12:51:53Z</time>
      </trkpt>
      <trkpt lat="39.760071883166" lon="3.114880588353">
        <ele>30.2</ele>
        <time>2015-06-19T12:51:57Z</time>
      </trkpt>
      <trkpt lat="39.760068446587" lon="3.115173619577">
        <ele>31</ele>
        <time>2015-06-19T12:52:02Z</time>
      </trkpt>
      <trkpt lat="39.760067776035" lon="3.11523204142">
        <ele>31.4</ele>
        <time>2015-06-19T12:52:03Z</time>
      </trkpt>
      <trkpt lat="39.760053862081" lon="3.115870826019">
        <ele>31.8</ele>
        <time>2015-06-19T12:52:14Z</time>
      </trkpt>
      <trkpt lat="39.760044222896" lon="3.116348678138">
        <ele>32.4</ele>
        <time>2015-06-19T12:52:23Z</time>
      </trkpt>
      <trkpt lat="39.760043384706" lon="3.116398885719">
        <ele>32.4</ele>
        <time>2015-06-19T12:52:24Z</time>
      </trkpt>
      <trkpt lat="39.760040199584" lon="3.116757128125">
        <ele>33</ele>
        <time>2015-06-19T12:52:31Z</time>
      </trkpt>
      <trkpt lat="39.760030644218" lon="3.117047644779">
        <ele>33.6</ele>
        <time>2015-06-19T12:52:37Z</time>
      </trkpt>
      <trkpt lat="39.760027040001" lon="3.117186784319">
        <ele>34</ele>
        <time>2015-06-19T12:52:40Z</time>
      </trkpt>
      <trkpt lat="39.760019328653" lon="3.117492388393">
        <ele>34.6</ele>
        <time>2015-06-19T12:52:46Z</time>
      </trkpt>
      <trkpt lat="39.760009857106" lon="3.117773517319">
        <ele>35.2</ele>
        <time>2015-06-19T12:52:51Z</time>
      </trkpt>
      <trkpt lat="39.759999379731" lon="3.118388581141">
        <ele>35.2</ele>
        <time>2015-06-19T12:53:02Z</time>
      </trkpt>
      <trkpt lat="39.759991752202" lon="3.118942457093">
        <ele>35.6</ele>
        <time>2015-06-19T12:53:12Z</time>
      </trkpt>
      <trkpt lat="39.75998940527" lon="3.119050415965">
        <ele>35.8</ele>
        <time>2015-06-19T12:53:14Z</time>
      </trkpt>
      <trkpt lat="39.759988483261" lon="3.119246468606">
        <ele>36.2</ele>
        <time>2015-06-19T12:53:18Z</time>
      </trkpt>
      <trkpt lat="39.759980855732" lon="3.119586354651">
        <ele>36.8</ele>
        <time>2015-06-19T12:53:25Z</time>
      </trkpt>
      <trkpt lat="39.759977335334" lon="3.119731780616">
        <ele>37.6</ele>
        <time>2015-06-19T12:53:28Z</time>
      </trkpt>
      <trkpt lat="39.759976413325" lon="3.119780563274">
        <ele>38</ele>
        <time>2015-06-19T12:53:29Z</time>
      </trkpt>
      <trkpt lat="39.759974401669" lon="3.119924396678">
        <ele>39.2</ele>
        <time>2015-06-19T12:53:32Z</time>
      </trkpt>
      <trkpt lat="39.759989321451" lon="3.120194880591">
        <ele>39.8</ele>
        <time>2015-06-19T12:53:38Z</time>
      </trkpt>
      <trkpt lat="39.760001307568" lon="3.120280543609">
        <ele>40.2</ele>
        <time>2015-06-19T12:53:40Z</time>
      </trkpt>
      <trkpt lat="39.760078504867" lon="3.120555050834">
        <ele>40.4</ele>
        <time>2015-06-19T12:53:46Z</time>
      </trkpt>
      <trkpt lat="39.760180344952" lon="3.120757725176">
        <ele>41.4</ele>
        <time>2015-06-19T12:53:51Z</time>
      </trkpt>
      <trkpt lat="39.760252261654" lon="3.120870713188">
        <ele>41.6</ele>
        <time>2015-06-19T12:53:54Z</time>
      </trkpt>
      <trkpt lat="39.760448565752" lon="3.121232559811">
        <ele>42.2</ele>
        <time>2015-06-19T12:54:03Z</time>
      </trkpt>
      <trkpt lat="39.76046298262" lon="3.121273882578">
        <ele>42.6</ele>
        <time>2015-06-19T12:54:04Z</time>
      </trkpt>
      <trkpt lat="39.760513944572" lon="3.121464319346">
        <ele>43.6</ele>
        <time>2015-06-19T12:54:08Z</time>
      </trkpt>
      <trkpt lat="39.760530456915" lon="3.121613600985">
        <ele>43.8</ele>
        <time>2015-06-19T12:54:11Z</time>
      </trkpt>
      <trkpt lat="39.760592231518" lon="3.121989780657">
        <ele>44.2</ele>
        <time>2015-06-19T12:54:18Z</time>
      </trkpt>
      <trkpt lat="39.760684432418" lon="3.122400493757">
        <ele>44.6</ele>
        <time>2015-06-19T12:54:24Z</time>
      </trkpt>
      <trkpt lat="39.760847879468" lon="3.12294255123">
        <ele>43.4</ele>
        <time>2015-06-19T12:54:31Z</time>
      </trkpt>
      <trkpt lat="39.76098182223" lon="3.123367597379">
        <ele>42.6</ele>
        <time>2015-06-19T12:54:36Z</time>
      </trkpt>
      <trkpt lat="39.761097660088" lon="3.123705723225">
        <ele>41.8</ele>
        <time>2015-06-19T12:54:40Z</time>
      </trkpt>
      <trkpt lat="39.761131187688" lon="3.123806976577">
        <ele>41.6</ele>
        <time>2015-06-19T12:54:41Z</time>
      </trkpt>
      <trkpt lat="39.761245516804" lon="3.124191370511">
        <ele>40.4</ele>
        <time>2015-06-19T12:54:45Z</time>
      </trkpt>
      <trkpt lat="39.761306872312" lon="3.124382477831">
        <ele>39.4</ele>
        <time>2015-06-19T12:54:47Z</time>
      </trkpt>
      <trkpt lat="39.761483562764" lon="3.124947836986">
        <ele>38.2</ele>
        <time>2015-06-19T12:54:53Z</time>
      </trkpt>
      <trkpt lat="39.761639633742" lon="3.125544544447">
        <ele>37.2</ele>
        <time>2015-06-19T12:55:00Z</time>
      </trkpt>
      <trkpt lat="39.761659498845" lon="3.125735484129">
        <ele>37</ele>
        <time>2015-06-19T12:55:02Z</time>
      </trkpt>
      <trkpt lat="39.761693696997" lon="3.126212078963">
        <ele>37.2</ele>
        <time>2015-06-19T12:55:07Z</time>
      </trkpt>
      <trkpt lat="39.761795956177" lon="3.126680208078">
        <ele>36.4</ele>
        <time>2015-06-19T12:55:12Z</time>
      </trkpt>
      <trkpt lat="39.761836524573" lon="3.126761596327">
        <ele>36</ele>
        <time>2015-06-19T12:55:13Z</time>
      </trkpt>
      <trkpt lat="39.761980441796" lon="3.126983800496">
        <ele>35</ele>
        <time>2015-06-19T12:55:16Z</time>
      </trkpt>
      <trkpt lat="39.762040623838" lon="3.12706309327">
        <ele>35</ele>
        <time>2015-06-19T12:55:17Z</time>
      </trkpt>
      <trkpt lat="39.762278921255" lon="3.127344054558">
        <ele>34</ele>
        <time>2015-06-19T12:55:21Z</time>
      </trkpt>
      <trkpt lat="39.762406493773" lon="3.127484619021">
        <ele>33.8</ele>
        <time>2015-06-19T12:55:23Z</time>
      </trkpt>
      <trkpt lat="39.762833551578" lon="3.127976217456">
        <ele>34.2</ele>
        <time>2015-06-19T12:55:30Z</time>
      </trkpt>
      <trkpt lat="39.763075034117" lon="3.128407214754">
        <ele>33.8</ele>
        <time>2015-06-19T12:55:35Z</time>
      </trkpt>
      <trkpt lat="39.763366891875" lon="3.129018674359">
        <ele>33</ele>
        <time>2015-06-19T12:55:42Z</time>
      </trkpt>
      <trkpt lat="39.763405280977" lon="3.129101319893">
        <ele>32.8</ele>
        <time>2015-06-19T12:55:43Z</time>
      </trkpt>
      <trkpt lat="39.763477532955" lon="3.129255463034">
        <ele>32.8</ele>
        <time>2015-06-19T12:55:45Z</time>
      </trkpt>
      <trkpt lat="39.763794536413" lon="3.129905144103">
        <ele>32.8</ele>
        <time>2015-06-19T12:55:54Z</time>
      </trkpt>
      <trkpt lat="39.764073402226" lon="3.130392216312">
        <ele>32.6</ele>
        <time>2015-06-19T12:56:02Z</time>
      </trkpt>
      <trkpt lat="39.764427118406" lon="3.130827153103">
        <ele>32.6</ele>
        <time>2015-06-19T12:56:10Z</time>
      </trkpt>
      <trkpt lat="39.764774883437" lon="3.131221856774">
        <ele>33.8</ele>
        <time>2015-06-19T12:56:18Z</time>
      </trkpt>
      <trkpt lat="39.765054335983" lon="3.131542715906">
        <ele>34.2</ele>
        <time>2015-06-19T12:56:24Z</time>
      </trkpt>
      <trkpt lat="39.765296069979" lon="3.131825269755">
        <ele>33.4</ele>
        <time>2015-06-19T12:56:29Z</time>
      </trkpt>
      <trkpt lat="39.765616845292" lon="3.132195665916">
        <ele>33.4</ele>
        <time>2015-06-19T12:56:35Z</time>
      </trkpt>
      <trkpt lat="39.766046250029" lon="3.132724815263">
        <ele>33.4</ele>
        <time>2015-06-19T12:56:43Z</time>
      </trkpt>
      <trkpt lat="39.766462914278" lon="3.133256814456">
        <ele>33.2</ele>
        <time>2015-06-19T12:56:51Z</time>
      </trkpt>
      <trkpt lat="39.766599706886" lon="3.133454208201">
        <ele>33</ele>
        <time>2015-06-19T12:56:54Z</time>
      </trkpt>
      <trkpt lat="39.766644885327" lon="3.133512713863">
        <ele>33</ele>
        <time>2015-06-19T12:56:55Z</time>
      </trkpt>
      <trkpt lat="39.766745635765" lon="3.133641627485">
        <ele>32.8</ele>
        <time>2015-06-19T12:56:57Z</time>
      </trkpt>
      <trkpt lat="39.766962475518" lon="3.133913368683">
        <ele>32.4</ele>
        <time>2015-06-19T12:57:01Z</time>
      </trkpt>
      <trkpt lat="39.767190547017" lon="3.134200700215">
        <ele>31.4</ele>
        <time>2015-06-19T12:57:05Z</time>
      </trkpt>
      <trkpt lat="39.767374026808" lon="3.134434806682">
        <ele>30.4</ele>
        <time>2015-06-19T12:57:08Z</time>
      </trkpt>
      <trkpt lat="39.767487936829" lon="3.134581489932">
        <ele>29.8</ele>
        <time>2015-06-19T12:57:10Z</time>
      </trkpt>
      <trkpt lat="39.767866044338" lon="3.135073339824">
        <ele>29.8</ele>
        <time>2015-06-19T12:57:17Z</time>
      </trkpt>
      <trkpt lat="39.768283798234" lon="3.135610871071">
        <ele>29.8</ele>
        <time>2015-06-19T12:57:24Z</time>
      </trkpt>
      <trkpt lat="39.768337107118" lon="3.135680357022">
        <ele>29.6</ele>
        <time>2015-06-19T12:57:25Z</time>
      </trkpt>
      <trkpt lat="39.768724769993" lon="3.136178158063">
        <ele>29.8</ele>
        <time>2015-06-19T12:57:32Z</time>
      </trkpt>
      <trkpt lat="39.768834656702" lon="3.136321237096">
        <ele>30</ele>
        <time>2015-06-19T12:57:34Z</time>
      </trkpt>
      <trkpt lat="39.769197425334" lon="3.136793221885">
        <ele>29.2</ele>
        <time>2015-06-19T12:57:41Z</time>
      </trkpt>
      <trkpt lat="39.769536305551" lon="3.137232433445">
        <ele>29.8</ele>
        <time>2015-06-19T12:57:48Z</time>
      </trkpt>
      <trkpt lat="39.769652981599" lon="3.137391354269">
        <ele>30.6</ele>
        <time>2015-06-19T12:57:51Z</time>
      </trkpt>
      <trkpt lat="39.76976772981" lon="3.137561171563">
        <ele>31.4</ele>
        <time>2015-06-19T12:57:54Z</time>
      </trkpt>
      <trkpt lat="39.769799916306" lon="3.137617246474">
        <ele>31.8</ele>
        <time>2015-06-19T12:57:55Z</time>
      </trkpt>
      <trkpt lat="39.769950539049" lon="3.137927628231">
        <ele>32.6</ele>
        <time>2015-06-19T12:58:00Z</time>
      </trkpt>
      <trkpt lat="39.770042739949" lon="3.138140779948">
        <ele>32.8</ele>
        <time>2015-06-19T12:58:03Z</time>
      </trkpt>
      <trkpt lat="39.770129408795" lon="3.138356530054">
        <ele>32.2</ele>
        <time>2015-06-19T12:58:06Z</time>
      </trkpt>
      <trkpt lat="39.77019017757" lon="3.138501788381">
        <ele>31.4</ele>
        <time>2015-06-19T12:58:08Z</time>
      </trkpt>
      <trkpt lat="39.770284557764" lon="3.138695242633">
        <ele>31.2</ele>
        <time>2015-06-19T12:58:11Z</time>
      </trkpt>
      <trkpt lat="39.770350774774" lon="3.138832454336">
        <ele>31.4</ele>
        <time>2015-06-19T12:58:13Z</time>
      </trkpt>
      <trkpt lat="39.770432498299" lon="3.139062956586">
        <ele>31.4</ele>
        <time>2015-06-19T12:58:16Z</time>
      </trkpt>
      <trkpt lat="39.77054473194" lon="3.139545921664">
        <ele>30.4</ele>
        <time>2015-06-19T12:58:22Z</time>
      </trkpt>
      <trkpt lat="39.770616900099" lon="3.140039699393">
        <ele>30.6</ele>
        <time>2015-06-19T12:58:28Z</time>
      </trkpt>
      <trkpt lat="39.770678926159" lon="3.140392242107">
        <ele>29.8</ele>
        <time>2015-06-19T12:58:32Z</time>
      </trkpt>
      <trkpt lat="39.77068135691" lon="3.140487711948">
        <ele>29.6</ele>
        <time>2015-06-19T12:58:33Z</time>
      </trkpt>
      <trkpt lat="39.7706821951" lon="3.140578823201">
        <ele>29.2</ele>
        <time>2015-06-19T12:58:34Z</time>
      </trkpt>
      <trkpt lat="39.770664341653" lon="3.140662642201">
        <ele>29.2</ele>
        <time>2015-06-19T12:58:35Z</time>
      </trkpt>
      <trkpt lat="39.7706570494" lon="3.140856431729">
        <ele>29</ele>
        <time>2015-06-19T12:58:37Z</time>
      </trkpt>
      <trkpt lat="39.770782358805" lon="3.141085341418">
        <ele>28.4</ele>
        <time>2015-06-19T12:58:40Z</time>
      </trkpt>
      <trkpt lat="39.770847569987" lon="3.141141416329">
        <ele>28.2</ele>
        <time>2015-06-19T12:58:41Z</time>
      </trkpt>
      <trkpt lat="39.770914625187" lon="3.14120168219">
        <ele>27.8</ele>
        <time>2015-06-19T12:58:42Z</time>
      </trkpt>
      <trkpt lat="39.770971705926" lon="3.141270665227">
        <ele>27.6</ele>
        <time>2015-06-19T12:58:43Z</time>
      </trkpt>
      <trkpt lat="39.771020404765" lon="3.141350963829">
        <ele>27.4</ele>
        <time>2015-06-19T12:58:44Z</time>
      </trkpt>
      <trkpt lat="39.771139511564" lon="3.141613987851">
        <ele>27</ele>
        <time>2015-06-19T12:58:47Z</time>
      </trkpt>
      <trkpt lat="39.771181253426" lon="3.141707362217">
        <ele>26.8</ele>
        <time>2015-06-19T12:58:48Z</time>
      </trkpt>
      <trkpt lat="39.771277812914" lon="3.14201724106">
        <ele>26.2</ele>
        <time>2015-06-19T12:58:52Z</time>
      </trkpt>
      <trkpt lat="39.771285272805" lon="3.142171551839">
        <ele>26</ele>
        <time>2015-06-19T12:58:54Z</time>
      </trkpt>
      <trkpt lat="39.771311340514" lon="3.142320162926">
        <ele>25.8</ele>
        <time>2015-06-19T12:58:56Z</time>
      </trkpt>
      <trkpt lat="39.771461041248" lon="3.142436000784">
        <ele>25.4</ele>
        <time>2015-06-19T12:58:59Z</time>
      </trkpt>
      <trkpt lat="39.771618788606" lon="3.142331143215">
        <ele>25</ele>
        <time>2015-06-19T12:59:02Z</time>
      </trkpt>
      <trkpt lat="39.771636977329" lon="3.142254113554">
        <ele>25</ele>
        <time>2015-06-19T12:59:03Z</time>
      </trkpt>
      <trkpt lat="39.771673690051" lon="3.14210357463">
        <ele>25</ele>
        <time>2015-06-19T12:59:05Z</time>
      </trkpt>
      <trkpt lat="39.771715431913" lon="3.142029310996">
        <ele>25</ele>
        <time>2015-06-19T12:59:06Z</time>
      </trkpt>
      <trkpt lat="39.771826827364" lon="3.141926045988">
        <ele>25.2</ele>
        <time>2015-06-19T12:59:08Z</time>
      </trkpt>
      <trkpt lat="39.772226476356" lon="3.141520529666">
        <ele>25.6</ele>
        <time>2015-06-19T12:59:15Z</time>
      </trkpt>
      <trkpt lat="39.772569966618" lon="3.141181230354">
        <ele>25.4</ele>
        <time>2015-06-19T12:59:21Z</time>
      </trkpt>
      <trkpt lat="39.77272821689" lon="3.141014598182">
        <ele>26.2</ele>
        <time>2015-06-19T12:59:24Z</time>
      </trkpt>
      <trkpt lat="39.772994342215" lon="3.140731876695">
        <ele>25.8</ele>
        <time>2015-06-19T12:59:29Z</time>
      </trkpt>
      <trkpt lat="39.773355434467" lon="3.140277410077">
        <ele>25.2</ele>
        <time>2015-06-19T12:59:36Z</time>
      </trkpt>
      <trkpt lat="39.773510331979" lon="3.140083201454">
        <ele>25.2</ele>
        <time>2015-06-19T12:59:39Z</time>
      </trkpt>
      <trkpt lat="39.773864634892" lon="3.139615910529">
        <ele>25.2</ele>
        <time>2015-06-19T12:59:46Z</time>
      </trkpt>
      <trkpt lat="39.774271995232" lon="3.139084162793">
        <ele>25.4</ele>
        <time>2015-06-19T12:59:54Z</time>
      </trkpt>
      <trkpt lat="39.774675248441" lon="3.138558785301">
        <ele>25.4</ele>
        <time>2015-06-19T13:00:02Z</time>
      </trkpt>
      <trkpt lat="39.774729646972" lon="3.138489886083">
        <ele>25.4</ele>
        <time>2015-06-19T13:00:03Z</time>
      </trkpt>
      <trkpt lat="39.775102557703" lon="3.138005496082">
        <ele>25.2</ele>
        <time>2015-06-19T13:00:10Z</time>
      </trkpt>
      <trkpt lat="39.775528190585" lon="3.137449357017">
        <ele>25.4</ele>
        <time>2015-06-19T13:00:18Z</time>
      </trkpt>
      <trkpt lat="39.77591082432" lon="3.13694619156">
        <ele>25.6</ele>
        <time>2015-06-19T13:00:25Z</time>
      </trkpt>
      <trkpt lat="39.776019034649" lon="3.136807303477">
        <ele>25.4</ele>
        <time>2015-06-19T13:00:27Z</time>
      </trkpt>
      <trkpt lat="39.776292787503" lon="3.136434644203">
        <ele>25</ele>
        <time>2015-06-19T13:00:33Z</time>
      </trkpt>
      <trkpt lat="39.776581292501" lon="3.136054944133">
        <ele>25.2</ele>
        <time>2015-06-19T13:00:39Z</time>
      </trkpt>
      <trkpt lat="39.776836018442" lon="3.135719332857">
        <ele>25.4</ele>
        <time>2015-06-19T13:00:44Z</time>
      </trkpt>
      <trkpt lat="39.777213958313" lon="3.135203846007">
        <ele>25.6</ele>
        <time>2015-06-19T13:00:51Z</time>
      </trkpt>
      <trkpt lat="39.77726701574" lon="3.135131091115">
        <ele>25.6</ele>
        <time>2015-06-19T13:00:52Z</time>
      </trkpt>
      <trkpt lat="39.777590137985" lon="3.13470403331">
        <ele>25.6</ele>
        <time>2015-06-19T13:00:58Z</time>
      </trkpt>
      <trkpt lat="39.777920468664" lon="3.134273538926">
        <ele>25.8</ele>
        <time>2015-06-19T13:01:04Z</time>
      </trkpt>
      <trkpt lat="39.778274017206" lon="3.133833489176">
        <ele>25.6</ele>
        <time>2015-06-19T13:01:11Z</time>
      </trkpt>
      <trkpt lat="39.77855615196" lon="3.13353643464">
        <ele>25.6</ele>
        <time>2015-06-19T13:01:17Z</time>
      </trkpt>
      <trkpt lat="39.778874580341" lon="3.133176934949">
        <ele>25.6</ele>
        <time>2015-06-19T13:01:24Z</time>
      </trkpt>
      <trkpt lat="39.779195104197" lon="3.132829086099">
        <ele>26.2</ele>
        <time>2015-06-19T13:01:30Z</time>
      </trkpt>
      <trkpt lat="39.779251430565" lon="3.132773849378">
        <ele>26</ele>
        <time>2015-06-19T13:01:31Z</time>
      </trkpt>
      <trkpt lat="39.779712518884" lon="3.132282334762">
        <ele>25.8</ele>
        <time>2015-06-19T13:01:39Z</time>
      </trkpt>
      <trkpt lat="39.779771192184" lon="3.132231456629">
        <ele>25.8</ele>
        <time>2015-06-19T13:01:40Z</time>
      </trkpt>
      <trkpt lat="39.780181067094" lon="3.131813199819">
        <ele>25.8</ele>
        <time>2015-06-19T13:01:47Z</time>
      </trkpt>
      <trkpt lat="39.780598150438" lon="3.131384130358">
        <ele>25.8</ele>
        <time>2015-06-19T13:01:54Z</time>
      </trkpt>
      <trkpt lat="39.78102043056" lon="3.130967214652">
        <ele>26</ele>
        <time>2015-06-19T13:02:01Z</time>
      </trkpt>
      <trkpt lat="39.781462072871" lon="3.130536887906">
        <ele>25.8</ele>
        <time>2015-06-19T13:02:08Z</time>
      </trkpt>
      <trkpt lat="39.781524601845" lon="3.13047452657">
        <ele>25.8</ele>
        <time>2015-06-19T13:02:09Z</time>
      </trkpt>
      <trkpt lat="39.782004297982" lon="3.130011342776">
        <ele>25.6</ele>
        <time>2015-06-19T13:02:17Z</time>
      </trkpt>
      <trkpt lat="39.782377124894" lon="3.129673803663">
        <ele>25.6</ele>
        <time>2015-06-19T13:02:23Z</time>
      </trkpt>
      <trkpt lat="39.782446024112" lon="3.129621584426">
        <ele>25.2</ele>
        <time>2015-06-19T13:02:24Z</time>
      </trkpt>
      <trkpt lat="39.782956900917" lon="3.129266527142">
        <ele>25.6</ele>
        <time>2015-06-19T13:02:32Z</time>
      </trkpt>
      <trkpt lat="39.78332964401" lon="3.128997971066">
        <ele>25.8</ele>
        <time>2015-06-19T13:02:38Z</time>
      </trkpt>
      <trkpt lat="39.783831803639" lon="3.128652050053">
        <ele>25.6</ele>
        <time>2015-06-19T13:02:46Z</time>
      </trkpt>
      <trkpt lat="39.783895506079" lon="3.128605027594">
        <ele>25.6</ele>
        <time>2015-06-19T13:02:47Z</time>
      </trkpt>
      <trkpt lat="39.784391127826" lon="3.128248126292">
        <ele>25.6</ele>
        <time>2015-06-19T13:02:55Z</time>
      </trkpt>
      <trkpt lat="39.784452567153" lon="3.128201858204">
        <ele>25.6</ele>
        <time>2015-06-19T13:02:56Z</time>
      </trkpt>
      <trkpt lat="39.784866130099" lon="3.127902289098">
        <ele>26.2</ele>
        <time>2015-06-19T13:03:03Z</time>
      </trkpt>
      <trkpt lat="39.784927820883" lon="3.127863732358">
        <ele>26.2</ele>
        <time>2015-06-19T13:03:04Z</time>
      </trkpt>
      <trkpt lat="39.785415982739" lon="3.127526193245">
        <ele>26.2</ele>
        <time>2015-06-19T13:03:12Z</time>
      </trkpt>
      <trkpt lat="39.785480104274" lon="3.127483529374">
        <ele>26</ele>
        <time>2015-06-19T13:03:13Z</time>
      </trkpt>
      <trkpt lat="39.785845136019" lon="3.12720810014">
        <ele>25.8</ele>
        <time>2015-06-19T13:03:19Z</time>
      </trkpt>
      <trkpt lat="39.786195583258" lon="3.126955553493">
        <ele>26.2</ele>
        <time>2015-06-19T13:03:25Z</time>
      </trkpt>
      <trkpt lat="39.78669497686" lon="3.126575685785">
        <ele>26.2</ele>
        <time>2015-06-19T13:03:33Z</time>
      </trkpt>
      <trkpt lat="39.787191772073" lon="3.126186178892">
        <ele>26.2</ele>
        <time>2015-06-19T13:03:41Z</time>
      </trkpt>
      <trkpt lat="39.78738564542" lon="3.126041172022">
        <ele>26</ele>
        <time>2015-06-19T13:03:44Z</time>
      </trkpt>
      <trkpt lat="39.78782820974" lon="3.125698184674">
        <ele>26.4</ele>
        <time>2015-06-19T13:03:51Z</time>
      </trkpt>
      <trkpt lat="39.788306397135" lon="3.12533306911">
        <ele>26.2</ele>
        <time>2015-06-19T13:03:59Z</time>
      </trkpt>
      <trkpt lat="39.7887032801" lon="3.125018244946">
        <ele>26.2</ele>
        <time>2015-06-19T13:04:06Z</time>
      </trkpt>
      <trkpt lat="39.789107455318" lon="3.124703253144">
        <ele>26</ele>
        <time>2015-06-19T13:04:13Z</time>
      </trkpt>
      <trkpt lat="39.789504422102" lon="3.124383818935">
        <ele>26.4</ele>
        <time>2015-06-19T13:04:20Z</time>
      </trkpt>
      <trkpt lat="39.789978670004" lon="3.124033455515">
        <ele>26.6</ele>
        <time>2015-06-19T13:04:28Z</time>
      </trkpt>
      <trkpt lat="39.790388209638" lon="3.123710920003">
        <ele>26.8</ele>
        <time>2015-06-19T13:04:34Z</time>
      </trkpt>
      <trkpt lat="39.790857931314" lon="3.123340942937">
        <ele>27</ele>
        <time>2015-06-19T13:04:41Z</time>
      </trkpt>
      <trkpt lat="39.791383979358" lon="3.122947664189">
        <ele>27</ele>
        <time>2015-06-19T13:04:49Z</time>
      </trkpt>
      <trkpt lat="39.791737611719" lon="3.122739122517">
        <ele>26.2</ele>
        <time>2015-06-19T13:04:55Z</time>
      </trkpt>
      <trkpt lat="39.791929976324" lon="3.122756556869">
        <ele>26.2</ele>
        <time>2015-06-19T13:04:58Z</time>
      </trkpt>
      <trkpt lat="39.792028044554" lon="3.122667457272">
        <ele>26.6</ele>
        <time>2015-06-19T13:05:00Z</time>
      </trkpt>
      <trkpt lat="39.792097865781" lon="3.122533765967">
        <ele>26.4</ele>
        <time>2015-06-19T13:05:02Z</time>
      </trkpt>
      <trkpt lat="39.792143463317" lon="3.122482468739">
        <ele>26.2</ele>
        <time>2015-06-19T13:05:03Z</time>
      </trkpt>
      <trkpt lat="39.79220188516" lon="3.122440810696">
        <ele>26</ele>
        <time>2015-06-19T13:05:04Z</time>
      </trkpt>
      <trkpt lat="39.792551745666" lon="3.122219277079">
        <ele>26.4</ele>
        <time>2015-06-19T13:05:10Z</time>
      </trkpt>
      <trkpt lat="39.793062790109" lon="3.121913756824">
        <ele>26.4</ele>
        <time>2015-06-19T13:05:18Z</time>
      </trkpt>
      <trkpt lat="39.793509964474" lon="3.121647882956">
        <ele>26</ele>
        <time>2015-06-19T13:05:25Z</time>
      </trkpt>
      <trkpt lat="39.7939000581" lon="3.121415117593">
        <ele>26</ele>
        <time>2015-06-19T13:05:31Z</time>
      </trkpt>
      <trkpt lat="39.794438092261" lon="3.121093839366">
        <ele>25.8</ele>
        <time>2015-06-19T13:05:39Z</time>
      </trkpt>
      <trkpt lat="39.794498944855" lon="3.121057964834">
        <ele>25.8</ele>
        <time>2015-06-19T13:05:40Z</time>
      </trkpt>
      <trkpt lat="39.795046953477" lon="3.120806424015">
        <ele>26</ele>
        <time>2015-06-19T13:05:48Z</time>
      </trkpt>
      <trkpt lat="39.795606696759" lon="3.12061908855">
        <ele>26</ele>
        <time>2015-06-19T13:05:56Z</time>
      </trkpt>
      <trkpt lat="39.795994527272" lon="3.120497634819">
        <ele>25.4</ele>
        <time>2015-06-19T13:06:02Z</time>
      </trkpt>
      <trkpt lat="39.796122435066" lon="3.120458575165">
        <ele>25.2</ele>
        <time>2015-06-19T13:06:04Z</time>
      </trkpt>
      <trkpt lat="39.796513869796" lon="3.120336367063">
        <ele>25.6</ele>
        <time>2015-06-19T13:06:10Z</time>
      </trkpt>
      <trkpt lat="39.79705919621" lon="3.120158167869">
        <ele>25.2</ele>
        <time>2015-06-19T13:06:18Z</time>
      </trkpt>
      <trkpt lat="39.797128933618" lon="3.120134866187">
        <ele>25.4</ele>
        <time>2015-06-19T13:06:19Z</time>
      </trkpt>
      <trkpt lat="39.797705356881" lon="3.119953649509">
        <ele>25.8</ele>
        <time>2015-06-19T13:06:27Z</time>
      </trkpt>
      <trkpt lat="39.797844999335" lon="3.119910315086">
        <ele>26</ele>
        <time>2015-06-19T13:06:29Z</time>
      </trkpt>
      <trkpt lat="39.798399210563" lon="3.119735887747">
        <ele>25.6</ele>
        <time>2015-06-19T13:06:37Z</time>
      </trkpt>
      <trkpt lat="39.798461907175" lon="3.119714430083">
        <ele>25.6</ele>
        <time>2015-06-19T13:06:38Z</time>
      </trkpt>
      <trkpt lat="39.798932215584" lon="3.119561795684">
        <ele>26</ele>
        <time>2015-06-19T13:06:46Z</time>
      </trkpt>
      <trkpt lat="39.799089962942" lon="3.119552156499">
        <ele>26</ele>
        <time>2015-06-19T13:06:49Z</time>
      </trkpt>
      <trkpt lat="39.799197083624" lon="3.11954452897">
        <ele>25.8</ele>
        <time>2015-06-19T13:06:51Z</time>
      </trkpt>
      <trkpt lat="39.799341671399" lon="3.119429780759">
        <ele>25.6</ele>
        <time>2015-06-19T13:06:54Z</time>
      </trkpt>
      <trkpt lat="39.799520205869" lon="3.119388541811">
        <ele>25.8</ele>
        <time>2015-06-19T13:06:57Z</time>
      </trkpt>
      <trkpt lat="39.799630511673" lon="3.119348476329">
        <ele>26.4</ele>
        <time>2015-06-19T13:06:59Z</time>
      </trkpt>
      <trkpt lat="39.799860846285" lon="3.119266166071">
        <ele>27</ele>
        <time>2015-06-19T13:07:03Z</time>
      </trkpt>
      <trkpt lat="39.800419248463" lon="3.119078327692">
        <ele>26.8</ele>
        <time>2015-06-19T13:07:13Z</time>
      </trkpt>
      <trkpt lat="39.80052595005" lon="3.119047230843">
        <ele>26.8</ele>
        <time>2015-06-19T13:07:15Z</time>
      </trkpt>
      <trkpt lat="39.800581941142" lon="3.119035831459">
        <ele>27.4</ele>
        <time>2015-06-19T13:07:16Z</time>
      </trkpt>
      <trkpt lat="39.800806911338" lon="3.118966261689">
        <ele>28.4</ele>
        <time>2015-06-19T13:07:20Z</time>
      </trkpt>
      <trkpt lat="39.80092325211" lon="3.118926866759">
        <ele>28.8</ele>
        <time>2015-06-19T13:07:22Z</time>
      </trkpt>
      <trkpt lat="39.801223156492" lon="3.118840281732">
        <ele>27.2</ele>
        <time>2015-06-19T13:07:27Z</time>
      </trkpt>
      <trkpt lat="39.801399763125" lon="3.118780351147">
        <ele>27</ele>
        <time>2015-06-19T13:07:30Z</time>
      </trkpt>
      <trkpt lat="39.801894965777" lon="3.118623022884">
        <ele>27</ele>
        <time>2015-06-19T13:07:38Z</time>
      </trkpt>
      <trkpt lat="39.801957830027" lon="3.11860743255">
        <ele>27.2</ele>
        <time>2015-06-19T13:07:39Z</time>
      </trkpt>
      <trkpt lat="39.802263853196" lon="3.118500395687">
        <ele>27</ele>
        <time>2015-06-19T13:07:44Z</time>
      </trkpt>
      <trkpt lat="39.802736759994" lon="3.118322112674">
        <ele>27</ele>
        <time>2015-06-19T13:07:52Z</time>
      </trkpt>
      <trkpt lat="39.80329784438" lon="3.118118935418">
        <ele>27</ele>
        <time>2015-06-19T13:08:01Z</time>
      </trkpt>
      <trkpt lat="39.803427344735" lon="3.118076103909">
        <ele>27</ele>
        <time>2015-06-19T13:08:03Z</time>
      </trkpt>
      <trkpt lat="39.803845433907" lon="3.117949621038">
        <ele>26.6</ele>
        <time>2015-06-19T13:08:10Z</time>
      </trkpt>
      <trkpt lat="39.804022794911" lon="3.117959846956">
        <ele>26.6</ele>
        <time>2015-06-19T13:08:13Z</time>
      </trkpt>
      <trkpt lat="39.804081719668" lon="3.117986501398">
        <ele>26.6</ele>
        <time>2015-06-19T13:08:14Z</time>
      </trkpt>
      <trkpt lat="39.804261176147" lon="3.117948447572">
        <ele>27.2</ele>
        <time>2015-06-19T13:08:17Z</time>
      </trkpt>
      <trkpt lat="39.804490421112" lon="3.117830765696">
        <ele>27</ele>
        <time>2015-06-19T13:08:21Z</time>
      </trkpt>
      <trkpt lat="39.804553369181" lon="3.117819031036">
        <ele>27.2</ele>
        <time>2015-06-19T13:08:22Z</time>
      </trkpt>
      <trkpt lat="39.804729137624" lon="3.117764967781">
        <ele>27.2</ele>
        <time>2015-06-19T13:08:25Z</time>
      </trkpt>
      <trkpt lat="39.804940864418" lon="3.117703109359">
        <ele>26.8</ele>
        <time>2015-06-19T13:08:29Z</time>
      </trkpt>
      <trkpt lat="39.804983193013" lon="3.117694559821">
        <ele>27</ele>
        <time>2015-06-19T13:08:30Z</time>
      </trkpt>
      <trkpt lat="39.805259963351" lon="3.117601939826">
        <ele>26.4</ele>
        <time>2015-06-19T13:08:36Z</time>
      </trkpt>
      <trkpt lat="39.805446544445" lon="3.117538991757">
        <ele>26.2</ele>
        <time>2015-06-19T13:08:40Z</time>
      </trkpt>
      <trkpt lat="39.805675537953" lon="3.117485347597">
        <ele>26.2</ele>
        <time>2015-06-19T13:08:45Z</time>
      </trkpt>
      <trkpt lat="39.806059261335" lon="3.11734511841">
        <ele>26.4</ele>
        <time>2015-06-19T13:08:53Z</time>
      </trkpt>
      <trkpt lat="39.806418677207" lon="3.117237913909">
        <ele>26.4</ele>
        <time>2015-06-19T13:09:00Z</time>
      </trkpt>
      <trkpt lat="39.806845818831" lon="3.117093242315">
        <ele>26.2</ele>
        <time>2015-06-19T13:09:08Z</time>
      </trkpt>
      <trkpt lat="39.807134491467" lon="3.116987462737">
        <ele>26</ele>
        <time>2015-06-19T13:09:14Z</time>
      </trkpt>
      <trkpt lat="39.807534559554" lon="3.116853184699">
        <ele>26.2</ele>
        <time>2015-06-19T13:09:22Z</time>
      </trkpt>
      <trkpt lat="39.808008723637" lon="3.116688228907">
        <ele>26.8</ele>
        <time>2015-06-19T13:09:31Z</time>
      </trkpt>
      <trkpt lat="39.808349866967" lon="3.116576749637">
        <ele>26.2</ele>
        <time>2015-06-19T13:09:38Z</time>
      </trkpt>
      <trkpt lat="39.808485905204" lon="3.116534085766">
        <ele>26.6</ele>
        <time>2015-06-19T13:09:41Z</time>
      </trkpt>
      <trkpt lat="39.808578022285" lon="3.116494104103">
        <ele>26.8</ele>
        <time>2015-06-19T13:09:43Z</time>
      </trkpt>
      <trkpt lat="39.808755131832" lon="3.116437274821">
        <ele>26.4</ele>
        <time>2015-06-19T13:09:47Z</time>
      </trkpt>
      <trkpt lat="39.808861581962" lon="3.116398047529">
        <ele>26.2</ele>
        <time>2015-06-19T13:09:49Z</time>
      </trkpt>
      <trkpt lat="39.809158049765" lon="3.116287741725">
        <ele>26.8</ele>
        <time>2015-06-19T13:09:55Z</time>
      </trkpt>
      <trkpt lat="39.809311270897" lon="3.116225967122">
        <ele>26.6</ele>
        <time>2015-06-19T13:09:58Z</time>
      </trkpt>
      <trkpt lat="39.809712009536" lon="3.116088587781">
        <ele>26.2</ele>
        <time>2015-06-19T13:10:06Z</time>
      </trkpt>
      <trkpt lat="39.809938488474" lon="3.116028824834">
        <ele>25.8</ele>
        <time>2015-06-19T13:10:11Z</time>
      </trkpt>
      <trkpt lat="39.810201344858" lon="3.115959338883">
        <ele>26</ele>
        <time>2015-06-19T13:10:16Z</time>
      </trkpt>
      <trkpt lat="39.810256833036" lon="3.115950034974">
        <ele>26.4</ele>
        <time>2015-06-19T13:10:17Z</time>
      </trkpt>
      <trkpt lat="39.810629576129" lon="3.115834867668">
        <ele>26.4</ele>
        <time>2015-06-19T13:10:24Z</time>
      </trkpt>
      <trkpt lat="39.811129472645" lon="3.115675024835">
        <ele>26.2</ele>
        <time>2015-06-19T13:10:33Z</time>
      </trkpt>
      <trkpt lat="39.811583855444" lon="3.115533119268">
        <ele>26.2</ele>
        <time>2015-06-19T13:10:41Z</time>
      </trkpt>
      <trkpt lat="39.812094564611" lon="3.115377215928">
        <ele>26.6</ele>
        <time>2015-06-19T13:10:50Z</time>
      </trkpt>
      <trkpt lat="39.812398995219" lon="3.115274537653">
        <ele>26.2</ele>
        <time>2015-06-19T13:10:56Z</time>
      </trkpt>
      <trkpt lat="39.812692026443" lon="3.115175212138">
        <ele>26</ele>
        <time>2015-06-19T13:11:02Z</time>
      </trkpt>
      <trkpt lat="39.813033002135" lon="3.115061972669">
        <ele>26.4</ele>
        <time>2015-06-19T13:11:09Z</time>
      </trkpt>
      <trkpt lat="39.813195108081" lon="3.11501662659">
        <ele>26.2</ele>
        <time>2015-06-19T13:11:13Z</time>
      </trkpt>
      <trkpt lat="39.813323854065" lon="3.114965999914">
        <ele>26</ele>
        <time>2015-06-19T13:11:16Z</time>
      </trkpt>
      <trkpt lat="39.813373642551" lon="3.114943955517">
        <ele>26</ele>
        <time>2015-06-19T13:11:17Z</time>
      </trkpt>
      <trkpt lat="39.813639767876" lon="3.114832140971">
        <ele>26</ele>
        <time>2015-06-19T13:11:22Z</time>
      </trkpt>
      <trkpt lat="39.814030615873" lon="3.114708088851">
        <ele>26.4</ele>
        <time>2015-06-19T13:11:29Z</time>
      </trkpt>
      <trkpt lat="39.814348206064" lon="3.11461094263">
        <ele>26.2</ele>
        <time>2015-06-19T13:11:35Z</time>
      </trkpt>
      <trkpt lat="39.814411657047" lon="3.114599794703">
        <ele>26.2</ele>
        <time>2015-06-19T13:11:36Z</time>
      </trkpt>
      <trkpt lat="39.81462514404" lon="3.114528045639">
        <ele>26</ele>
        <time>2015-06-19T13:11:40Z</time>
      </trkpt>
      <trkpt lat="39.814982883532" lon="3.114437688757">
        <ele>25.8</ele>
        <time>2015-06-19T13:11:47Z</time>
      </trkpt>
      <trkpt lat="39.815193520679" lon="3.114354288852">
        <ele>25.8</ele>
        <time>2015-06-19T13:11:52Z</time>
      </trkpt>
      <trkpt lat="39.815329056002" lon="3.114325287478">
        <ele>25.6</ele>
        <time>2015-06-19T13:11:55Z</time>
      </trkpt>
      <trkpt lat="39.815468446999" lon="3.114277678286">
        <ele>25.6</ele>
        <time>2015-06-19T13:11:58Z</time>
      </trkpt>
      <trkpt lat="39.815593002033" lon="3.114209701077">
        <ele>25.8</ele>
        <time>2015-06-19T13:12:01Z</time>
      </trkpt>
      <trkpt lat="39.815690315892" lon="3.114168545948">
        <ele>26</ele>
        <time>2015-06-19T13:12:03Z</time>
      </trkpt>
      <trkpt lat="39.815788970855" lon="3.114142897334">
        <ele>26.2</ele>
        <time>2015-06-19T13:12:05Z</time>
      </trkpt>
      <trkpt lat="39.816111171091" lon="3.114049690606">
        <ele>26.8</ele>
        <time>2015-06-19T13:12:11Z</time>
      </trkpt>
      <trkpt lat="39.816404453772" lon="3.114002751966">
        <ele>26.6</ele>
        <time>2015-06-19T13:12:17Z</time>
      </trkpt>
      <trkpt lat="39.816644511388" lon="3.113964614321">
        <ele>25.8</ele>
        <time>2015-06-19T13:12:23Z</time>
      </trkpt>
      <trkpt lat="39.816912313093" lon="3.113960004276">
        <ele>25.4</ele>
        <time>2015-06-19T13:12:29Z</time>
      </trkpt>
      <trkpt lat="39.81708523169" lon="3.113960255733">
        <ele>25.6</ele>
        <time>2015-06-19T13:12:33Z</time>
      </trkpt>
      <trkpt lat="39.81713636128" lon="3.113969475823">
        <ele>25.6</ele>
        <time>2015-06-19T13:12:34Z</time>
      </trkpt>
      <trkpt lat="39.817275668458" lon="3.113986658718">
        <ele>25.6</ele>
        <time>2015-06-19T13:12:37Z</time>
      </trkpt>
      <trkpt lat="39.817412377247" lon="3.114021611241">
        <ele>25.8</ele>
        <time>2015-06-19T13:12:40Z</time>
      </trkpt>
      <trkpt lat="39.817511367486" lon="3.114034184091">
        <ele>25.6</ele>
        <time>2015-06-19T13:12:42Z</time>
      </trkpt>
      <trkpt lat="39.817664504799" lon="3.114054971203">
        <ele>25.2</ele>
        <time>2015-06-19T13:12:45Z</time>
      </trkpt>
      <trkpt lat="39.817714628561" lon="3.114070561537">
        <ele>25.2</ele>
        <time>2015-06-19T13:12:46Z</time>
      </trkpt>
      <trkpt lat="39.817827448935" lon="3.114090091364">
        <ele>25.2</ele>
        <time>2015-06-19T13:12:49Z</time>
      </trkpt>
      <trkpt lat="39.818084102713" lon="3.114185728843">
        <ele>24.8</ele>
        <time>2015-06-19T13:12:57Z</time>
      </trkpt>
      <trkpt lat="39.81832910565" lon="3.114226548696">
        <ele>25</ele>
        <time>2015-06-19T13:13:02Z</time>
      </trkpt>
      <trkpt lat="39.818697490155" lon="3.114286144005">
        <ele>25.8</ele>
        <time>2015-06-19T13:13:09Z</time>
      </trkpt>
      <trkpt lat="39.81904240534" lon="3.114349259712">
        <ele>25.6</ele>
        <time>2015-06-19T13:13:16Z</time>
      </trkpt>
      <trkpt lat="39.819439455943" lon="3.11442737902">
        <ele>25.2</ele>
        <time>2015-06-19T13:13:24Z</time>
      </trkpt>
      <trkpt lat="39.819736175203" lon="3.114483789207">
        <ele>25.6</ele>
        <time>2015-06-19T13:13:31Z</time>
      </trkpt>
      <trkpt lat="39.819872297259" lon="3.114537433367">
        <ele>26</ele>
        <time>2015-06-19T13:13:35Z</time>
      </trkpt>
      <trkpt lat="39.820086370985" lon="3.114579175229">
        <ele>25.6</ele>
        <time>2015-06-19T13:13:41Z</time>
      </trkpt>
      <trkpt lat="39.820335564872" lon="3.114603063644">
        <ele>25.2</ele>
        <time>2015-06-19T13:13:46Z</time>
      </trkpt>
      <trkpt lat="39.820653657977" lon="3.11467464507">
        <ele>25.6</ele>
        <time>2015-06-19T13:13:51Z</time>
      </trkpt>
      <trkpt lat="39.820987760511" lon="3.114731474352">
        <ele>25.4</ele>
        <time>2015-06-19T13:13:56Z</time>
      </trkpt>
      <trkpt lat="39.821188674654" lon="3.11477187511">
        <ele>25.8</ele>
        <time>2015-06-19T13:13:59Z</time>
      </trkpt>
      <trkpt lat="39.821331418411" lon="3.114800122113">
        <ele>25.6</ele>
        <time>2015-06-19T13:14:01Z</time>
      </trkpt>
      <trkpt lat="39.82146309806" lon="3.114840187595">
        <ele>25.8</ele>
        <time>2015-06-19T13:14:03Z</time>
      </trkpt>
      <trkpt lat="39.821578433004" lon="3.11486323782">
        <ele>25.8</ele>
        <time>2015-06-19T13:14:05Z</time>
      </trkpt>
      <trkpt lat="39.821869368753" lon="3.114930963572">
        <ele>25.8</ele>
        <time>2015-06-19T13:14:10Z</time>
      </trkpt>
      <trkpt lat="39.822209673893" lon="3.114967257199">
        <ele>25.6</ele>
        <time>2015-06-19T13:14:16Z</time>
      </trkpt>
      <trkpt lat="39.822338419877" lon="3.114983769542">
        <ele>25.6</ele>
        <time>2015-06-19T13:14:18Z</time>
      </trkpt>
      <trkpt lat="39.822571520516" lon="3.115032133105">
        <ele>25.6</ele>
        <time>2015-06-19T13:14:22Z</time>
      </trkpt>
      <trkpt lat="39.822918614995" lon="3.115106229101">
        <ele>25.4</ele>
        <time>2015-06-19T13:14:28Z</time>
      </trkpt>
      <trkpt lat="39.823333770502" lon="3.115206141349">
        <ele>25.6</ele>
        <time>2015-06-19T13:14:35Z</time>
      </trkpt>
      <trkpt lat="39.823773484976" lon="3.115269173237">
        <ele>25.8</ele>
        <time>2015-06-19T13:14:42Z</time>
      </trkpt>
      <trkpt lat="39.824186545008" lon="3.115350477667">
        <ele>25.6</ele>
        <time>2015-06-19T13:14:49Z</time>
      </trkpt>
      <trkpt lat="39.824561383576" lon="3.115421053265">
        <ele>25.4</ele>
        <time>2015-06-19T13:14:56Z</time>
      </trkpt>
      <trkpt lat="39.824836728991" lon="3.11547511652">
        <ele>24.6</ele>
        <time>2015-06-19T13:15:02Z</time>
      </trkpt>
      <trkpt lat="39.824941754198" lon="3.115477463452">
        <ele>24.6</ele>
        <time>2015-06-19T13:15:04Z</time>
      </trkpt>
      <trkpt lat="39.825108470189" lon="3.115510655776">
        <ele>24.8</ele>
        <time>2015-06-19T13:15:07Z</time>
      </trkpt>
      <trkpt lat="39.825463946568" lon="3.115574442035">
        <ele>24.6</ele>
        <time>2015-06-19T13:15:13Z</time>
      </trkpt>
      <trkpt lat="39.825702914537" lon="3.115619955752">
        <ele>24.8</ele>
        <time>2015-06-19T13:15:17Z</time>
      </trkpt>
      <trkpt lat="39.825833169263" lon="3.115638815027">
        <ele>24.8</ele>
        <time>2015-06-19T13:15:19Z</time>
      </trkpt>
      <trkpt lat="39.826300711645" lon="3.115720622371">
        <ele>25</ele>
        <time>2015-06-19T13:15:26Z</time>
      </trkpt>
      <trkpt lat="39.826774540452" lon="3.115807375036">
        <ele>25.2</ele>
        <time>2015-06-19T13:15:33Z</time>
      </trkpt>
      <trkpt lat="39.827297571012" lon="3.115893708606">
        <ele>25.4</ele>
        <time>2015-06-19T13:15:41Z</time>
      </trkpt>
      <trkpt lat="39.827599822326" lon="3.115948358594">
        <ele>25</ele>
        <time>2015-06-19T13:15:46Z</time>
      </trkpt>
      <trkpt lat="39.827957142723" lon="3.116012228672">
        <ele>24.6</ele>
        <time>2015-06-19T13:15:53Z</time>
      </trkpt>
      <trkpt lat="39.828037357506" lon="3.116041984417">
        <ele>24.6</ele>
        <time>2015-06-19T13:15:55Z</time>
      </trkpt>
      <trkpt lat="39.828066777975" lon="3.116146003796">
        <ele>24.4</ele>
        <time>2015-06-19T13:15:57Z</time>
      </trkpt>
      <trkpt lat="39.828056049143" lon="3.116238372334">
        <ele>24.4</ele>
        <time>2015-06-19T13:15:59Z</time>
      </trkpt>
      <trkpt lat="39.828045571768" lon="3.116367369775">
        <ele>24.6</ele>
        <time>2015-06-19T13:16:01Z</time>
      </trkpt>
      <trkpt lat="39.827998549309" lon="3.116816555796">
        <ele>25.4</ele>
        <time>2015-06-19T13:16:08Z</time>
      </trkpt>
      <trkpt lat="39.827952532678" lon="3.117203296662">
        <ele>25.6</ele>
        <time>2015-06-19T13:16:15Z</time>
      </trkpt>
      <trkpt lat="39.827954711972" lon="3.117381747313">
        <ele>25.6</ele>
        <time>2015-06-19T13:16:20Z</time>
      </trkpt>
      <trkpt lat="39.828084044689" lon="3.117436145844">
        <ele>25</ele>
        <time>2015-06-19T13:16:24Z</time>
      </trkpt>
      <trkpt lat="39.828348242177" lon="3.117484174131">
        <ele>24.6</ele>
        <time>2015-06-19T13:16:30Z</time>
      </trkpt>
      <trkpt lat="39.828588467431" lon="3.117542763612">
        <ele>25.2</ele>
        <time>2015-06-19T13:16:36Z</time>
      </trkpt>
      <trkpt lat="39.828644458523" lon="3.117649213742">
        <ele>24.8</ele>
        <time>2015-06-19T13:16:40Z</time>
      </trkpt>
      <trkpt lat="39.828754596689" lon="3.117874770671">
        <ele>25.2</ele>
        <time>2015-06-19T13:16:47Z</time>
      </trkpt>
      <trkpt lat="39.828876218058" lon="3.117998236058">
        <ele>24.8</ele>
        <time>2015-06-19T13:16:53Z</time>
      </trkpt>
      <trkpt lat="39.829007394793" lon="3.118174507415">
        <ele>24.4</ele>
        <time>2015-06-19T13:16:59Z</time>
      </trkpt>
      <trkpt lat="39.829112252362" lon="3.11836184288">
        <ele>24.4</ele>
        <time>2015-06-19T13:17:05Z</time>
      </trkpt>
      <trkpt lat="39.82912499285" lon="3.118489750674">
        <ele>24.2</ele>
        <time>2015-06-19T13:17:09Z</time>
      </trkpt>
      <trkpt lat="39.829119460796" lon="3.118509783415">
        <ele>24.2</ele>
        <time>2015-06-19T13:17:10Z</time>
      </trkpt>
      <trkpt lat="39.82907553964" lon="3.118581783936">
        <ele>24.6</ele>
        <time>2015-06-19T13:17:14Z</time>
      </trkpt>
      <trkpt lat="39.829074785269" lon="3.118599553564">
        <ele>24.8</ele>
        <time>2015-06-19T13:17:15Z</time>
      </trkpt>
      <trkpt lat="39.829107558498" lon="3.118633164983">
        <ele>24.4</ele>
        <time>2015-06-19T13:17:18Z</time>
      </trkpt>
      <trkpt lat="39.829115102208" lon="3.118642804168">
        <ele>24.2</ele>
        <time>2015-06-19T13:17:19Z</time>
      </trkpt>
      <trkpt lat="39.829117281502" lon="3.118644815824">
        <ele>24.6</ele>
        <time>2015-06-19T13:17:24Z</time>
      </trkpt>
      <trkpt lat="39.829129435257" lon="3.118652778629">
        <ele>24.6</ele>
        <time>2015-06-19T13:17:25Z</time>
      </trkpt>
      <trkpt lat="39.829167656721" lon="3.118664010375">
        <ele>25</ele>
        <time>2015-06-19T13:17:29Z</time>
      </trkpt>
      <trkpt lat="39.829184671978" lon="3.118668452782">
        <ele>25.2</ele>
        <time>2015-06-19T13:17:31Z</time>
      </trkpt>
      <trkpt lat="39.829254241748" lon="3.118692005921">
        <ele>26.2</ele>
        <time>2015-06-19T13:17:38Z</time>
      </trkpt>
      <trkpt lat="39.829356920023" lon="3.118728383367">
        <ele>25.4</ele>
        <time>2015-06-19T13:17:49Z</time>
      </trkpt>
      <trkpt lat="39.829405954138" lon="3.118722935132">
        <ele>24.8</ele>
        <time>2015-06-19T13:17:53Z</time>
      </trkpt>
      <trkpt lat="39.82941333021" lon="3.118697370337">
        <ele>24.4</ele>
        <time>2015-06-19T13:17:55Z</time>
      </trkpt>
      <trkpt lat="39.82941835935" lon="3.118684881306">
        <ele>24</ele>
        <time>2015-06-19T13:17:57Z</time>
      </trkpt>
      <trkpt lat="39.829429507277" lon="3.118639954322">
        <ele>23.6</ele>
        <time>2015-06-19T13:18:00Z</time>
      </trkpt>
      <trkpt lat="39.82947451808" lon="3.118486062638">
        <ele>23.8</ele>
        <time>2015-06-19T13:18:07Z</time>
      </trkpt>
      <trkpt lat="39.829556828338" lon="3.118371230608">
        <ele>24</ele>
        <time>2015-06-19T13:18:13Z</time>
      </trkpt>
      <trkpt lat="39.829745924002" lon="3.118310294195">
        <ele>24.2</ele>
        <time>2015-06-19T13:18:19Z</time>
      </trkpt>
      <trkpt lat="39.82990953869" lon="3.118226391376">
        <ele>24.4</ele>
        <time>2015-06-19T13:18:24Z</time>
      </trkpt>
      <trkpt lat="39.82998329941" lon="3.118171825207">
        <ele>24.6</ele>
        <time>2015-06-19T13:18:26Z</time>
      </trkpt>
      <trkpt lat="39.830076506138" lon="3.118094124994">
        <ele>25</ele>
        <time>2015-06-19T13:18:29Z</time>
      </trkpt>
      <trkpt lat="39.830143058424" lon="3.118017262971">
        <ele>24.8</ele>
        <time>2015-06-19T13:18:31Z</time>
      </trkpt>
      <trkpt lat="39.830224111397" lon="3.117884409856">
        <ele>25</ele>
        <time>2015-06-19T13:18:34Z</time>
      </trkpt>
      <trkpt lat="39.830225117225" lon="3.117866891685">
        <ele>25</ele>
        <time>2015-06-19T13:18:35Z</time>
      </trkpt>
      <trkpt lat="39.830287730018" lon="3.117712329449">
        <ele>25</ele>
        <time>2015-06-19T13:18:38Z</time>
      </trkpt>
      <trkpt lat="39.830314635917" lon="3.117625660603">
        <ele>24.8</ele>
        <time>2015-06-19T13:18:40Z</time>
      </trkpt>
      <trkpt lat="39.830383283678" lon="3.117433044541">
        <ele>24.8</ele>
        <time>2015-06-19T13:18:45Z</time>
      </trkpt>
      <trkpt lat="39.830398622555" lon="3.11733338375">
        <ele>24.6</ele>
        <time>2015-06-19T13:18:50Z</time>
      </trkpt>
      <trkpt lat="39.830383870411" lon="3.117327767877">
        <ele>24.6</ele>
        <time>2015-06-19T13:18:51Z</time>
      </trkpt>
      <trkpt lat="39.830380769108" lon="3.11740714447">
        <ele>24.8</ele>
        <time>2015-06-19T13:18:54Z</time>
      </trkpt>
      <trkpt lat="39.830443549539" lon="3.117440252975">
        <ele>24.8</ele>
        <time>2015-06-19T13:18:57Z</time>
      </trkpt>
      <trkpt lat="39.83050046264" lon="3.11746665596">
        <ele>24.6</ele>
        <time>2015-06-19T13:18:59Z</time>
      </trkpt>
      <trkpt lat="39.830565590003" lon="3.117484006493">
        <ele>24.6</ele>
        <time>2015-06-19T13:19:01Z</time>
      </trkpt>
      <trkpt lat="39.830686876096" lon="3.1175219765">
        <ele>24.8</ele>
        <time>2015-06-19T13:19:04Z</time>
      </trkpt>
      <trkpt lat="39.830770862734" lon="3.117552738073">
        <ele>24.8</ele>
        <time>2015-06-19T13:19:06Z</time>
      </trkpt>
      <trkpt lat="39.830831966785" lon="3.117589115519">
        <ele>25</ele>
        <time>2015-06-19T13:19:08Z</time>
      </trkpt>
      <trkpt lat="39.830842779436" lon="3.117617194884">
        <ele>25</ele>
        <time>2015-06-19T13:19:09Z</time>
      </trkpt>
      <trkpt lat="39.830840600142" lon="3.117725321394">
        <ele>25.2</ele>
        <time>2015-06-19T13:19:12Z</time>
      </trkpt>
      <trkpt lat="39.830931040843" lon="3.117775445156">
        <ele>25.2</ele>
        <time>2015-06-19T13:19:15Z</time>
      </trkpt>
      <trkpt lat="39.830965071357" lon="3.11778013902">
        <ele>25.2</ele>
        <time>2015-06-19T13:19:16Z</time>
      </trkpt>
      <trkpt lat="39.83118107292" lon="3.117825820375">
        <ele>25.4</ele>
        <time>2015-06-19T13:19:21Z</time>
      </trkpt>
      <trkpt lat="39.831363211607" lon="3.117902933855">
        <ele>25.6</ele>
        <time>2015-06-19T13:19:26Z</time>
      </trkpt>
      <trkpt lat="39.831430685902" lon="3.117982729543">
        <ele>25.4</ele>
        <time>2015-06-19T13:19:29Z</time>
      </trkpt>
      <trkpt lat="39.831435463585" lon="3.11801231765">
        <ele>25.2</ele>
        <time>2015-06-19T13:19:30Z</time>
      </trkpt>
      <trkpt lat="39.831429512436" lon="3.118186325894">
        <ele>24.6</ele>
        <time>2015-06-19T13:19:34Z</time>
      </trkpt>
      <trkpt lat="39.831402019804" lon="3.11844733826">
        <ele>24.8</ele>
        <time>2015-06-19T13:19:40Z</time>
      </trkpt>
      <trkpt lat="39.831366145272" lon="3.118491510873">
        <ele>24.8</ele>
        <time>2015-06-19T13:19:42Z</time>
      </trkpt>
      <trkpt lat="39.831334377871" lon="3.118529313242">
        <ele>24.8</ele>
        <time>2015-06-19T13:19:44Z</time>
      </trkpt>
      <trkpt lat="39.83133278531" lon="3.118561918833">
        <ele>24.6</ele>
        <time>2015-06-19T13:19:45Z</time>
      </trkpt>
      <trkpt lat="39.8313336235" lon="3.118644564367">
        <ele>23.8</ele>
        <time>2015-06-19T13:19:47Z</time>
      </trkpt>
      <trkpt lat="39.831312752569" lon="3.118768616487">
        <ele>22.8</ele>
        <time>2015-06-19T13:19:50Z</time>
      </trkpt>
      <trkpt lat="39.831328929636" lon="3.11882452376">
        <ele>22.6</ele>
        <time>2015-06-19T13:19:52Z</time>
      </trkpt>
      <trkpt lat="39.831411491351" lon="3.118899625584">
        <ele>22.8</ele>
        <time>2015-06-19T13:19:57Z</time>
      </trkpt>
      <trkpt lat="39.831500926224" lon="3.118942960007">
        <ele>22.8</ele>
        <time>2015-06-19T13:20:03Z</time>
      </trkpt>
      <trkpt lat="39.831581308645" lon="3.119006578628">
        <ele>23</ele>
        <time>2015-06-19T13:20:06Z</time>
      </trkpt>
      <trkpt lat="39.831609471829" lon="3.119032562518">
        <ele>23.2</ele>
        <time>2015-06-19T13:20:07Z</time>
      </trkpt>
      <trkpt lat="39.831802255529" lon="3.119173546076">
        <ele>22</ele>
        <time>2015-06-19T13:20:14Z</time>
      </trkpt>
      <trkpt lat="39.831860761191" lon="3.119213863015">
        <ele>21.6</ele>
        <time>2015-06-19T13:20:16Z</time>
      </trkpt>
      <trkpt lat="39.831942484716" lon="3.119270273202">
        <ele>21.8</ele>
        <time>2015-06-19T13:20:19Z</time>
      </trkpt>
      <trkpt lat="39.832048683389" lon="3.119345207388">
        <ele>22.8</ele>
        <time>2015-06-19T13:20:24Z</time>
      </trkpt>
      <trkpt lat="39.832057400565" lon="3.119347051406">
        <ele>22.8</ele>
        <time>2015-06-19T13:20:25Z</time>
      </trkpt>
      <trkpt lat="39.832116157684" lon="3.11939616934">
        <ele>22.8</ele>
        <time>2015-06-19T13:20:29Z</time>
      </trkpt>
      <trkpt lat="39.83223300137" lon="3.119477892865">
        <ele>22.4</ele>
        <time>2015-06-19T13:20:34Z</time>
      </trkpt>
      <trkpt lat="39.832355460929" lon="3.11956213096">
        <ele>22.2</ele>
        <time>2015-06-19T13:20:39Z</time>
      </trkpt>
      <trkpt lat="39.832414134229" lon="3.11957218924">
        <ele>22.2</ele>
        <time>2015-06-19T13:20:41Z</time>
      </trkpt>
      <trkpt lat="39.832517063961" lon="3.119640585544">
        <ele>22.6</ele>
        <time>2015-06-19T13:20:45Z</time>
      </trkpt>
      <trkpt lat="39.832674811319" lon="3.119738067041">
        <ele>22.6</ele>
        <time>2015-06-19T13:20:51Z</time>
      </trkpt>
      <trkpt lat="39.832793415204" lon="3.119825490258">
        <ele>22.6</ele>
        <time>2015-06-19T13:20:57Z</time>
      </trkpt>
      <trkpt lat="39.832875222548" lon="3.119868992319">
        <ele>22.6</ele>
        <time>2015-06-19T13:21:03Z</time>
      </trkpt>
      <trkpt lat="39.832966333801" lon="3.119941160478">
        <ele>22.2</ele>
        <time>2015-06-19T13:21:08Z</time>
      </trkpt>
      <trkpt lat="39.832982427049" lon="3.11993512551">
        <ele>22.4</ele>
        <time>2015-06-19T13:21:09Z</time>
      </trkpt>
      <trkpt lat="39.833009835862" lon="3.119857509116">
        <ele>22.8</ele>
        <time>2015-06-19T13:21:13Z</time>
      </trkpt>
      <trkpt lat="39.833021821979" lon="3.119819706747">
        <ele>22.8</ele>
        <time>2015-06-19T13:21:14Z</time>
      </trkpt>
      <trkpt lat="39.833077477795" lon="3.119708730391">
        <ele>22.8</ele>
        <time>2015-06-19T13:21:17Z</time>
      </trkpt>
      <trkpt lat="39.833188621789" lon="3.119502870927">
        <ele>23.6</ele>
        <time>2015-06-19T13:21:23Z</time>
      </trkpt>
      <trkpt lat="39.833221478837" lon="3.119437575926">
        <ele>23.8</ele>
        <time>2015-06-19T13:21:25Z</time>
      </trkpt>
      <trkpt lat="39.833274284807" lon="3.119309416675">
        <ele>23.6</ele>
        <time>2015-06-19T13:21:28Z</time>
      </trkpt>
      <trkpt lat="39.833399342755" lon="3.11904329135">
        <ele>22.8</ele>
        <time>2015-06-19T13:21:34Z</time>
      </trkpt>
      <trkpt lat="39.833425242826" lon="3.119039687133">
        <ele>22.8</ele>
        <time>2015-06-19T13:21:35Z</time>
      </trkpt>
      <trkpt lat="39.833478048796" lon="3.119036502011">
        <ele>23.2</ele>
        <time>2015-06-19T13:21:37Z</time>
      </trkpt>
      <trkpt lat="39.833554491724" lon="3.119114369862">
        <ele>23.6</ele>
        <time>2015-06-19T13:21:40Z</time>
      </trkpt>
      <trkpt lat="39.833679298215" lon="3.119273709781">
        <ele>23.2</ele>
        <time>2015-06-19T13:21:44Z</time>
      </trkpt>
      <trkpt lat="39.833704527734" lon="3.119311176874">
        <ele>23.2</ele>
        <time>2015-06-19T13:21:45Z</time>
      </trkpt>
      <trkpt lat="39.833827490207" lon="3.119580403502">
        <ele>23</ele>
        <time>2015-06-19T13:21:51Z</time>
      </trkpt>
      <trkpt lat="39.833913404682" lon="3.119738234679">
        <ele>24</ele>
        <time>2015-06-19T13:21:56Z</time>
      </trkpt>
      <trkpt lat="39.834079282483" lon="3.119956331717">
        <ele>24</ele>
        <time>2015-06-19T13:22:02Z</time>
      </trkpt>
      <trkpt lat="39.834304336498" lon="3.120156575308">
        <ele>24.2</ele>
        <time>2015-06-19T13:22:09Z</time>
      </trkpt>
      <trkpt lat="39.834546908684" lon="3.120349778103">
        <ele>24.2</ele>
        <time>2015-06-19T13:22:16Z</time>
      </trkpt>
      <trkpt lat="39.834767604111" lon="3.120527642021">
        <ele>24.4</ele>
        <time>2015-06-19T13:22:23Z</time>
      </trkpt>
      <trkpt lat="39.834883777245" lon="3.120598804352">
        <ele>24.6</ele>
        <time>2015-06-19T13:22:26Z</time>
      </trkpt>
      <trkpt lat="39.834958962888" lon="3.12062160312">
        <ele>24.6</ele>
        <time>2015-06-19T13:22:28Z</time>
      </trkpt>
      <trkpt lat="39.835099946446" lon="3.120658902575">
        <ele>24.8</ele>
        <time>2015-06-19T13:22:32Z</time>
      </trkpt>
      <trkpt lat="39.835305135358" lon="3.120698213686">
        <ele>25</ele>
        <time>2015-06-19T13:22:37Z</time>
      </trkpt>
      <trkpt lat="39.835429187478" lon="3.12071799497">
        <ele>24.8</ele>
        <time>2015-06-19T13:22:41Z</time>
      </trkpt>
      <trkpt lat="39.83550948608" lon="3.12074816981">
        <ele>24.8</ele>
        <time>2015-06-19T13:22:45Z</time>
      </trkpt>
      <trkpt lat="39.835702185961" lon="3.120822265806">
        <ele>25</ele>
        <time>2015-06-19T13:22:51Z</time>
      </trkpt>
      <trkpt lat="39.835741832348" lon="3.12086048727">
        <ele>25</ele>
        <time>2015-06-19T13:22:52Z</time>
      </trkpt>
      <trkpt lat="39.835853898351" lon="3.120966518305">
        <ele>25.2</ele>
        <time>2015-06-19T13:22:55Z</time>
      </trkpt>
      <trkpt lat="39.835900166439" lon="3.120998118068">
        <ele>25.2</ele>
        <time>2015-06-19T13:22:56Z</time>
      </trkpt>
      <trkpt lat="39.835994127538" lon="3.121102305085">
        <ele>25.4</ele>
        <time>2015-06-19T13:22:59Z</time>
      </trkpt>
      <trkpt lat="39.836168973972" lon="3.121333561706">
        <ele>25</ele>
        <time>2015-06-19T13:23:05Z</time>
      </trkpt>
      <trkpt lat="39.836266455469" lon="3.121521316266">
        <ele>25</ele>
        <time>2015-06-19T13:23:09Z</time>
      </trkpt>
      <trkpt lat="39.836281878165" lon="3.121567584354">
        <ele>25</ele>
        <time>2015-06-19T13:23:10Z</time>
      </trkpt>
      <trkpt lat="39.83637785092" lon="3.121758607855">
        <ele>25</ele>
        <time>2015-06-19T13:23:15Z</time>
      </trkpt>
      <trkpt lat="39.836430321614" lon="3.121908979141">
        <ele>25</ele>
        <time>2015-06-19T13:23:19Z</time>
      </trkpt>
      <trkpt lat="39.83651279951" lon="3.122004700439">
        <ele>25</ele>
        <time>2015-06-19T13:23:23Z</time>
      </trkpt>
      <trkpt lat="39.836693764731" lon="3.122169488593">
        <ele>24.8</ele>
        <time>2015-06-19T13:23:30Z</time>
      </trkpt>
      <trkpt lat="39.836850673899" lon="3.122326984494">
        <ele>25</ele>
        <time>2015-06-19T13:23:35Z</time>
      </trkpt>
      <trkpt lat="39.83693440908" lon="3.122425304181">
        <ele>25</ele>
        <time>2015-06-19T13:23:38Z</time>
      </trkpt>
      <trkpt lat="39.837106321849" lon="3.122634600224">
        <ele>24.6</ele>
        <time>2015-06-19T13:23:44Z</time>
      </trkpt>
      <trkpt lat="39.837255016755" lon="3.122786815528">
        <ele>25</ele>
        <time>2015-06-19T13:23:50Z</time>
      </trkpt>
      <trkpt lat="39.837391306449" lon="3.122888823251">
        <ele>25.4</ele>
        <time>2015-06-19T13:23:55Z</time>
      </trkpt>
      <trkpt lat="39.837575289154" lon="3.122982449074">
        <ele>25.2</ele>
        <time>2015-06-19T13:24:01Z</time>
      </trkpt>
      <trkpt lat="39.837737898014" lon="3.123060568382">
        <ele>25</ele>
        <time>2015-06-19T13:24:06Z</time>
      </trkpt>
      <trkpt lat="39.837933699198" lon="3.123170287453">
        <ele>25.2</ele>
        <time>2015-06-19T13:24:12Z</time>
      </trkpt>
      <trkpt lat="39.838040316966" lon="3.123275815574">
        <ele>24.8</ele>
        <time>2015-06-19T13:24:17Z</time>
      </trkpt>
      <trkpt lat="39.838138971929" lon="3.123384612636">
        <ele>24.8</ele>
        <time>2015-06-19T13:24:22Z</time>
      </trkpt>
      <trkpt lat="39.838190688252" lon="3.123455942605">
        <ele>24.4</ele>
        <time>2015-06-19T13:24:27Z</time>
      </trkpt>
      <trkpt lat="39.838285487541" lon="3.123580832915">
        <ele>24.8</ele>
        <time>2015-06-19T13:24:32Z</time>
      </trkpt>
      <trkpt lat="39.838326391213" lon="3.123689881434">
        <ele>24.2</ele>
        <time>2015-06-19T13:24:37Z</time>
      </trkpt>
      <trkpt lat="39.838307699576" lon="3.123770934407">
        <ele>24.2</ele>
        <time>2015-06-19T13:24:40Z</time>
      </trkpt>
    </trkseg>
  </trk>
</gpx>